[[{"header":{"parameterUnit":"m.s-1","parameterCategory":1,"la1":31.0,"la2":29.5877,"lo1":-88.7671,"lo2":-86.6584,"dy":0.0162,"dx":0.0185,"nx":115,"ny":88,"refTime":"2023-03-19T12:00:00:Z","depth":0,"parameterNumber":2,"parameterNumberName":"U-component_of_WINDS"},"data":[0.0,0.0,0.0,0.0,0.0,0.0,0.0,0.0,0.0,0.0,0.0,0.0,0.0,0.0,0.0,0.0,0.0,0.0,0.0,0.0,0.0,0.0,0.0,0.0,0.0,0.0,0.0,0.0,0.0,0.0,0.0,0.0,0.0,0.0,0.0,0.0,0.0,0.0,0.0,0.0,0.0,0.0,0.0,0.0,0.0,0.0,0.0,0.0,0.0,0.0,0.0,0.0,0.0,0.0,0.0,0.0,0.0,0.0,0.0,0.0,0.0,0.0,0.0,0.0,0.0,0.0,0.0,0.0,0.0,0.0,0.0,0.0,0.0,0.0,0.0,0.0,0.0,0.0,0.0,0.0,0.0,0.0,0.0,0.0,0.0,0.0,0.0,0.0,0.0,0.0,0.0,0.0,0.0,0.0,0.0,0.0,0.0,0.0,0.0,0.0,0.0,0.0,0.0,0.0,0.0,0.0,0.0,0.0,0.0,0.0,0.0,0.0,0.0,0.0,0.0,0.0,0.0,0.0,0.0,0.0,0.0,0.0,0.0,0.0,0.0,0.0,0.0,0.0,0.0,0.0,0.0,0.0,0.0,0.0,0.0,0.0,0.0,0.0,0.0,0.0,0.0,0.0,0.0,0.0,0.0,0.0,0.0,0.0,0.0,0.0,0.0,0.0,0.0,0.0,0.0,0.0,0.0,0.0,0.0,0.0,0.0,0.0,0.0,0.0,0.0,0.0,0.0,0.0,0.0,0.0,0.0,0.0,0.0,0.0,0.0,0.0,0.0,0.0,0.0,0.0,0.0,0.0,0.0,0.0,0.0,0.0,0.0,0.0,0.0,0.0,0.0,0.0,0.0,0.0,0.0,0.0,0.0,0.0,0.0,0.0,0.0,0.0,0.0,0.0,0.0,0.0,0.0,0.0,0.0,0.0,0.0,0.0,0.0,0.0,0.0,0.0,0.0,0.0,0.0,0.0,0.0,0.0,0.0,0.0,0.0,0.0,0.0,0.0,0.0,0.0,0.0,0.0,0.0,0.0,0.0,0.0,0.0,0.0,0.0,0.0,0.0,0.0,0.0,0.0,0.0,0.0,0.0,0.0,0.0,0.0,0.0,0.0,0.0,0.0,0.0,0.0,0.0,0.0,0.0,0.0,0.0,0.0,0.0,0.0,0.0,0.0,0.0,0.0,0.0,0.0,0.0,0.0,0.0,0.0,0.0,0.0,0.0,0.0,0.0,0.0,0.0,0.0,0.0,0.0,0.0,0.0,0.0,0.0,0.0,0.0,0.0,0.0,0.0,0.0,0.0,0.0,0.0,0.0,0.0,0.0,0.0,0.0,0.0,0.0,0.0,0.0,0.0,0.0,0.0,0.0,0.0,0.0,0.0,0.0,0.0,0.0,0.0,0.0,0.0,0.0,0.0,0.0,0.0,0.0,0.0,0.0,0.0,0.0,0.0,0.0,0.0,0.0,0.0,0.0,0.0,0.0,0.0,0.0,0.0,0.0,0.0,0.0,0.0,0.0,0.0,0.0,0.0,0.0,0.0,0.0,0.0,0.0,0.0,0.0,0.0,0.0,0.0,0.0,0.0,0.0,0.0,0.0,0.0,0.0,0.0,0.0,0.0,0.0,0.0,0.0,0.0,0.0,0.0,0.0,0.0,0.0,0.0,0.0,0.0,0.0,0.0,0.0,0.0,0.0,0.0,0.0,0.0,0.0,0.0,0.0,0.0,0.0,0.0,0.0,0.0,0.0,0.0,0.0,0.0,0.0,0.0,0.0,0.0,0.0,0.0,0.0,0.0,0.0,0.0,0.0,0.0,0.0,0.0,0.0,0.0,0.0,0.0,0.0,0.0,0.0,0.0,0.0,0.0,0.0,0.0,0.0,0.0,0.0,0.0,0.0,0.0,0.0,0.0,0.0,0.0,0.0,0.0,0.0,0.0,0.0,0.0,0.0,0.0,0.0,0.0,0.0,0.0,0.0,0.0,0.0,0.0,0.0,0.0,0.0,0.0,0.0,0.0,0.0,0.0,0.0,0.0,0.0,0.0,0.0,0.0,0.0,0.0,0.0,0.0,0.0,0.0,0.0,0.0,0.0,0.0,0.0,0.0,0.0,0.0,0.0,0.0,0.0,0.0,0.0,0.0,0.0,0.0,0.0,0.0,0.0,0.0,0.0,0.0,0.0,0.0,0.0,0.0,0.0,0.0,0.0,0.0,0.0,0.0,0.0,0.0,0.0,0.0,0.0,0.0,0.0,0.0,0.0,0.0,0.0,0.0,0.0,0.0,0.0,0.0,0.0,0.0,0.0,0.0,0.0,0.0,0.0,0.0,0.0,0.0,0.0,0.0,0.0,0.0,0.0,0.0,0.0,0.0,0.0,0.0,0.0,0.0,0.0,0.0,0.0,0.0,0.0,0.0,0.0,0.0,0.0,0.0,0.0,0.0,0.0,0.0,0.0,0.0,0.0,0.0,0.0,0.0,0.0,0.0,0.0,0.0,0.0,0.0,0.0,0.0,0.0,0.0,0.0,0.0,0.0,0.0,0.0,0.0,0.0,0.0,0.0,0.0,0.0,0.0,0.0,0.0,0.0,0.0,0.0,0.0,0.0,0.0,0.0,0.0,0.0,0.0,0.0,0.0,0.0,0.0,0.0,0.0,0.0,0.0,0.0,0.0,0.0,0.0,0.0,0.0,0.0,0.0,0.0,0.0,0.0,0.0,0.0,0.0,0.0,0.0,0.0,0.0,0.0,0.0,0.0,0.0,0.0,0.0,0.0,0.0,0.0,0.0,0.0,0.0,0.0,0.0,0.0,0.0,0.0,0.0,0.0,0.0,0.0,0.0,0.0,0.0,0.0,0.0,0.0,0.0,0.0,0.0,0.0,0.0,0.0,0.0,0.0,0.0,0.0,0.0,0.0,0.0,0.0,0.0,0.0,0.0,0.0,0.0,0.0,0.0,0.0,0.0,0.0,0.0,0.0,0.0,0.0,0.0,0.0,0.0,0.0,0.0,0.0,0.0,0.0,0.0,0.0,0.0,0.0,0.0,0.0,0.0,0.0,0.0,0.0,0.0,0.0,0.0,0.0,0.0,0.0,0.0,0.0,0.0,0.0,0.0,0.0,0.0,0.0,0.0,0.0,0.0,0.0,0.0,0.0,0.0,0.0,0.0,0.0,0.0,0.0,0.0,0.0,0.0,0.0,0.0,0.0,0.0,0.0,0.0,0.0,0.0,0.0,0.0,0.0,0.0,0.0,0.0,0.0,0.0,0.0,0.0,0.0,0.0,0.0,0.0,0.0,0.0,0.0,0.0,0.0,0.0,0.0,0.0,0.0,0.0,0.0,0.0,0.0,0.0,0.0,0.0,0.0,0.0,0.0,0.0,0.0,0.0,0.0,0.0,0.0,0.0,0.0,0.0,0.0,0.0,0.0,0.0,0.0,0.0,0.0,0.0,0.0,0.0,0.0,0.0,0.0,0.0,0.0,0.0,0.0,0.0,0.0,0.0,0.0,0.0,0.0,0.0,0.0,0.0,0.0,0.0,0.0,0.0,0.0,0.0,0.0,0.0,0.0,0.0,0.0,0.0,0.0,0.0,0.0,0.0,0.0,0.0,0.0,0.0,0.0,0.0,0.0,0.0,0.0,0.0,0.0,0.0,0.0,0.0,0.0,0.0,0.0,0.0,0.0,0.0,0.0,0.0,0.0,0.0,0.0,0.0,0.0,0.0,0.0,0.0,0.0,0.0,0.0,0.0,0.0,0.0,0.0,0.0,0.0,0.0,0.0,0.0,0.0,0.0,0.0,0.0,0.0,0.0,0.0,0.0,0.0,0.0,0.0,0.0,0.0,0.0,0.0,0.0,0.0,0.0,0.0,0.0,0.0,0.0,0.0,0.0,0.0,0.0,0.0,0.0,0.0,0.0,0.0,0.0,0.0,0.0,0.0,0.0,0.0,0.0,0.0,0.0,0.0,0.0,0.0,0.0,0.0,0.0,0.0,0.0,0.0,0.0,0.0,0.0,0.0,0.0,0.0,0.0,0.0,0.0,0.0,0.0,0.0,0.0,0.0,0.0,0.0,0.0,0.0,0.0,0.0,0.0,0.0,0.0,0.0,0.0,0.0,0.0,0.0,0.0,0.0,0.0,0.0,0.0,0.0,0.0,0.0,0.0,0.0,0.0,0.0,0.0,0.0,0.0,0.0,0.0,0.0,0.0,0.0,0.0,0.0,0.0,0.0,0.0,0.0,0.0,0.0,0.0,0.0,0.0,0.0,-1.1157,0.0,0.0,0.0,0.0,0.0,0.0,0.0,0.0,0.0,0.0,0.0,0.0,0.0,0.0,0.0,0.0,0.0,0.0,0.0,0.0,0.0,0.0,0.0,0.0,0.0,0.0,0.0,0.0,0.0,0.0,0.0,0.0,0.0,0.0,0.0,0.0,0.0,0.0,0.0,0.0,0.0,0.0,0.0,0.0,0.0,0.0,0.0,0.0,0.0,0.0,0.0,0.0,0.0,0.0,0.0,0.0,0.0,0.0,0.0,0.0,0.0,0.0,0.0,0.0,0.0,0.0,0.0,0.0,0.0,0.0,0.0,0.0,0.0,0.0,0.0,0.0,0.0,0.0,0.0,0.0,0.0,0.0,0.0,0.0,0.0,0.0,0.0,0.0,0.0,0.0,0.0,0.0,0.0,0.0,0.0,0.0,0.0,0.0,0.0,0.0,0.0,0.0,0.0,0.0,0.0,0.0,0.0,0.0,0.0,0.0,-1.1029,-1.0979,-1.0968,-1.0982,-1.0932,0.0,0.0,0.0,0.0,0.0,0.0,0.0,0.0,0.0,0.0,0.0,0.0,0.0,0.0,0.0,0.0,0.0,0.0,0.0,0.0,0.0,0.0,0.0,0.0,0.0,0.0,0.0,0.0,0.0,0.0,0.0,0.0,0.0,0.0,0.0,0.0,0.0,0.0,0.0,0.0,0.0,0.0,0.0,0.0,0.0,0.0,0.0,0.0,0.0,0.0,0.0,0.0,0.0,0.0,0.0,0.0,0.0,0.0,0.0,0.0,0.0,0.0,0.0,0.0,0.0,0.0,0.0,0.0,0.0,0.0,0.0,0.0,0.0,0.0,0.0,0.0,0.0,0.0,0.0,0.0,0.0,0.0,0.0,0.0,0.0,0.0,0.0,0.0,0.0,0.0,0.0,0.0,0.0,0.0,0.0,0.0,0.0,0.0,0.0,0.0,0.0,0.0,0.0,0.0,0.0,0.0,0.0,0.0,0.0,0.0,0.0,0.0,-1.0717,-1.0705,-1.0729,0.0,0.0,0.0,0.0,0.0,0.0,0.0,0.0,0.0,0.0,0.0,0.0,0.0,0.0,0.0,0.0,0.0,0.0,0.0,0.0,0.0,0.0,0.0,0.0,0.0,0.0,0.0,0.0,0.0,0.0,0.0,0.0,0.0,0.0,0.0,0.0,0.0,0.0,0.0,0.0,0.0,0.0,0.0,0.0,0.0,0.0,0.0,0.0,0.0,0.0,0.0,0.0,0.0,0.0,0.0,0.0,0.0,0.0,0.0,0.0,0.0,0.0,0.0,0.0,0.0,0.0,0.0,0.0,0.0,0.0,0.0,0.0,0.0,0.0,0.0,0.0,0.0,0.0,0.0,0.0,0.0,0.0,0.0,0.0,0.0,0.0,0.0,0.0,0.0,0.0,0.0,0.0,0.0,0.0,0.0,0.0,0.0,0.0,0.0,0.0,0.0,0.0,0.0,0.0,0.0,0.0,0.0,0.0,0.0,0.0,-1.0535,-1.051,-1.0461,0.0,-1.051,0.0,0.0,0.0,0.0,0.0,0.0,0.0,0.0,0.0,0.0,0.0,0.0,0.0,0.0,0.0,0.0,0.0,0.0,0.0,0.0,0.0,0.0,0.0,0.0,0.0,0.0,0.0,0.0,0.0,0.0,0.0,0.0,0.0,0.0,0.0,0.0,0.0,0.0,0.0,0.0,0.0,0.0,0.0,0.0,0.0,0.0,0.0,0.0,0.0,0.0,0.0,0.0,0.0,0.0,0.0,0.0,0.0,0.0,0.0,0.0,0.0,0.0,0.0,0.0,0.0,0.0,0.0,0.0,0.0,0.0,0.0,0.0,0.0,0.0,0.0,0.0,0.0,0.0,0.0,0.0,0.0,0.0,0.0,0.0,0.0,0.0,0.0,0.0,0.0,0.0,0.0,0.0,0.0,0.0,0.0,0.0,0.0,0.0,0.0,0.0,0.0,0.0,0.0,0.0,0.0,0.0,0.0,0.0,0.0,0.0,-1.0312,-1.0312,-1.0261,-1.0286,0.0,0.0,0.0,0.0,0.0,0.0,0.0,0.0,0.0,0.0,0.0,0.0,0.0,0.0,0.0,0.0,0.0,0.0,0.0,0.0,0.0,0.0,0.0,0.0,0.0,0.0,0.0,0.0,0.0,0.0,0.0,0.0,0.0,0.0,0.0,0.0,0.0,0.0,0.0,0.0,0.0,0.0,0.0,0.0,0.0,0.0,0.0,0.0,0.0,0.0,0.0,0.0,0.0,0.0,0.0,0.0,0.0,0.0,0.0,0.0,0.0,0.0,0.0,0.0,0.0,0.0,0.0,0.0,0.0,0.0,0.0,0.0,0.0,0.0,0.0,0.0,0.0,0.0,0.0,0.0,0.0,0.0,0.0,0.0,0.0,0.0,0.0,0.0,0.0,0.0,0.0,0.0,0.0,0.0,0.0,0.0,0.0,0.0,0.0,0.0,0.0,0.0,0.0,0.0,0.0,0.0,0.0,0.0,0.0,0.0,-1.0277,-1.0288,-1.0288,-1.0223,-1.0225,-1.0224,0.0,0.0,0.0,0.0,0.0,0.0,0.0,0.0,0.0,0.0,0.0,0.0,0.0,0.0,0.0,0.0,0.0,0.0,0.0,0.0,0.0,0.0,0.0,0.0,0.0,0.0,0.0,0.0,0.0,0.0,0.0,0.0,0.0,0.0,0.0,0.0,0.0,0.0,0.0,0.0,0.0,0.0,0.0,0.0,0.0,0.0,0.0,0.0,0.0,0.0,0.0,0.0,0.0,0.0,0.0,0.0,0.0,0.0,0.0,0.0,0.0,0.0,0.0,0.0,0.0,0.0,0.0,0.0,0.0,0.0,0.0,0.0,0.0,0.0,0.0,0.0,0.0,0.0,0.0,0.0,0.0,0.0,0.0,0.0,0.0,0.0,0.0,0.0,0.0,0.0,0.0,0.0,0.0,0.0,0.0,0.0,0.0,0.0,0.0,0.0,0.0,0.0,0.0,0.0,0.0,0.0,0.0,0.0,-1.0046,-1.0379,-1.0569,-1.0486,-1.0485,-1.024,0.0,0.0,0.0,0.0,0.0,0.0,0.0,0.0,0.0,0.0,0.0,0.0,0.0,0.0,0.0,0.0,0.0,0.0,0.0,0.0,0.0,0.0,0.0,0.0,0.0,0.0,0.0,0.0,0.0,0.0,0.0,0.0,0.0,0.0,0.0,0.0,0.0,0.0,0.0,0.0,0.0,0.0,0.0,0.0,0.0,0.0,0.0,0.0,0.0,0.0,0.0,0.0,0.0,0.0,0.0,0.0,0.0,0.0,0.0,0.0,0.0,0.0,0.0,0.0,0.0,0.0,0.0,0.0,0.0,0.0,0.0,0.0,0.0,0.0,0.0,0.0,0.0,0.0,0.0,0.0,0.0,0.0,0.0,0.0,0.0,0.0,0.0,0.0,0.0,0.0,0.0,0.0,0.0,0.0,0.0,0.0,0.0,0.0,0.0,0.0,0.0,0.0,0.0,0.0,0.0,0.0,0.0,0.0,0.0,-1.0336,-1.0813,-1.1038,-1.0996,-1.0679,-1.0395,0.0,0.0,0.0,0.0,0.0,0.0,0.0,0.0,0.0,0.0,0.0,0.0,0.0,0.0,0.0,0.0,0.0,0.0,0.0,0.0,0.0,0.0,0.0,0.0,0.0,0.0,0.0,0.0,0.0,0.0,0.0,0.0,0.0,0.0,0.0,0.0,0.0,0.0,0.0,0.0,0.0,0.0,0.0,0.0,0.0,0.0,0.0,0.0,0.0,0.0,0.0,0.0,0.0,0.0,0.0,0.0,0.0,0.0,0.0,0.0,0.0,0.0,0.0,0.0,0.0,0.0,0.0,0.0,0.0,0.0,0.0,0.0,0.0,0.0,0.0,0.0,0.0,0.0,0.0,0.0,0.0,0.0,0.0,0.0,0.0,0.0,0.0,0.0,0.0,0.0,0.0,0.0,0.0,0.0,0.0,0.0,0.0,0.0,0.0,0.0,0.0,0.0,0.0,0.0,0.0,0.0,0.0,0.0,0.0,-1.1192,0.0,-1.1689,-1.1676,-1.129,-1.0867,0.0,0.0,0.0,0.0,0.0,0.0,0.0,0.0,0.0,0.0,0.0,0.0,0.0,0.0,0.0,0.0,0.0,0.0,0.0,0.0,0.0,0.0,0.0,0.0,0.0,0.0,0.0,0.0,0.0,0.0,0.0,0.0,0.0,0.0,0.0,0.0,0.0,0.0,0.0,0.0,0.0,0.0,0.0,0.0,0.0,0.0,0.0,0.0,0.0,0.0,0.0,0.0,0.0,0.0,0.0,0.0,0.0,0.0,0.0,0.0,0.0,0.0,0.0,0.0,0.0,0.0,0.0,0.0,0.0,0.0,0.0,0.0,0.0,0.0,0.0,0.0,0.0,0.0,0.0,0.0,0.0,0.0,0.0,0.0,0.0,0.0,0.0,0.0,0.0,0.0,0.0,0.0,0.0,0.0,0.0,0.0,0.0,0.0,0.0,0.0,0.0,0.0,0.0,0.0,0.0,0.0,0.0,0.0,-1.1197,-1.2607,-1.2585,-1.2544,-1.252,-1.2365,-1.1569,0.0,0.0,0.0,0.0,0.0,0.0,0.0,0.0,0.0,0.0,0.0,0.0,0.0,0.0,0.0,0.0,0.0,0.0,0.0,0.0,0.0,0.0,0.0,0.0,0.0,0.0,0.0,0.0,0.0,0.0,0.0,0.0,0.0,0.0,0.0,0.0,0.0,0.0,0.0,0.0,0.0,0.0,0.0,0.0,0.0,0.0,0.0,0.0,0.0,0.0,0.0,0.0,0.0,0.0,0.0,0.0,0.0,0.0,0.0,0.0,0.0,0.0,0.0,0.0,0.0,0.0,0.0,0.0,0.0,0.0,0.0,0.0,0.0,0.0,0.0,0.0,0.0,0.0,0.0,0.0,0.0,0.0,0.0,0.0,0.0,0.0,0.0,0.0,0.0,0.0,0.0,0.0,0.0,0.0,0.0,0.0,0.0,0.0,0.0,0.0,0.0,0.0,0.0,0.0,0.0,0.0,0.0,0.0,0.0,-1.2986,-1.3603,-1.3947,-1.3923,-1.3178,-1.224,0.0,0.0,0.0,0.0,0.0,0.0,0.0,0.0,0.0,0.0,0.0,0.0,0.0,0.0,0.0,0.0,0.0,0.0,0.0,0.0,0.0,0.0,0.0,0.0,0.0,0.0,0.0,0.0,0.0,0.0,0.0,0.0,0.0,0.0,0.0,0.0,0.0,0.0,0.0,0.0,0.0,0.0,0.0,0.0,0.0,0.0,0.0,0.0,0.0,0.0,0.0,0.0,0.0,0.0,0.0,0.0,0.0,0.0,0.0,0.0,0.0,0.0,0.0,0.0,0.0,0.0,0.0,0.0,0.0,0.0,0.0,0.0,0.0,0.0,0.0,0.0,0.0,0.0,0.0,0.0,0.0,0.0,0.0,0.0,0.0,0.0,0.0,0.0,0.0,0.0,0.0,0.0,0.0,0.0,0.0,0.0,0.0,0.0,0.0,0.0,0.0,0.0,0.0,0.0,0.0,0.0,0.0,0.0,0.0,-1.5556,-1.5637,-1.5661,-1.5614,-1.4576,-1.3308,-1.185,0.0,0.0,0.0,0.0,0.0,0.0,0.0,0.0,0.0,0.0,0.0,0.0,0.0,0.0,0.0,0.0,0.0,0.0,0.0,0.0,0.0,0.0,0.0,0.0,0.0,0.0,0.0,0.0,0.0,0.0,0.0,0.0,0.0,0.0,0.0,0.0,0.0,0.0,0.0,0.0,0.0,0.0,0.0,0.0,0.0,0.0,0.0,0.0,0.0,0.0,0.0,0.0,0.0,0.0,0.0,0.0,0.0,0.0,0.0,0.0,0.0,0.0,0.0,0.0,0.0,0.0,0.0,0.0,0.0,0.0,0.0,0.0,0.0,0.0,0.0,0.0,0.0,0.0,0.0,0.0,0.0,0.0,0.0,0.0,0.0,0.0,0.0,0.0,0.0,0.0,0.0,0.0,0.0,0.0,0.0,0.0,0.0,0.0,0.0,0.0,0.0,0.0,0.0,0.0,0.0,0.0,0.0,0.0,-1.9826,-1.8499,-1.7706,-1.7481,-1.6348,-1.4688,0.0,0.0,0.0,0.0,0.0,0.0,0.0,0.0,0.0,0.0,0.0,0.0,0.0,0.0,0.0,0.0,0.0,0.0,0.0,0.0,0.0,0.0,0.0,0.0,0.0,0.0,0.0,0.0,0.0,0.0,0.0,0.0,0.0,0.0,0.0,0.0,0.0,0.0,0.0,0.0,0.0,0.0,0.0,0.0,0.0,0.0,0.0,0.0,0.0,0.0,0.0,0.0,0.0,0.0,0.0,0.0,0.0,0.0,0.0,0.0,0.0,0.0,0.0,0.0,0.0,0.0,0.0,0.0,0.0,0.0,0.0,0.0,0.0,0.0,0.0,0.0,0.0,0.0,0.0,0.0,0.0,0.0,0.0,0.0,0.0,0.0,0.0,0.0,0.0,0.0,0.0,0.0,0.0,0.0,0.0,0.0,0.0,0.0,0.0,0.0,0.0,0.0,0.0,0.0,0.0,0.0,0.0,0.0,0.0,-2.1548,-2.1497,-2.0808,-1.9595,-1.765,-1.541,0.0,0.0,0.0,0.0,0.0,0.0,0.0,0.0,0.0,0.0,0.0,0.0,0.0,0.0,0.0,0.0,0.0,0.0,0.0,0.0,0.0,0.0,0.0,0.0,0.0,0.0,0.0,0.0,0.0,0.0,0.0,0.0,0.0,0.0,0.0,0.0,0.0,0.0,0.0,0.0,0.0,0.0,0.0,0.0,0.0,0.0,0.0,0.0,0.0,0.0,0.0,0.0,0.0,0.0,0.0,0.0,0.0,0.0,0.0,0.0,0.0,0.0,0.0,0.0,0.0,0.0,0.0,0.0,0.0,0.0,0.0,0.0,0.0,0.0,0.0,0.0,0.0,0.0,0.0,0.0,0.0,0.0,0.0,0.0,0.0,0.0,0.0,0.0,0.0,0.0,0.0,0.0,0.0,0.0,0.0,0.0,0.0,0.0,0.0,0.0,0.0,0.0,0.0,0.0,0.0,0.0,0.0,0.0,-2.0084,-2.2426,-2.2746,-2.243,-2.1503,-1.8842,-1.6223,0.0,0.0,0.0,0.0,0.0,0.0,0.0,0.0,0.0,0.0,0.0,0.0,0.0,0.0,0.0,0.0,0.0,0.0,0.0,0.0,0.0,0.0,0.0,0.0,0.0,0.0,0.0,0.0,0.0,0.0,0.0,0.0,0.0,0.0,0.0,0.0,0.0,0.0,0.0,0.0,0.0,0.0,0.0,0.0,0.0,0.0,0.0,0.0,0.0,0.0,0.0,0.0,0.0,0.0,0.0,0.0,0.0,0.0,0.0,0.0,0.0,0.0,0.0,0.0,0.0,0.0,0.0,0.0,0.0,0.0,0.0,0.0,0.0,0.0,0.0,0.0,0.0,0.0,0.0,0.0,0.0,0.0,0.0,0.0,0.0,0.0,0.0,0.0,0.0,0.0,0.0,0.0,0.0,0.0,0.0,0.0,0.0,0.0,0.0,0.0,0.0,0.0,0.0,0.0,0.0,0.0,0.0,0.0,-2.0386,-2.2639,-2.2868,-2.2961,-2.2869,-1.9889,-1.7012,0.0,0.0,0.0,0.0,0.0,0.0,0.0,0.0,0.0,0.0,0.0,0.0,0.0,0.0,0.0,0.0,0.0,0.0,0.0,0.0,0.0,0.0,0.0,0.0,0.0,0.0,0.0,0.0,0.0,0.0,0.0,0.0,0.0,0.0,0.0,0.0,0.0,0.0,0.0,0.0,0.0,0.0,0.0,0.0,0.0,0.0,0.0,0.0,0.0,0.0,0.0,0.0,0.0,0.0,0.0,0.0,0.0,0.0,0.0,0.0,0.0,0.0,0.0,0.0,0.0,0.0,0.0,0.0,0.0,0.0,0.0,0.0,0.0,0.0,0.0,0.0,0.0,0.0,0.0,0.0,0.0,0.0,0.0,0.0,0.0,0.0,0.0,0.0,0.0,0.0,0.0,0.0,0.0,0.0,0.0,0.0,0.0,0.0,0.0,0.0,0.0,0.0,0.0,0.0,0.0,0.0,0.0,0.0,-2.0782,-2.3186,-2.2928,-2.2742,-2.2755,-1.9962,-1.7238,0.0,0.0,0.0,0.0,0.0,0.0,0.0,0.0,0.0,0.0,0.0,0.0,0.0,0.0,0.0,0.0,0.0,0.0,0.0,0.0,0.0,0.0,0.0,0.0,0.0,0.0,0.0,0.0,0.0,0.0,0.0,0.0,0.0,0.0,0.0,0.0,0.0,0.0,0.0,0.0,0.0,0.0,0.0,0.0,0.0,0.0,0.0,0.0,-0.5179,0.0,0.0,0.0,0.0,0.0,0.0,0.0,0.0,0.0,0.0,0.0,0.0,0.0,0.0,0.0,0.0,0.0,0.0,0.0,0.0,0.0,0.0,0.0,0.0,0.0,0.0,0.0,0.0,0.0,0.0,0.0,0.0,0.0,0.0,0.0,0.0,0.0,0.0,0.0,0.0,0.0,0.0,0.0,0.0,0.0,0.0,0.0,0.0,0.0,0.0,0.0,0.0,0.0,0.0,0.0,0.0,0.0,0.0,0.0,-2.0411,-2.2115,-2.2011,-2.181,-2.1612,-1.9156,-1.6869,0.0,0.0,0.0,0.0,0.0,0.0,0.0,0.0,0.0,0.0,0.0,0.0,0.0,0.0,0.0,0.0,0.0,0.0,0.0,0.0,0.0,0.0,0.0,0.0,0.0,0.0,0.0,0.0,0.0,0.0,0.0,0.0,0.0,0.0,0.0,0.0,0.0,0.0,0.0,0.0,0.0,0.0,0.0,0.0,0.0,0.0,0.0,0.0,0.0,0.0,0.0,0.0,0.0,0.0,0.0,0.0,0.0,0.0,0.0,0.0,0.0,0.0,0.0,0.0,0.0,0.0,0.0,0.0,0.0,0.0,0.0,0.0,0.0,0.0,0.0,0.0,0.0,0.0,0.0,0.0,0.0,0.0,0.0,0.0,0.0,0.0,0.0,0.0,0.0,0.0,0.0,0.0,0.0,0.0,0.0,0.0,0.0,0.0,0.0,0.0,0.0,0.0,0.0,0.0,0.0,0.0,0.0,-1.81,-1.9757,-2.0693,-2.0829,-2.0758,-2.0464,-1.816,-1.6305,-1.4939,0.0,0.0,0.0,0.0,0.0,0.0,0.0,0.0,0.0,0.0,0.0,0.0,0.0,0.0,0.0,0.0,0.0,0.0,0.0,0.0,0.0,0.0,0.0,0.0,0.0,0.0,0.0,0.0,0.0,0.0,0.0,0.0,0.0,0.0,0.0,0.0,0.0,0.0,-0.3214,-0.4033,0.0,0.0,0.0,0.0,0.0,0.0,0.0,0.0,-0.5919,0.0,0.0,0.0,0.0,0.0,0.0,0.0,0.0,0.0,0.0,0.0,0.0,0.0,0.0,0.0,0.0,0.0,0.0,0.0,0.0,0.0,0.0,0.0,0.0,0.0,0.0,0.0,0.0,0.0,0.0,0.0,0.0,0.0,0.0,0.0,0.0,0.0,0.0,0.0,0.0,0.0,0.0,0.0,0.0,0.0,0.0,0.0,0.0,0.0,0.0,0.0,0.0,0.0,0.0,0.0,0.0,-1.6196,-1.7889,-1.9448,-2.0891,-2.0474,-2.0325,-2.0429,-1.7896,-1.6,-1.4953,0.0,0.0,0.0,0.0,0.0,0.0,0.0,0.0,0.0,0.0,0.0,0.0,0.0,0.0,0.0,0.0,0.0,0.0,0.0,0.0,0.0,0.0,0.0,0.0,0.0,0.0,0.0,0.0,0.0,0.0,0.0,0.0,0.0,0.0,0.0,0.0,0.0,0.0,0.0,-0.4982,-0.5601,0.0,0.0,0.0,0.0,0.0,0.0,0.0,0.0,-0.5653,0.0,0.0,0.0,0.0,0.0,0.0,0.0,0.0,0.0,0.0,0.0,0.0,0.0,0.0,0.0,0.0,0.0,0.0,0.0,0.0,0.0,0.0,0.0,0.0,0.0,0.0,0.0,0.0,0.0,0.0,0.0,0.0,0.0,0.0,0.0,0.0,0.0,0.0,0.0,0.0,0.0,0.0,0.0,0.0,0.0,0.0,0.0,0.0,0.0,0.0,0.0,0.0,0.0,0.0,0.0,-1.6041,-1.785,-1.9274,-2.0297,-2.0051,-1.9765,-1.946,-1.7256,-1.5592,0.0,0.0,0.0,0.0,0.0,0.0,0.0,0.0,0.0,0.0,0.0,0.0,0.0,0.0,0.0,0.0,0.0,0.0,0.0,0.0,0.0,0.0,0.0,0.0,0.0,0.0,0.0,0.0,0.0,0.0,0.0,0.0,0.0,0.0,0.0,0.0,0.0,0.0,0.0,0.0,-0.5427,-0.5978,-0.6516,0.0,0.0,0.0,0.0,0.0,0.0,-0.6269,-0.6064,0.0,0.0,0.0,0.0,0.0,0.0,0.0,0.0,0.0,0.0,0.0,0.0,0.0,0.0,0.0,0.0,0.0,0.0,0.0,0.0,0.0,0.0,0.0,0.0,0.0,0.0,0.0,0.0,0.0,0.0,0.0,0.0,0.0,0.0,0.0,0.0,0.0,0.0,0.0,0.0,0.0,0.0,0.0,0.0,0.0,0.0,0.0,0.0,0.0,0.0,0.0,0.0,0.0,0.0,0.0,-1.5774,-1.776,-1.903,-1.959,-1.9589,-1.9256,-1.8468,-1.6701,-1.5198,0.0,0.0,0.0,0.0,0.0,0.0,0.0,0.0,0.0,0.0,0.0,0.0,0.0,0.0,0.0,0.0,0.0,0.0,0.0,0.0,0.0,0.0,0.0,0.0,0.0,0.0,0.0,0.0,0.0,0.0,0.0,0.0,0.0,0.0,0.0,0.0,0.0,0.0,0.0,0.0,0.0,-0.6421,-0.6788,-0.6861,0.0,0.0,0.0,0.0,-0.6795,-0.6822,0.0,0.0,0.0,0.0,0.0,0.0,0.0,0.0,0.0,0.0,0.0,0.0,0.0,0.0,0.0,0.0,0.0,0.0,0.0,0.0,0.0,0.0,0.0,0.0,0.0,0.0,0.0,0.0,0.0,0.0,0.0,0.0,0.0,0.0,0.0,0.0,0.0,0.0,0.0,0.0,0.0,0.0,0.0,0.0,0.0,0.0,0.0,0.0,0.0,0.0,0.0,0.0,0.0,0.0,0.0,0.0,-1.5673,-1.745,-1.8666,-1.9239,-1.9239,-1.8879,-1.8068,-1.6416,-1.5018,0.0,0.0,0.0,0.0,0.0,0.0,0.0,0.0,0.0,0.0,0.0,0.0,0.0,0.0,0.0,0.0,0.0,0.0,0.0,0.0,0.0,0.0,0.0,0.0,0.0,0.0,0.0,0.0,0.0,0.0,0.0,0.0,0.0,0.0,0.0,0.0,0.0,0.0,0.0,0.0,0.0,-0.7431,-0.7926,-0.7661,-0.7329,0.0,0.0,-0.7073,-0.7132,-0.7418,0.0,0.0,0.0,0.0,0.0,0.0,0.0,0.0,0.0,0.0,0.0,0.0,0.0,0.0,0.0,0.0,0.0,0.0,0.0,0.0,0.0,0.0,0.0,0.0,0.0,0.0,0.0,0.0,0.0,0.0,0.0,0.0,0.0,0.0,0.0,0.0,0.0,0.0,0.0,0.0,0.0,0.0,0.0,0.0,0.0,0.0,0.0,0.0,0.0,0.0,0.0,0.0,0.0,0.0,0.0,-1.4835,-1.5673,-1.7131,-1.8155,-1.8802,-1.8639,-1.8271,-1.7723,-1.6105,-1.4698,0.0,0.0,0.0,0.0,0.0,0.0,0.0,0.0,0.0,0.0,0.0,0.0,0.0,0.0,0.0,0.0,0.0,0.0,0.0,0.0,0.0,0.0,0.0,0.0,0.0,0.0,0.0,0.0,0.0,0.0,0.0,0.0,0.0,0.0,0.0,0.0,0.0,0.0,0.0,0.0,0.0,0.0,-0.7965,-0.8123,0.0,0.0,0.0,-0.8054,-0.7853,0.0,0.0,0.0,0.0,0.0,0.0,0.0,0.0,0.0,0.0,0.0,0.0,0.0,0.0,0.0,0.0,0.0,0.0,0.0,0.0,0.0,0.0,0.0,0.0,0.0,0.0,0.0,0.0,0.0,0.0,0.0,0.0,0.0,0.0,0.0,0.0,0.0,0.0,0.0,0.0,0.0,0.0,0.0,0.0,0.0,0.0,0.0,0.0,0.0,0.0,0.0,0.0,0.0,0.0,0.0,0.0,0.0,-1.5707,-1.6891,-1.7823,-1.8417,-1.8148,-1.7743,-1.7204,-1.5685,0.0,0.0,0.0,0.0,0.0,0.0,0.0,0.0,0.0,0.0,0.0,0.0,0.0,0.0,0.0,0.0,0.0,0.0,0.0,0.0,0.0,0.0,0.0,0.0,0.0,0.0,0.0,0.0,0.0,0.0,0.0,0.0,0.0,0.0,0.0,0.0,0.0,0.0,0.0,0.0,0.0,0.0,-0.7919,-0.8023,-0.8574,-0.877,0.0,0.0,-0.8728,-0.8442,-0.8756,-0.8576,0.0,0.0,0.0,0.0,0.0,0.0,0.0,0.0,0.0,0.0,0.0,0.0,0.0,0.0,0.0,0.0,0.0,0.0,0.0,0.0,0.0,0.0,0.0,0.0,0.0,0.0,0.0,0.0,0.0,0.0,0.0,0.0,0.0,0.0,0.0,0.0,0.0,0.0,0.0,0.0,0.0,0.0,0.0,0.0,0.0,0.0,0.0,0.0,0.0,0.0,0.0,0.0,0.0,0.0,0.0,-1.5716,-1.6891,-1.7663,-1.8025,-1.7962,-1.7416,-1.6373,-1.5101,-1.3855,0.0,0.0,0.0,0.0,0.0,0.0,0.0,0.0,0.0,0.0,0.0,0.0,0.0,0.0,0.0,0.0,0.0,0.0,0.0,0.0,0.0,0.0,0.0,0.0,0.0,0.0,0.0,0.0,0.0,0.0,0.0,0.0,0.0,0.0,0.0,0.0,0.0,0.0,0.0,0.0,0.0,-0.9002,-0.8521,-0.907,-0.9326,0.0,0.0,-0.8648,-0.8669,-0.9016,-0.8912,-0.7911,0.0,0.0,0.0,0.0,0.0,0.0,0.0,0.0,0.0,0.0,0.0,0.0,0.0,0.0,0.0,0.0,0.0,0.0,0.0,0.0,0.0,0.0,0.0,0.0,0.0,0.0,0.0,0.0,0.0,0.0,0.0,0.0,0.0,0.0,0.0,0.0,0.0,0.0,0.0,0.0,0.0,0.0,0.0,0.0,0.0,0.0,0.0,0.0,0.0,0.0,0.0,0.0,0.0,-1.4787,-1.5757,-1.6407,-1.6915,-1.7155,-1.6976,-1.654,-1.5958,-1.4711,-1.3523,0.0,0.0,0.0,0.0,0.0,0.0,0.0,0.0,0.0,0.0,0.0,0.0,0.0,0.0,0.0,0.0,0.0,0.0,0.0,0.0,0.0,0.0,0.0,0.0,0.0,0.0,0.0,0.0,-0.7243,-0.739,-0.741,0.0,0.0,0.0,0.0,0.0,0.0,0.0,0.0,0.0,0.0,-0.906,-0.9385,-0.9687,0.0,0.0,-0.9809,-0.9865,-0.9386,-0.9714,-0.9609,-0.8428,-0.8009,0.0,0.0,0.0,0.0,0.0,0.0,0.0,0.0,0.0,0.0,0.0,0.0,0.0,0.0,0.0,0.0,0.0,0.0,0.0,0.0,0.0,0.0,0.0,0.0,0.0,0.0,0.0,0.0,0.0,0.0,0.0,0.0,0.0,0.0,0.0,0.0,0.0,0.0,0.0,0.0,0.0,0.0,0.0,0.0,0.0,0.0,0.0,0.0,0.0,0.0,0.0,0.0,-1.5029,-1.5824,-1.6228,-1.6548,-1.6681,-1.633,-1.5952,-1.5489,-1.4462,-1.3366,0.0,0.0,0.0,0.0,0.0,0.0,0.0,0.0,0.0,0.0,0.0,0.0,0.0,0.0,0.0,0.0,0.0,0.0,0.0,0.0,0.0,0.0,0.0,0.0,0.0,0.0,0.0,0.0,-0.7963,-0.8083,-0.7833,0.0,0.0,0.0,0.0,0.0,0.0,0.0,0.0,0.0,0.0,-0.9202,-0.9777,-0.9979,-1.0073,-0.9995,-1.0322,-1.0363,-0.9727,-0.9957,-0.9861,-0.8787,0.0,0.0,0.0,0.0,0.0,0.0,0.0,0.0,0.0,0.0,0.0,0.0,0.0,0.0,0.0,0.0,0.0,0.0,0.0,0.0,0.0,0.0,0.0,0.0,0.0,0.0,0.0,0.0,0.0,0.0,-1.3662,0.0,0.0,0.0,0.0,0.0,0.0,0.0,0.0,0.0,0.0,0.0,0.0,0.0,0.0,0.0,0.0,0.0,0.0,0.0,0.0,0.0,0.0,-1.5588,-1.5824,-1.6479,-1.6757,-1.6706,-1.6278,-1.5799,-1.5141,-1.4395,-1.3453,-1.2343,0.0,0.0,0.0,0.0,0.0,0.0,0.0,0.0,0.0,0.0,0.0,0.0,0.0,0.0,0.0,0.0,0.0,0.0,0.0,0.0,0.0,0.0,0.0,0.0,0.0,0.0,-0.8166,-0.8029,-0.7733,0.0,0.0,0.0,0.0,0.0,0.0,0.0,0.0,0.0,0.0,-0.9096,-0.9659,-0.957,-0.9842,-1.0043,-0.9801,-0.9875,-0.9824,-0.9498,-0.955,-0.9465,0.0,0.0,0.0,0.0,0.0,0.0,0.0,0.0,0.0,0.0,0.0,0.0,0.0,0.0,0.0,0.0,0.0,0.0,0.0,0.0,0.0,0.0,0.0,0.0,0.0,0.0,0.0,-1.4669,-1.5624,0.0,0.0,0.0,0.0,0.0,0.0,0.0,0.0,0.0,0.0,0.0,-1.759,-1.759,0.0,0.0,0.0,0.0,0.0,0.0,0.0,0.0,0.0,0.0,0.0,0.0,-1.609,-1.683,-1.71,-1.7051,-1.6723,-1.655,-1.6006,-1.4986,-1.4337,-1.338,-1.1987,0.0,0.0,0.0,0.0,0.0,0.0,0.0,0.0,0.0,0.0,0.0,0.0,0.0,0.0,0.0,0.0,0.0,0.0,0.0,0.0,0.0,0.0,0.0,0.0,0.0,-0.8352,0.0,0.0,0.0,0.0,0.0,0.0,0.0,0.0,0.0,0.0,0.0,-0.8744,-0.9296,-0.9723,-1.0116,-1.0507,-1.0681,-1.0764,0.0,0.0,0.0,0.0,0.0,0.0,0.0,0.0,0.0,0.0,0.0,0.0,0.0,0.0,-0.6698,-0.6163,-0.6251,-0.6375,-0.6324,0.0,0.0,0.0,0.0,0.0,0.0,0.0,0.0,0.0,0.0,0.0,0.0,0.0,0.0,-1.6191,0.0,-1.681,0.0,0.0,0.0,0.0,0.0,0.0,0.0,0.0,-1.8164,-1.879,-1.9207,-1.9252,-1.9356,0.0,-1.8785,-1.7845,0.0,0.0,0.0,0.0,0.0,0.0,0.0,0.0,-1.6836,-1.7404,-1.7675,-1.7596,-1.7155,-1.6862,-1.6255,-1.536,-1.4355,-1.3278,-1.2087,-1.1419,-1.0884,0.0,0.0,0.0,0.0,0.0,0.0,0.0,0.0,0.0,0.0,0.0,0.0,0.0,0.0,0.0,0.0,0.0,0.0,0.0,0.0,0.0,0.0,0.0,-0.8715,0.0,0.0,0.0,0.0,0.0,0.0,0.0,0.0,0.0,-0.894,-0.918,-0.9575,-1.006,-1.0124,-1.0342,-1.0889,0.0,0.0,0.0,0.0,0.0,0.0,0.0,-1.0328,-0.9812,-1.0006,-1.0105,-0.9756,-0.9267,-0.8773,-0.8351,0.0,0.0,-0.7022,-0.7006,-0.7181,-0.7165,-0.6865,-0.6559,-0.6383,-0.6035,-0.5714,0.0,0.0,0.0,0.0,0.0,0.0,0.0,0.0,-1.7427,-1.7879,0.0,-1.8182,0.0,0.0,0.0,0.0,0.0,-1.7835,0.0,0.0,-1.9634,-2.0185,-2.0615,-2.0625,-2.0644,-2.0605,-1.9915,-1.9518,-1.9426,-1.7571,0.0,0.0,0.0,0.0,0.0,0.0,-1.7862,-1.7559,-1.8302,-1.8452,-1.8046,-1.7229,-1.6605,-1.6134,-1.4471,-1.3227,-1.2533,-1.1929,-1.1445,-1.1092,-1.0177,0.0,0.0,0.0,0.0,0.0,0.0,0.0,0.0,0.0,0.0,0.0,0.0,0.0,0.0,0.0,0.0,0.0,0.0,0.0,0.0,-0.8895,0.0,0.0,0.0,0.0,0.0,0.0,0.0,0.0,0.0,0.0,-0.9873,-1.0354,-1.0646,-1.0551,0.0,0.0,0.0,0.0,-1.0496,-1.0871,-1.0888,-1.0739,-1.0343,-1.0399,-1.048,-1.0447,0.0,0.0,-1.0431,-1.0045,-0.9653,-0.9376,-0.9556,-0.9276,-0.7615,-0.7493,-0.7626,-0.7732,-0.7309,-0.6903,-0.6958,-0.6613,-0.6251,-2.4792,0.0,0.0,0.0,0.0,-2.0922,-2.1463,-2.2317,-2.1899,-2.2043,-2.2484,-2.127,0.0,0.0,0.0,0.0,0.0,0.0,-1.9462,-2.0115,-2.0596,-2.1094,-2.1544,-2.1504,-2.1701,-2.1914,-2.1084,-2.0713,-2.0674,-1.9848,-1.8839,-1.775,0.0,0.0,0.0,0.0,-1.8984,-1.963,-1.9611,-1.9493,-1.9372,-1.8829,-1.768,-1.5878,-1.4846,-1.3729,-1.2541,-1.2091,-1.1648,-1.1129,-1.0806,0.0,0.0,0.0,0.0,0.0,0.0,0.0,0.0,0.0,0.0,0.0,0.0,0.0,0.0,0.0,0.0,0.0,0.0,0.0,-0.9031,-0.9143,-0.924,0.0,0.0,0.0,0.0,0.0,0.0,0.0,0.0,0.0,-1.11,-1.1061,-1.0947,0.0,0.0,-1.1049,-1.1251,-1.1276,-1.1251,-1.1049,0.0,0.0,0.0,-1.0128,-1.0332,-1.0238,-1.0565,-1.0814,-1.0764,-1.0623,-1.0458,-1.012,-1.0157,-0.993,-0.9138,-0.8799,-0.8735,-0.8714,-0.8199,-0.7689,-0.7521,-0.7304,-0.7042,-2.9973,-2.6649,-2.5074,-2.4393,-2.4398,-2.4472,-2.478,-2.5135,-2.484,-2.4641,-2.4545,-2.3475,-2.2435,-2.1403,-2.0584,0.0,0.0,0.0,-2.0507,-2.1143,-2.1543,-2.1973,-2.2363,-2.2383,-2.251,-2.2715,-2.2019,-2.1738,-2.1728,-2.1309,-2.0693,-1.9845,0.0,0.0,-1.9305,-1.9482,-1.9995,-2.0781,-2.0742,-2.0583,-2.0426,-1.9515,-1.8115,-1.6231,-1.5544,-1.4588,-1.3203,-1.2942,-1.2462,-1.1701,-1.1524,-1.1136,0.0,0.0,0.0,0.0,0.0,0.0,0.0,0.0,0.0,0.0,0.0,-0.8851,0.0,0.0,0.0,0.0,-0.9123,-0.9285,-0.9526,-0.9467,0.0,0.0,0.0,0.0,0.0,0.0,0.0,-1.074,-1.1345,-1.1953,-1.2447,-1.2311,-1.2049,-1.1688,-1.1603,-1.1603,-1.1728,0.0,-1.1578,-1.1226,-1.1326,-1.1065,-1.0101,-1.0319,-1.0543,-1.0301,-1.0521,-1.0735,-1.0744,-1.0744,-1.0693,-1.0641,-1.0582,-1.0523,-1.031,-0.9958,-0.9621,-0.9458,-0.8996,-0.8497,-0.8082,-0.7859,-0.758,-3.4264,-3.284,-2.9403,-2.7842,-2.7569,-2.7824,-2.7573,-2.6982,-2.6835,-2.6325,-2.5633,-2.5111,-2.466,-2.4066,-2.2885,0.0,-2.2421,-2.1768,-2.1797,-2.22,-2.2584,-2.2926,-2.3212,-2.3212,-2.3188,-2.3091,-2.2701,-2.2568,-2.2549,-2.2168,-2.1963,-2.1904,-2.0723,-2.0098,-2.0088,-2.0478,-2.0889,-2.1288,-2.1689,-2.167,-2.119,-1.9511,-1.8116,-1.7044,-1.6519,-1.5595,-1.4289,-1.4172,-1.3721,-1.2729,-1.2332,-1.203,-1.1737,0.0,0.0,0.0,0.0,0.0,0.0,0.0,0.0,0.0,0.0,0.0,0.0,0.0,0.0,0.0,-0.9866,0.0,-1.0086,-0.9843,0.0,0.0,0.0,-0.9847,-0.9926,-1.0637,-1.1361,-1.1965,0.0,0.0,-1.3754,0.0,-1.3516,-1.2729,-1.2265,-1.2047,-1.2147,-1.1979,-1.1669,-1.1402,-1.1669,-1.1528,-1.0482,-1.0625,-1.0761,-1.0405,-1.0437,-1.0445,-1.047,-1.047,-1.0565,-1.0769,-1.0871,-1.0922,-1.1226,-1.0761,-1.0352,-0.9994,-0.9632,-0.9234,-0.8637,-0.8328,-0.7959,-3.6148,-3.5709,-3.422,-3.2454,-3.0697,-3.1125,-3.1231,-3.1039,-3.0592,-3.0091,-2.9445,-2.7747,-2.6142,-2.4657,-2.3871,-2.3858,-2.4498,-2.4336,-2.4474,-2.487,-2.4987,-2.4714,-2.4155,-2.4166,-2.3777,-2.3135,-2.2994,-2.2945,-2.2935,-2.2847,-2.2676,-2.2363,-2.2041,-2.1738,-2.1435,-2.1523,-2.1777,-2.2197,-2.1992,-2.168,-2.1181,-1.9831,-1.8712,-1.7905,-1.7135,-1.6183,-1.507,-1.501,-1.4774,-1.4288,-1.3637,-1.3143,-1.2838,-1.2243,0.0,0.0,0.0,0.0,0.0,0.0,0.0,0.0,0.0,-1.0176,-1.0387,0.0,-1.0976,0.0,-1.0555,-1.0357,-1.0137,-1.001,0.0,0.0,-1.0108,-1.0416,-1.1028,-1.1331,-1.1858,-1.2923,-1.3067,-1.3293,-1.3863,-1.3936,-1.3886,-1.3717,-1.3195,-1.2833,-1.2833,-1.2644,-1.2298,-1.1877,-1.1927,-1.1644,-1.0659,-1.0308,-1.0172,-0.9855,-0.9999,-1.0102,-1.0128,-1.0128,-1.0231,-1.0514,-1.059,-1.0701,-1.0947,-1.0863,-1.0837,-1.0854,-1.0291,-0.9604,-0.9234,-0.8954,-0.8557,-3.7079,-3.6892,-3.598,-3.4763,-3.3428,-3.3501,-3.3404,-3.3152,-3.2611,-3.2006,-3.1175,-2.9484,-2.8199,-2.7183,-2.6394,-2.6296,-2.6729,-2.6364,-2.6187,-2.6147,-2.6397,-2.5979,-2.5084,-2.5328,-2.5018,-2.4274,-2.3897,-2.3734,-2.3691,-2.3299,-2.2964,-2.275,-2.275,-2.2676,-2.2451,-2.2256,-2.2373,-2.2783,-2.2197,-2.1768,-2.1494,-2.0059,-1.9095,-1.8673,-1.7842,-1.6943,-1.603,-1.5987,-1.5719,-1.5137,-1.473,-1.4259,-1.3777,-1.3444,-1.2949,0.0,0.0,0.0,0.0,0.0,0.0,0.0,0.0,0.0,0.0,0.0,-1.1969,0.0,-1.175,-1.1512,-1.1206,-1.0916,-1.0821,-1.1133,-1.1249,-1.1548,-1.211,-1.2622,-1.3124,-1.3705,-1.3922,-1.4176,-1.4578,-1.4633,-1.4661,-1.4669,-1.42,-1.3724,-1.3359,-1.313,-1.2823,-1.2104,-1.2249,-1.2175,-1.1284,-1.0608,-1.0146,-0.9984,-0.988,-0.9829,-0.981,-0.9836,-0.9921,-1.0198,-1.029,-1.0385,-1.0641,-1.0726,-1.0828,-1.0972,-1.0684,-1.0185,-0.974,-0.9596,-0.9268,-3.7508,-3.7204,-3.617,-3.5713,-3.5665,-3.5039,-3.451,-3.4054,-3.3609,-3.2743,-3.1645,-3.0687,-3.0218,-3.0056,-2.9234,-2.8869,-2.8838,-2.8081,-2.751,-2.7089,-2.7477,-2.7102,-2.6118,-2.649,-2.6361,-2.5788,-2.5031,-2.4616,-2.4498,-2.3647,-2.3222,-2.3091,-2.3101,-2.3101,-2.3081,-2.273,-2.2764,-2.3081,-2.2363,-2.1934,-2.1865,-2.0283,-1.9424,-1.9336,-1.8545,-1.7802,-1.7153,-1.7072,-1.6655,-1.5886,-1.571,-1.5355,-1.476,-1.4745,-1.4404,0.0,-1.3774,0.0,0.0,0.0,0.0,0.0,0.0,0.0,0.0,-1.2795,-1.2896,-1.3149,-1.3096,-1.2964,-1.2674,-1.2142,-1.2022,-1.2568,-1.2742,-1.2893,-1.3238,-1.4103,-1.4639,-1.4463,-1.4917,-1.5312,-1.5361,-1.54,-1.5352,-1.5284,-1.503,-1.4533,-1.3857,-1.3643,-1.3279,-1.2444,-1.2691,-1.2682,-1.2029,-1.115,-1.0441,-1.0298,-0.9906,-0.9614,-0.9614,-0.9614,-0.9692,-0.9888,-0.994,-1.0076,-1.0385,-1.0445,-1.0539,-1.0794,-1.0845,-1.0688,-1.0327,-1.0213,-0.989,-3.7894,-3.7733,-3.6699,-3.6254,-3.617,-3.5232,-3.4727,-3.4595,-3.4078,-3.3056,-3.1717,-3.15,-3.0934,-3.011,-2.9905,-2.9863,-2.9809,-2.9682,-2.955,-2.9444,-2.9071,-2.8437,-2.7603,-2.7243,-2.6636,-2.5819,-2.561,-2.52,-2.4498,-2.4327,-2.3864,-2.3091,-2.3101,-2.3101,-2.3091,0.0,0.0,0.0,-2.2637,-2.2236,-2.1865,-2.0909,-2.0194,-1.9795,-1.8929,0.0,-1.8286,-1.7977,-1.7725,-1.751,-1.6777,0.0,0.0,0.0,0.0,0.0,0.0,0.0,0.0,0.0,0.0,0.0,-1.4313,-1.4335,-1.416,-1.4241,-1.4201,-1.3998,-1.3957,-1.3835,-1.3502,-1.3364,-1.3332,-1.3469,-1.3623,-1.3966,-1.4547,-1.4898,-1.5268,-1.5772,-1.565,-1.5533,-1.5565,-1.5397,-1.5244,-1.5254,-1.5274,-1.5098,-1.4609,-1.4202,-1.3905,-1.3712,-1.3425,-1.2909,-1.2079,-1.1424,-1.0722,-0.9989,-0.9692,-0.9614,-0.9614,-0.9614,-0.9614,-0.9699,-0.9692,-0.9751,-1.0025,-1.0069,-1.018,-1.0514,-1.0752,-1.0922,-1.1023,-1.0803,-1.0429,-3.8145,0.0,-3.7132,-3.6639,0.0,-3.5557,-3.5064,-3.4739,-3.4222,-3.3452,-3.25,-3.219,-3.1781,-3.1264,-3.1031,-3.0867,-3.0867,-3.091,-3.0766,-3.0482,-3.0482,-2.9971,-2.9051,-2.9028,-2.8624,-2.7908,-2.701,-2.6325,-2.586,-2.4941,-2.4098,-2.3467,-2.3467,-2.3305,-2.3101,-2.3101,-2.3101,-2.3101,-2.2725,-2.2412,-2.2158,-2.1163,-2.0498,-2.0225,0.0,0.0,0.0,0.0,0.0,0.0,0.0,0.0,0.0,0.0,0.0,-1.6537,-1.6554,-1.6297,-1.5665,-1.5657,-1.5719,-1.5727,-1.6043,-1.5893,-1.5053,-1.5484,-1.5546,-1.5002,-1.5101,-1.5078,-1.4715,-1.4555,-1.4497,-1.4675,-1.4824,-1.5027,-1.5284,-1.5569,-1.5811,-1.5974,-1.5864,-1.5773,-1.5898,-1.56,-1.5413,-1.5374,-1.5321,-1.5206,-1.5012,-1.4681,-1.4394,-1.4153,-1.389,-1.3545,-1.301,-1.2104,-1.1358,-1.0803,-1.0109,-0.9681,-0.9614,-0.9614,-0.9614,-0.9614,-0.9614,-0.9673,-0.9751,-0.981,-0.9914,-1.018,-1.036,-1.0565,-1.0845,-1.0947,-1.0885,-3.8303,-3.8043,-3.7473,-3.6879,-3.6362,-3.5845,-3.5316,-3.4739,0.0,0.0,0.0,-3.2971,-3.2683,-3.2466,-3.2022,-3.1801,-3.1705,-3.1705,-3.1476,-3.1079,-3.1416,-3.1072,-3.0266,-3.0579,-3.0549,-3.0056,-2.8537,-2.7623,-2.7261,-2.5581,-2.4439,-2.3854,-2.3711,-2.3452,-2.312,-2.3101,-2.3101,-2.3081,-2.2803,-2.2588,-2.249,-2.1465,-2.084,-2.0732,-1.9922,-1.9482,-1.9404,-1.9316,-1.9214,-1.9087,-1.9014,-1.8867,-1.8609,-1.8323,-1.8091,-1.8007,-1.7855,-1.7554,-1.7015,-1.6699,-1.6747,-1.7186,-1.7468,-1.7121,-1.5951,-1.6492,-1.6661,-1.6056,-1.6266,-1.6312,-1.6037,-1.5695,-1.5595,-1.588,-1.5952,-1.5989,-1.5938,-1.6202,-1.6327,-1.6137,-1.6025,-1.6035,-1.6154,-1.5826,-1.5546,-1.556,-1.5336,-1.5156,-1.5167,-1.5012,-1.4785,-1.4475,-1.4281,-1.4103,-1.375,-1.2779,-1.1932,-1.1471,-1.0535,-0.9823,-0.9782,-0.9782,-0.9768,-0.9731,-0.9702,-0.9687,-0.9636,-0.964,-0.9699,-0.9888,-0.9973,-1.0084,-1.036,-1.0794,-1.1015,-3.8356,-3.8255,-3.7513,-3.6892,-3.6362,-3.5845,-3.5316,-3.4775,-3.4739,-3.4378,-3.3874,-3.3802,-3.3332,-3.2503,-3.2418,-3.2163,-3.1717,-3.1705,-3.1657,-3.1573,-3.1199,-3.0958,-3.0747,-3.0374,-3.0158,-3.0098,-2.9821,-2.8849,-2.7404,-2.665,-2.5476,-2.3939,-2.3418,-2.3159,-2.3101,-2.3101,-2.3101,-2.3091,-2.3033,-2.2838,-2.2519,-2.2334,-2.1875,-2.1132,-2.0644,-2.0243,-1.9834,-1.9492,-1.9287,-1.9251,-1.9078,-1.8968,-1.8941,-1.8609,-1.836,-1.836,-1.8468,-1.8362,-1.7969,-1.8149,-1.8232,-1.796,-1.7989,-1.777,-1.7258,-1.7027,-1.7,-1.7183,-1.7,-1.6945,-1.7174,-1.6868,-1.6651,-1.67,-1.6722,-1.6731,-1.6697,-1.6752,-1.6771,-1.6722,-1.6465,-1.6263,-1.6274,-1.5798,-1.5476,-1.5536,-1.5351,-1.5087,-1.5215,-1.5264,-1.5284,-1.5158,-1.4762,-1.4119,-1.3475,-1.2538,-1.1759,-1.0891,-1.066,-1.0375,-1.0395,-1.0368,-1.028,-1.0068,-1.0002,-0.9899,-0.9687,-0.9614,-0.964,-0.9699,-0.9836,-0.9999,-1.0076,-1.0385,-1.0668,-3.8303,-3.8173,-3.7774,-3.7324,-3.6771,-3.5966,-3.5316,-3.4787,-3.4775,-3.4655,-3.4402,-3.4114,-3.373,-3.3308,-3.2755,-3.237,-3.2106,-3.1849,-3.1705,-3.1693,-3.1464,-3.1344,-3.132,-3.1091,-3.0995,-3.0939,-3.0395,-2.9713,-2.8835,-2.7571,-2.6361,-2.5305,-2.4133,-2.3335,-2.311,-2.3101,-2.3101,-2.3101,-2.3101,-2.2994,-2.2861,-2.2627,-2.2324,-2.1934,-2.1279,-2.084,-2.0635,-2.0215,-2.0018,-2.0018,-1.9905,-1.9839,-1.9687,-1.9373,-1.9144,-1.9039,-1.9051,-1.8953,-1.8779,-1.8935,-1.8861,-1.8485,-1.8402,-1.8366,-1.8183,-1.7798,-1.7642,-1.7816,-1.766,-1.7606,-1.7807,-1.7468,-1.722,-1.722,-1.7046,-1.6908,-1.6908,-1.6908,-1.6908,-1.689,-1.6752,-1.6642,-1.6599,-1.6162,-1.5859,-1.5932,-1.5582,-1.5381,-1.5463,-1.5449,-1.542,-1.5352,-1.4883,-1.4366,-1.3794,-1.2735,-1.1934,-1.142,-1.0927,-1.0659,-1.058,-1.0587,-1.0455,-1.0177,-1.0104,-0.9972,-0.9687,-0.9614,-0.9614,-0.9614,-0.9666,-0.9777,-0.9803,-1.0017,-1.036,-3.8291,-3.8092,-3.8039,-3.7673,-3.7108,-3.6074,-3.5376,-3.5004,-3.4883,-3.4775,-3.4715,-3.4342,-3.4042,-3.3789,-3.302,-3.2551,-3.2274,-3.191,-3.1705,-3.1705,-3.1705,-3.1705,-3.1705,-3.1705,-3.1705,-3.1617,-3.0913,-3.0441,-3.0022,-2.8525,-2.7262,-2.6341,-2.474,-2.3711,-2.3247,-2.3237,-2.3198,-2.3101,-2.3101,-2.3101,-2.3081,-2.2769,-2.2607,-2.2471,-2.1865,-2.1444,-2.1367,-2.1045,-2.086,-2.0723,-2.0713,-2.0556,-2.0313,-2.002,-1.9745,-1.9606,-1.939,-1.9292,-1.9292,-1.9292,-1.9164,-1.888,-1.8843,-1.8804,-1.8825,-1.853,-1.831,-1.8237,-1.8118,-1.81,-1.8145,-1.7889,-1.7633,-1.7614,-1.7275,-1.7073,-1.7046,-1.6972,-1.6908,-1.6908,-1.6908,-1.6899,-1.6844,-1.6569,-1.6248,-1.6094,-1.5766,-1.5532,-1.5607,-1.5393,-1.5193,-1.5069,-1.4756,-1.4312,-1.4085,-1.3003,-1.2133,-1.1952,-1.1315,-1.0953,-1.0887,-1.0858,-1.0689,-1.0463,-1.036,-1.0192,-0.9848,-0.9712,-0.9683,-0.9658,-0.9614,-0.9614,-0.964,-0.9751,-1.0095,-3.8356,-3.8303,-3.808,-3.7673,-3.7072,-3.6074,-3.5581,-3.5461,-3.504,-3.4775,-3.4763,-3.4727,-3.4222,-3.3428,-3.3248,-3.2671,-3.1874,-3.1729,-3.1705,-3.1705,-3.1705,-3.1705,-3.1705,-3.1705,-3.1705,-3.1717,-3.1572,-3.1059,-3.0283,-2.9588,-2.8165,-2.6073,-2.488,-2.415,-2.3769,-2.373,-2.3535,-2.311,-2.3101,-2.3101,-2.3091,-2.3062,-2.2857,-2.2519,-2.2432,-2.2217,-2.1846,-2.1777,-2.1582,-2.1181,-2.0952,-2.0689,-2.0322,-1.9882,-1.9645,-1.9606,-1.939,-1.9292,-1.9301,-1.9292,-1.9283,-1.9256,-1.9228,-1.9228,-1.9219,-1.9191,-1.9026,-1.8705,-1.8339,-1.8339,-1.8577,-1.8264,-1.8036,-1.8036,-1.7688,-1.744,-1.7403,-1.7119,-1.6908,-1.6908,-1.6927,-1.6908,-1.6872,-1.6597,-1.623,-1.5982,-1.5618,-1.53,-1.5339,-1.5,-1.4505,-1.4418,-1.4359,-1.3932,-1.3092,-1.2618,-1.2127,-1.172,-1.1573,-1.143,-1.1393,-1.1401,-1.1386,-1.0916,-1.0938,-1.0704,-1.0228,-1.0046,-0.9929,-0.968,-0.9614,-0.9614,-0.9614,-0.9647,-0.9906,-3.8133,-3.8145,-3.8027,-3.7493,-3.6699,-3.6254,-3.5725,-3.5087,-3.4871,-3.4775,-3.4775,-3.4775,-3.4378,-3.3693,-3.3104,-3.2563,-3.2154,-3.1862,-3.1705,-3.1705,-3.1705,-3.1705,-3.1705,-3.1705,-3.1705,-3.1705,-3.1705,-3.1484,-3.1012,-3.031,-2.8689,-2.6518,-2.589,-2.5217,-2.4235,-2.416,-2.3945,-2.3535,-2.3516,-2.3398,-2.313,-2.3101,-2.3023,-2.2838,-2.2646,-2.2441,-2.2256,-2.2021,-2.1807,-2.16,-2.1407,-2.1,-2.0499,-2.016,-1.9919,-1.9798,-1.9709,-1.9677,-1.9637,-1.9448,-1.9412,-1.96,-1.9439,-1.9292,-1.9292,-1.9292,-1.9228,-1.9081,-1.8916,-1.8907,-1.8999,-1.8705,-1.8476,-1.8383,-1.8109,-1.7862,-1.7853,-1.7504,-1.7248,-1.7238,-1.7046,-1.6908,-1.689,-1.6771,-1.6606,-1.6395,-1.6045,-1.5674,-1.5423,-1.5,-1.4397,-1.3693,-1.3668,-1.3479,-1.2637,-1.2058,-1.1794,-1.1646,-1.1591,-1.1591,-1.1591,-1.1591,-1.1481,-1.1166,-1.1136,-1.0887,-1.0199,-1.0097,-1.0002,-0.9738,-0.9614,-0.9614,-0.9614,-0.9614,-0.9751,-3.7974,-3.7974,-3.7974,-3.7457,-3.6639,-3.6627,-3.6014,-3.5051,-3.504,-3.4847,-3.4558,-3.4475,-3.4114,-3.3526,-3.2971,-3.2587,-3.2238,-3.1886,-3.1705,-3.1705,-3.1705,-3.1705,-3.1705,-3.1705,-3.1705,-3.1705,-3.1705,-3.1705,-3.1572,-3.0678,-2.9284,-2.7753,-2.7306,-2.6429,-2.5175,-2.4987,-2.4651,-2.4039,-2.3857,-2.3633,-2.334,-2.3149,-2.3101,-2.3071,-2.2799,-2.2643,-2.2676,-2.2393,-2.2168,-2.207,-2.1852,-2.1441,-2.0866,-2.0573,-2.0249,-1.9952,-1.9994,-2.0035,-1.9902,-1.9701,-1.9769,-2.0017,-1.9705,-1.9476,-1.9448,-1.9375,-1.9301,-1.9283,-1.9292,-1.9274,-1.9265,-1.9045,-1.8889,-1.8852,-1.8522,-1.8255,-1.8228,-1.788,-1.7614,-1.7495,-1.7248,-1.7009,-1.6892,-1.6707,-1.6541,-1.6748,-1.6127,-1.5751,-1.5291,-1.4807,-1.3973,-1.3031,-1.3043,-1.2868,-1.239,-1.1956,-1.1599,-1.1529,-1.156,-1.1522,-1.1591,-1.1591,-1.1577,-1.1357,-1.1269,-1.107,-1.0616,-1.0397,-1.0075,-0.976,-0.9629,-0.9636,-0.9614,-0.9614,-0.9614,-3.7974,-3.7974,-3.7974,-3.7625,-3.7132,-3.7084,-3.6519,-3.5423,-3.5533,-3.4967,-3.4066,-3.3645,-3.3104,-3.2695,-3.3056,-3.2683,-3.1849,-3.1765,-3.1741,-3.1717,-3.1705,-3.1705,-3.1705,-3.1705,-3.1705,-3.1705,-3.1705,-3.1705,-3.1617,-3.0722,-3.0158,-2.9943,-2.9019,-2.7889,-2.6687,-2.645,-2.5762,-2.4579,-2.4108,-2.3789,-2.3701,-2.335,-2.312,-2.3091,-2.3062,-2.3042,-2.3042,-2.3042,-2.2847,-2.25,-2.2277,-2.1957,-2.1489,-2.108,-2.0597,-2.0035,-2.025,-2.0338,-2.004,-2.0204,-2.0397,-2.0397,-2.0085,-1.9847,-1.9824,-1.9549,-1.9356,-1.9301,-1.9292,-1.9292,-1.9292,-1.9237,-1.9219,-1.921,-1.8916,-1.8715,-1.8687,-1.8301,-1.7898,-1.7642,-1.7486,-1.733,-1.6965,-1.6263,-1.6325,-1.6289,-1.51,-1.4075,-1.4706,-1.392,-1.314,-1.2802,-1.2552,-1.2313,-1.1949,-1.1811,-1.1764,-1.165,-1.1505,-1.138,-1.1498,-1.1584,-1.1569,-1.1562,-1.1511,-1.1357,-1.1092,-1.0704,-1.0272,-0.9958,-0.9738,-0.9661,-0.9636,-0.9621,-0.9614,-3.7974,-3.7938,-3.7613,-3.7168,-3.6675,-3.6338,-3.5773,-3.5136,-3.5063,-3.4655,-3.4042,-3.3849,-3.3489,-3.302,-3.32,-3.2741,-3.1801,-3.2066,-3.201,-3.1753,-3.1705,-3.1705,-3.1705,-3.1705,-3.1705,-3.1705,-3.1705,-3.1705,-3.1661,-3.1327,-3.0824,-3.026,-2.9841,-2.9089,-2.8036,-2.7269,-2.6594,-2.5813,-2.502,-2.4346,-2.3893,-2.3633,-2.3428,-2.311,-2.3101,-2.3101,-2.3101,-2.3101,-2.3023,-2.2877,-2.2703,-2.2303,-2.175,-2.1291,-2.0808,-2.0402,-2.0677,-2.0833,-2.0653,-2.0567,-2.0589,-2.0833,-2.0488,-2.0149,-1.993,-1.9778,-1.9604,-1.9384,-1.9301,-1.9292,-1.9292,-1.9292,-1.9292,-1.9274,-1.9173,-1.9072,-1.9017,-1.8742,-1.844,-1.8229,-1.7862,-1.7513,-1.7388,-1.6581,-1.6051,-1.6331,-1.5185,-1.4319,-1.4012,-1.3573,-1.3042,-1.2557,-1.2255,-1.2054,-1.204,-1.1877,-1.1737,-1.1625,-1.1475,-1.1411,-1.1456,-1.1462,-1.1433,-1.1421,-1.1466,-1.1367,-1.0994,-1.0741,-1.0334,-1.0086,-0.9875,-0.978,-0.965,-0.9668,-0.9665,-3.7878,-3.7673,-3.7348,-3.6795,-3.6158,-3.5954,-3.5461,-3.4871,-3.5184,-3.4859,-3.415,-3.4162,-3.3921,-3.3404,-3.3452,-3.3056,-3.2319,-3.2587,-3.2454,-3.1961,-3.1982,-3.1937,-3.1946,-3.1789,-3.1705,-3.1705,-3.1705,-3.1789,-3.1934,-3.1789,-3.1339,-3.0734,-3.0678,-3.017,-2.9235,-2.8495,-2.7904,-2.7231,-2.619,-2.5295,-2.473,-2.4096,-2.3652,-2.3369,-2.3169,-2.3101,-2.3101,-2.3101,-2.3101,-2.3091,-2.2969,-2.2625,-2.1976,-2.1537,-2.1135,-2.0814,-2.1089,-2.1236,-2.1126,-2.0979,-2.0991,-2.1255,-2.09,-2.0534,-2.0287,-2.0149,-1.9971,-1.9751,-1.9558,-1.9512,-1.9476,-1.9393,-1.9301,-1.9292,-1.9292,-1.9292,-1.9283,-1.9063,-1.8852,-1.8623,-1.8109,-1.7899,-1.7842,-1.665,-1.6141,-1.6356,-1.5085,-1.3887,-1.3666,-1.3244,-1.2989,-1.2439,-1.2197,-1.2132,-1.2143,-1.2073,-1.1908,-1.1774,-1.1595,-1.15,-1.1379,-1.134,-1.1287,-1.1276,-1.1214,-1.1124,-1.0954,-1.0695,-1.0451,-1.0199,-1.0097,-1.0005,-0.9879,-0.9778,-0.9741,-3.7685,-3.7252,-3.718,-3.6567,-3.5797,-3.6026,-3.5725,-3.5064,-3.5797,-3.5267,-3.4222,-3.451,-3.4198,-3.3609,-3.3813,-3.3658,-3.3296,-3.332,-3.3056,-3.2539,-3.2503,-3.2503,-3.2466,-3.2102,-3.1898,-3.1886,-3.1789,-3.2054,-3.2454,-3.207,-3.1785,-3.1745,-3.1728,-3.1236,-3.025,-3.0068,-2.9589,-2.8606,-2.7313,-2.6573,-2.6367,-2.4907,-2.3992,-2.3765,-2.3379,-2.313,-2.3101,-2.3101,-2.3101,-2.3101,-2.3091,-2.2784,-2.2217,-2.1854,-2.1485,-2.1245,-2.1449,-2.1493,-2.1236,-2.1412,-2.1559,-2.1577,-2.1328,-2.108,-2.0934,-2.0695,-2.0442,-2.0305,-2.0076,-1.9875,-1.9842,-1.9622,-1.9375,-1.9292,-1.9292,-1.9292,-1.9292,-1.9292,-1.9155,-1.8749,-1.8375,-1.8118,-1.7801,-1.6711,-1.5966,-1.5898,-1.4509,-1.3212,-1.3462,-1.3007,-1.2479,-1.2305,-1.2251,-1.2241,-1.2251,-1.2295,-1.2124,-1.1964,-1.1792,-1.1668,-1.1437,-1.1349,-1.1227,-1.1189,-1.1097,-1.0978,-1.0972,-1.0732,-1.0553,-1.0363,-1.0307,-1.0194,-1.0036,-0.987,-0.9785,-3.7673,-3.7168,-3.6795,-3.6266,-3.5605,-3.5375,-3.5112,-3.4859,-3.5208,-3.4991,-3.4607,-3.4318,-3.4282,-3.4282,-3.4102,-3.391,-3.379,-3.4126,-3.3885,-3.3176,-3.3056,-3.3044,-3.3008,-3.2851,-3.2779,-3.2791,-3.2779,-3.2863,-3.2971,-3.2897,-3.2779,-3.2779,-3.2767,-3.2438,-3.1729,-3.1089,-3.0376,-2.9681,-2.8631,-2.7629,-2.6687,-2.6039,-2.5154,-2.3928,-2.3652,-2.3413,-2.313,-2.3101,-2.3101,-2.3101,-2.3101,-2.2828,-2.2299,-2.2043,-2.1854,-2.1575,-2.1604,-2.1704,-2.154,-2.164,-2.1687,-2.1668,-2.1594,-2.1392,-2.1154,-2.1007,-2.0805,-2.0552,-2.0393,-2.0204,-1.9976,-2.0049,-1.9888,-1.9356,-1.9292,-1.9311,-1.9292,-1.9292,-1.9246,-1.9118,-1.8779,-1.8669,-1.8463,-1.7157,-1.5954,-1.6055,-1.4445,-1.3224,-1.3079,-1.2931,-1.2543,-1.2358,-1.2338,-1.2311,-1.2305,-1.2305,-1.221,-1.2131,-1.198,-1.1709,-1.1498,-1.1352,-1.12,-1.1033,-1.0943,-1.0899,-1.0895,-1.0797,-1.0627,-1.0553,-1.0501,-1.0326,-1.0094,-0.9953,-0.9865,-3.7553,-3.6892,-3.6543,-3.5966,-3.5328,-3.4956,-3.4775,-3.4823,-3.504,-3.5124,-3.4991,-3.4739,-3.4751,-3.4907,-3.451,-3.4294,-3.4318,-3.4643,-3.4487,-3.3885,-3.3621,-3.3573,-3.3525,-3.3368,-3.3404,-3.3501,-3.338,-3.3392,-3.3549,-3.338,-3.3284,-3.3284,-3.3284,-3.3128,-3.2733,-3.2026,-3.1412,-3.1169,-2.9988,-2.8718,-2.7732,-2.6972,-2.5844,-2.45,-2.4111,-2.3809,-2.3383,-2.3335,-2.3266,-2.313,-2.3013,-2.275,-2.2264,-2.2132,-2.1963,-2.1776,-2.1687,-2.1687,-2.1687,-2.1678,-2.1687,-2.1687,-2.1687,-2.1586,-2.1392,-2.1302,-2.12,-2.0982,-2.0824,-2.0589,-2.0466,-2.0369,-2.0273,-1.9833,-1.9632,-1.9476,-1.9356,-1.9292,-1.9292,-1.9228,-1.9033,-1.91,-1.8758,-1.757,-1.6181,-1.6031,-1.4623,-1.3313,-1.3092,-1.2929,-1.271,-1.2498,-1.2398,-1.2365,-1.2311,-1.2305,-1.2305,-1.2248,-1.2154,-1.1807,-1.1506,-1.1384,-1.1242,-1.0902,-1.0719,-1.0751,-1.0732,-1.0784,-1.0708,-1.0688,-1.0608,-1.0463,-1.0278,-1.0065,-0.9911,-3.7385,-3.6495,-3.6411,-3.5845,-3.4955,-3.4871,-3.4775,-3.4847,-3.528,-3.5497,-3.5545,-3.5485,-3.5533,-3.5473,-3.5003,-3.4823,-3.4823,-3.4787,-3.4871,-3.4691,-3.4414,-3.4138,-3.4006,-3.3825,-3.3873,-3.3934,-3.3681,-3.3693,-3.4006,-3.3717,-3.338,-3.3501,-3.3537,-3.338,-3.3238,-3.2793,-3.2759,-3.2683,-3.118,-2.9939,-2.9288,-2.7598,-2.616,-2.5134,-2.4658,-2.4258,-2.3896,-2.376,-2.3555,-2.3169,-2.2925,-2.2706,-2.2344,-2.2185,-2.2008,-2.1776,-2.1731,-2.1687,-2.1687,-2.1687,-2.1687,-2.1687,-2.1687,-2.1687,-2.1632,-2.1604,-2.1586,-2.1531,-2.1284,-2.1117,-2.0989,-2.0817,-2.064,-2.0521,-2.014,-1.9833,-1.9457,-1.9402,-1.9402,-1.9375,-1.9329,-1.9213,-1.9006,-1.7527,-1.6573,-1.5932,-1.4679,-1.3797,-1.342,-1.3166,-1.2951,-1.2719,-1.2532,-1.2412,-1.2358,-1.2305,-1.2305,-1.2285,-1.2218,-1.1931,-1.1591,-1.1457,-1.127,-1.0901,-1.0705,-1.0685,-1.0624,-1.0688,-1.0719,-1.0638,-1.0594,-1.0554,-1.0431,-1.0196,-1.0013,-3.7589,-3.6964,-3.6567,-3.6014,-3.5388,-3.4967,-3.4775,-3.4787,-3.4919,-3.528,-3.5545,-3.5617,-3.5617,-3.5605,-3.5485,-3.5412,-3.534,-3.4979,-3.5076,-3.534,-3.528,-3.4907,-3.4739,-3.4895,-3.4847,-3.4607,-3.4487,-3.4499,-3.4607,-3.4426,-3.4318,-3.4414,-3.433,-3.4174,-3.3814,-3.3634,-3.3489,-3.3097,-3.1692,-3.0518,-2.9777,-2.8074,-2.6571,-2.5604,-2.5137,-2.4707,-2.4277,-2.3945,-2.3584,-2.3149,-2.3057,-2.2969,-2.2794,-2.2485,-2.222,-2.2008,-2.1776,-2.1687,-2.1687,-2.1687,-2.1687,-2.1687,-2.1687,-2.1687,-2.1687,-2.1687,-2.1687,-2.1678,-2.1559,-2.1385,-2.1227,-2.1238,-2.1236,-2.0961,-2.0631,-2.0338,-2.0145,-1.9943,-1.9719,-1.9651,-1.8972,-1.8549,-1.8121,-1.6984,-1.5846,-1.5509,-1.4772,-1.3868,-1.3654,-1.3447,-1.324,-1.2918,-1.2697,-1.2505,-1.2392,-1.2338,-1.2305,-1.2305,-1.2245,-1.2131,-1.179,-1.155,-1.1296,-1.1015,-1.0961,-1.0928,-1.072,-1.0663,-1.0593,-1.062,-1.0591,-1.058,-1.0494,-1.0292,-1.0147,-3.7673,-3.7156,-3.6627,-3.6098,-3.5569,-3.4991,-3.4775,-3.4775,-3.4775,-3.5124,-3.5485,-3.5376,-3.5545,-3.5905,-3.5713,-3.5761,-3.5881,-3.5629,-3.5677,-3.593,-3.6182,-3.5978,-3.5689,-3.5833,-3.5785,-3.5497,-3.5256,-3.516,-3.5112,-3.4944,-3.4775,-3.4727,-3.4775,-3.4619,-3.433,-3.4078,-3.3994,-3.3612,-3.223,-3.0979,-3.0368,-2.868,-2.7325,-2.6379,-2.583,-2.5361,-2.4756,-2.4277,-2.3857,-2.3442,-2.3208,-2.3057,-2.2979,-2.2618,-2.2309,-2.2097,-2.1874,-2.1687,-2.1687,-2.1687,-2.1687,-2.1687,-2.1687,-2.1687,-2.1687,-2.1687,-2.1687,-2.1687,-2.1687,-2.1568,-2.1484,-2.1559,-2.1559,-2.1401,-2.1163,-2.0845,-2.0534,-2.031,-2.02,-1.9875,-1.9088,-1.8245,-1.8188,-1.6554,-1.565,-1.5262,-1.4671,-1.4142,-1.3861,-1.3686,-1.3467,-1.3106,-1.2811,-1.2636,-1.2418,-1.2325,-1.2305,-1.2305,-1.2285,-1.2191,-1.1977,-1.169,-1.1456,-1.1243,-1.1202,-1.1096,-1.0888,-1.0713,-1.07,-1.07,-1.0633,-1.0573,-1.0512,-1.0388,-1.0234,-3.7709,-3.724,-3.6711,-3.6182,-3.5689,-3.5148,-3.4859,-3.4775,-3.4775,-3.5027,-3.5364,-3.5039,-3.5412,-3.6206,-3.5713,-3.5857,-3.6254,-3.6086,-3.6326,-3.6507,-3.6747,-3.6723,-3.6615,-3.6471,-3.6398,-3.6206,-3.5869,-3.5737,-3.5593,-3.5196,-3.4907,-3.4895,-3.4907,-3.4775,-3.457,-3.4162,-3.421,-3.3919,-3.2117,-3.0974,-3.0324,-2.8953,-2.7633,-2.7076,-2.6465,-2.5947,-2.5312,-2.4775,-2.4326,-2.3955,-2.3477,-2.311,-2.2886,-2.2574,-2.2353,-2.2132,-2.1919,-2.1741,-2.1687,-2.1687,-2.1687,-2.1687,-2.1687,-2.1687,-2.1687,-2.1687,-2.1687,-2.1687,-2.1687,-2.1668,-2.165,-2.1687,-2.1668,-2.1604,-2.1623,-2.1312,-2.0723,-2.0519,-2.0534,-2.0337,-1.9258,-1.8632,-1.7829,-1.6734,-1.5271,-1.4901,-1.4454,-1.4216,-1.3975,-1.3881,-1.3601,-1.3227,-1.2933,-1.2717,-1.2492,-1.2311,-1.2305,-1.2305,-1.2305,-1.2231,-1.2078,-1.1844,-1.1643,-1.1503,-1.1483,-1.1296,-1.0989,-1.0875,-1.0828,-1.0713,-1.0606,-1.0586,-1.0566,-1.0459,-1.0294,-3.7926,-3.7769,-3.724,-3.6723,-3.6194,-3.5665,-3.5208,-3.4775,-3.4775,-3.4859,-3.504,-3.528,-3.5328,-3.5195,-3.5521,-3.5689,-3.5869,-3.5918,-3.6194,-3.6952,-3.6639,-3.7072,-3.7312,-3.7156,-3.6795,-3.6531,-3.6338,-3.6242,-3.611,-3.5637,-3.5387,-3.529,-3.4844,-3.4775,-3.4532,-3.3887,-3.3409,-3.3086,-3.1135,-3.0197,-2.9847,-2.8451,-2.7525,-2.7383,-2.6797,-2.6348,-2.6016,-2.5352,-2.4912,-2.4639,-2.4092,-2.353,-2.3178,-2.2851,-2.2621,-2.2346,-2.2106,-2.1919,-2.1731,-2.1687,-2.1687,-2.1687,-2.1687,-2.1687,-2.1687,-2.1687,-2.1687,-2.1687,-2.1687,-2.1687,-2.1687,-2.1687,-2.1687,-2.1687,-2.1633,-2.1302,-2.0678,-2.0718,-2.0696,-1.9809,-1.8772,-1.7548,-1.6606,-1.5676,-1.4779,-1.448,-1.4292,-1.413,-1.4048,-1.4001,-1.3714,-1.3367,-1.3206,-1.2966,-1.2659,-1.2465,-1.2371,-1.2331,-1.2305,-1.2298,-1.2144,-1.2078,-1.1911,-1.1824,-1.1819,-1.153,-1.1256,-1.1029,-1.0969,-1.0787,-1.06,-1.0586,-1.0559,-1.0472,-1.0276,-3.7974,-3.7979,-3.7409,-3.6879,-3.6362,-3.5833,-3.5316,-3.4835,-3.4775,-3.4775,-3.4823,-3.5148,-3.5208,-3.522,-3.5497,-3.5725,-3.5954,-3.599,-3.6278,-3.6687,-3.6531,-3.6723,-3.7132,-3.7276,-3.7108,-3.706,-3.6867,-3.6783,-3.6525,-3.5722,-3.4953,-3.4843,-3.4475,-3.3842,-3.3694,-3.3598,-3.3388,-3.2465,-3.1204,-3.0262,-2.9662,-2.8448,-2.7539,-2.7611,-2.7031,-2.6611,-2.6318,-2.5752,-2.543,-2.5225,-2.4746,-2.4189,-2.3689,-2.3198,-2.2888,-2.2725,-2.2171,-2.1893,-2.1741,-2.1687,-2.1687,-2.1687,-2.1687,-2.1687,-2.1687,-2.1687,-2.1687,-2.1687,-2.1687,-2.1687,-2.1687,-2.1687,-2.1687,-2.1597,-2.132,-2.0808,-2.0539,-2.0935,-2.0766,-1.9622,-1.8564,-1.7572,-1.6485,-1.5265,-1.4646,-1.4457,-1.4277,-1.4102,-1.4088,-1.4015,-1.3841,-1.3594,-1.344,-1.3214,-1.2899,-1.2652,-1.2472,-1.2392,-1.2305,-1.2305,-1.2245,-1.2231,-1.2225,-1.2124,-1.2011,-1.1913,-1.1617,-1.1376,-1.1102,-1.0902,-1.0774,-1.0667,-1.0561,-1.0523,-1.0237,-3.7974,-3.7938,-3.7409,-3.6892,-3.6362,-3.5833,-3.5316,-3.4811,-3.4775,-3.4775,-3.4775,-3.4775,-3.5039,-3.5388,-3.5437,-3.5785,-3.6086,-3.6086,-3.6086,-3.6435,-3.629,-3.6459,-3.6735,-3.7072,-3.7421,-3.7878,-3.7529,-3.7324,-3.6896,-3.5805,-3.5119,-3.4307,-3.3947,-3.3271,-3.2488,-3.2889,-3.2889,-3.14,-3.0824,-3.0234,-2.9618,-2.8628,-2.81,-2.7793,-2.7383,-2.6924,-2.6553,-2.6103,-2.5791,-2.5674,-2.5371,-2.5,-2.4526,-2.383,-2.3195,-2.3167,-2.243,-2.2039,-2.1848,-2.1731,-2.1687,-2.1687,-2.1687,-2.1687,-2.1687,-2.1687,-2.1687,-2.1687,-2.1687,-2.1687,-2.1687,-2.1687,-2.1687,-2.1553,-2.0862,-2.0303,-2.0257,-2.0808,-2.0124,-1.8945,-1.8108,-1.7357,-1.6465,-1.5407,-1.4933,-1.4509,-1.4289,-1.4115,-1.4095,-1.4041,-1.3881,-1.3721,-1.3547,-1.3367,-1.3073,-1.2792,-1.2656,-1.2529,-1.2378,-1.2318,-1.2311,-1.2298,-1.2285,-1.2291,-1.2191,-1.2051,-1.1891,-1.1643,-1.1369,-1.1102,-1.0982,-1.0935,-1.0803,-1.0612,-1.0206,-3.7974,-3.7926,-3.7409,-3.6879,-3.6362,-3.5845,-3.5316,-3.4823,-3.4775,-3.4775,-3.4775,-3.4775,-3.4823,-3.4931,-3.4907,-3.5256,-3.5581,-3.5485,-3.5641,-3.6134,-3.605,-3.6122,-3.6843,-3.7096,-3.7469,-3.7841,-3.7777,-3.7635,-3.7568,-3.7092,-3.5451,-3.4705,-3.4068,-3.3021,-3.166,-3.1206,-3.1116,-3.036,-2.9711,-2.9164,-2.8761,-2.8495,-2.8262,-2.8076,-2.7705,-2.7314,-2.6924,-2.6504,-2.6123,-2.5732,-2.5625,-2.5547,-2.5294,-2.4615,-2.3973,-2.3427,-2.2955,-2.2468,-2.2128,-2.1785,-2.1741,-2.1687,-2.1687,-2.1687,-2.1687,-2.1687,-2.1687,-2.1687,-2.1687,-2.1687,-2.1687,-2.1687,-2.1696,-2.1463,-2.0763,-1.9886,-1.9293,-1.9063,-1.888,-1.7723,-1.7362,-1.7135,-1.6228,-1.5543,-1.5105,-1.471,-1.4462,-1.4229,-1.4095,-1.4048,-1.3955,-1.3794,-1.36,-1.3413,-1.318,-1.2966,-1.279,-1.267,-1.2543,-1.2345,-1.2331,-1.2311,-1.2305,-1.2305,-1.2271,-1.2158,-1.1997,-1.1873,-1.1539,-1.1184,-1.118,-1.1222,-1.0875,-1.0538,-1.0219,-3.7565,-3.7517,-3.7,-3.6483,-3.6002,-3.5725,-3.5316,-3.4811,-3.4775,-3.4775,-3.4775,-3.4775,-3.4775,-3.4775,-3.4775,-3.4943,-3.5015,-3.4955,-3.5292,-3.5797,-3.5785,-3.6002,-3.6807,-3.7048,-3.7312,-3.7431,-3.7275,-3.7108,-3.6977,-3.6087,-3.4996,-3.3647,-3.305,-3.2148,-3.1147,-3.1095,-3.0305,-2.968,-2.9156,-2.8824,-2.8354,-2.8301,-2.8301,-2.8184,-2.7973,-2.7568,-2.7344,-2.6943,-2.6641,-2.6406,-2.6191,-2.6103,-2.5879,-2.5421,-2.4742,-2.4083,-2.3368,-2.2773,-2.2385,-2.2022,-2.1687,-2.1687,-2.1687,-2.1687,-2.1687,-2.1687,-2.1687,-2.1687,-2.1687,-2.1687,-2.1687,-2.1687,-2.1463,-2.0907,-2.0167,-1.9155,-1.8241,-1.7638,-1.7131,-1.677,-1.7008,-1.6757,-1.604,-1.5477,-1.5223,-1.4917,-1.4649,-1.4389,-1.4128,-1.4055,-1.4001,-1.3941,-1.3808,-1.3681,-1.3487,-1.326,-1.3038,-1.2884,-1.267,-1.2516,-1.2358,-1.2338,-1.2318,-1.2305,-1.2258,-1.2225,-1.2138,-1.1991,-1.1617,-1.1291,-1.1335,-1.1271,-1.0833,-1.0451,-1.0088,-3.7132,-3.6988,-3.6459,-3.6002,-3.5641,-3.5485,-3.5171,-3.4823,-3.4775,-3.4775,-3.4775,-3.4775,-3.4775,-3.4775,-3.4775,-3.4787,-3.4799,-3.4871,-3.5183,-3.5375,-3.5761,-3.6074,-3.6447,-3.6852,-3.7132,-3.6867,-3.664,-3.6177,-3.6111,-3.5233,-3.3632,-3.2614,-3.2041,-3.1132,-3.0214,-3.0722,-3.0242,-2.984,-2.9477,-2.931,-2.8632,-2.834,-2.8301,-2.8291,-2.7969,-2.7773,-2.764,-2.7334,-2.708,-2.6855,-2.6602,-2.6367,-2.6318,-2.5977,-2.5479,-2.4813,-2.371,-2.3101,-2.2628,-2.2216,-2.1824,-2.1714,-2.1696,-2.1687,-2.1687,-2.1687,-2.1687,-2.1687,-2.1687,-2.1687,-2.1687,-2.1687,-2.1275,-2.0439,-1.9476,-1.8427,-1.7552,-1.6857,-1.6339,-1.6251,-1.6676,-1.6499,-1.5826,-1.5651,-1.5391,-1.5082,-1.4763,-1.4449,-1.4215,-1.4108,-1.4062,-1.4068,-1.4001,-1.3928,-1.3774,-1.3573,-1.3367,-1.3153,-1.2904,-1.265,-1.2516,-1.2371,-1.2351,-1.2338,-1.2298,-1.2265,-1.2198,-1.2085,-1.1719,-1.1475,-1.1484,-1.115,-1.0587,-1.0176,-0.985,-3.6928,-3.6459,-3.593,-3.5665,-3.5533,-3.5075,-3.4859,-3.4787,-3.4775,-3.4775,-3.4775,-3.4775,-3.4775,-3.4775,-3.4775,-3.4775,-3.4968,-3.5244,-3.5388,-3.5399,-3.599,-3.6386,-3.6531,-3.694,-3.6761,-3.6367,-3.6097,-3.6231,-3.5619,-3.467,-3.3495,-3.2197,-3.1733,-3.1228,-3.0,-3.0173,-2.978,-2.9584,-2.9616,-2.938,-2.8843,-2.8447,-2.832,-2.8271,-2.8193,-2.8037,-2.7836,-2.7617,-2.7471,-2.708,-2.666,-2.6416,-2.6318,-2.5927,-2.5723,-2.5354,-2.4689,-2.3815,-2.3156,-2.2491,-2.2025,-2.1824,-2.1714,-2.1696,-2.1687,-2.1687,-2.1687,-2.1687,-2.1687,-2.1597,-2.1553,-2.1651,-2.1177,-2.0212,-1.9109,-1.8195,-1.7326,-1.648,-1.5872,-1.5825,-1.6251,-1.6157,-1.5798,-1.5725,-1.5598,-1.5231,-1.4921,-1.4576,-1.4295,-1.4182,-1.4088,-1.4088,-1.4088,-1.4015,-1.3975,-1.3821,-1.36,-1.3427,-1.3166,-1.2871,-1.275,-1.2599,-1.2412,-1.2392,-1.2341,-1.2153,-1.2,-1.1834,-1.1717,-1.1383,-1.1022,-1.0601,-1.0155,-0.9845,-0.9511,-3.617,-3.5918,-3.5388,-3.5123,-3.5148,-3.4871,-3.4775,-3.4775,-3.4775,-3.4775,-3.4775,-3.4775,-3.4775,-3.4775,-3.4775,-3.4967,-3.5219,-3.5495,-3.5893,-3.6035,-3.6552,-3.6936,-3.7104,-3.6873,-3.6406,-3.5856,-3.4947,-3.4067,-3.4022,-3.3719,-3.269,-3.162,-3.1351,-3.1112,-3.0262,-3.0039,-2.9951,-2.9785,-2.9518,-2.8994,-2.8633,-2.8408,-2.8301,-2.8301,-2.8301,-2.8174,-2.8066,-2.8018,-2.7959,-2.7617,-2.7148,-2.6894,-2.6797,-2.6348,-2.5771,-2.6025,-2.5197,-2.4392,-2.3758,-2.2843,-2.2346,-2.2025,-2.1842,-2.1687,-2.1687,-2.1687,-2.1687,-2.1687,-2.1687,-2.1508,-2.1042,-2.0907,-1.994,-1.9063,-1.8427,-1.7591,-1.6857,-1.6386,-1.5825,-1.5825,-1.5825,-1.5825,-1.5825,-1.5785,-1.5665,-1.5371,-1.509,-1.4863,-1.4509,-1.4215,-1.4142,-1.4088,-1.4088,-1.4068,-1.4048,-1.3975,-1.3773,-1.3593,-1.35,-1.3247,-1.3053,-1.2893,-1.2705,-1.2399,-1.2222,-1.2037,-1.1783,-1.1422,-1.1155,-1.0775,-1.0383,-0.9933,-0.9556,-0.9243,-0.8858,-3.5425,-3.5327,-3.4992,-3.4775,-3.4775,-3.4775,-3.4775,-3.4775,-3.4775,-3.4775,-3.4775,-3.4775,-3.4775,-3.4835,-3.4992,-3.5268,-3.5605,-3.5869,-3.6123,-3.6534,-3.6794,-3.6773,-3.6359,-3.5874,-3.553,-3.5311,-3.3786,-3.2856,-3.241,-3.218,-3.1777,-3.0947,-3.1043,-3.0888,-3.0839,-3.0566,-3.0371,-3.0312,-2.9707,-2.9238,-2.8916,-2.8613,-2.8506,-2.8428,-2.8369,-2.8301,-2.8301,-2.8271,-2.8262,-2.8105,-2.7578,-2.7275,-2.7187,-2.6504,-2.6006,-2.5966,-2.5234,-2.4771,-2.4182,-2.3409,-2.2713,-2.2346,-2.2071,-2.1842,-2.1687,-2.1687,-2.1687,-2.1687,-2.1687,-2.1221,-2.0583,-2.0348,-1.9384,-1.8427,-1.7466,-1.6669,-1.6062,-1.592,-1.5825,-1.5825,-1.5825,-1.5825,-1.5825,-1.5825,-1.5698,-1.5471,-1.5277,-1.5104,-1.4756,-1.4355,-1.4208,-1.4148,-1.4088,-1.4088,-1.4082,-1.4028,-1.3901,-1.378,-1.3686,-1.356,-1.338,-1.3193,-1.3013,-1.2648,-1.2193,-1.1676,-1.1322,-1.0927,-1.0506,-1.0051,-0.9604,-0.9258,-0.8879,-0.8594,-0.8293,-3.4871,-3.4823,-3.4787,-3.4775,-3.4775,-3.4775,-3.4775,-3.4775,-3.4775,-3.4775,-3.4775,-3.4775,-3.4787,-3.4907,-3.5156,-3.5396,-3.5713,-3.6651,-3.6124,-3.5648,-3.5623,-3.5409,-3.4998,-3.4549,-3.4067,-3.3335,-3.2571,-3.1903,-3.1344,-3.1344,-3.1112,-3.0898,-3.0898,-3.0898,-3.0879,-3.0791,-3.0664,-3.0576,-3.0127,-2.9941,-2.9609,-2.9238,-2.8828,-2.874,-2.8506,-2.8301,-2.8301,-2.8301,-2.8291,-2.8262,-2.7734,-2.7412,-2.7178,-2.6523,-2.6113,-2.5839,-2.5282,-2.4884,-2.4511,-2.3864,-2.3263,-2.2858,-2.2419,-2.1989,-2.1833,-2.1714,-2.1687,-2.1642,-2.1553,-2.1042,-2.0538,-2.0022,-1.8834,-1.7777,-1.6864,-1.6534,-1.6062,-1.5872,-1.5825,-1.5825,-1.5825,-1.5825,-1.5825,-1.5825,-1.5785,-1.5571,-1.5384,-1.5217,-1.4897,-1.4536,-1.4342,-1.4222,-1.4122,-1.4095,-1.4088,-1.4028,-1.3988,-1.3935,-1.3813,-1.3726,-1.3641,-1.3433,-1.3039,-1.2595,-1.2051,-1.1433,-1.0752,-1.0224,-0.9708,-0.9249,-0.8894,-0.8603,-0.8283,-0.7987,-0.7745,-3.4775,-3.4775,-3.4775,-3.4775,-3.4775,-3.4775,-3.4775,-3.4775,-3.4775,-3.4775,-3.4775,-3.4787,-3.4967,-3.5095,-3.4675,-3.5321,-3.6224,-3.5239,-3.5279,-3.5327,-3.5241,-3.4692,-3.405,-3.3468,-3.3119,-3.2571,-3.2008,-3.1508,-3.1005,-3.0898,-3.0898,-3.0898,-3.0898,-3.0898,-3.0898,-3.0869,-3.0752,-3.0518,-3.0303,-3.0117,-2.9697,-2.9297,-2.8926,-2.8887,-2.8506,-2.832,-2.8301,-2.8301,-2.8301,-2.8144,-2.7666,-2.7441,-2.7236,-2.6553,-2.6162,-2.5956,-2.5358,-2.4988,-2.4756,-2.4087,-2.3334,-2.2876,-2.2346,-2.197,-2.1989,-2.1851,-2.1714,-2.1553,-2.1177,-2.0583,-1.9567,-1.8788,-1.7777,-1.681,-1.6346,-1.6157,-1.6015,-1.5872,-1.5825,-1.5825,-1.5825,-1.5825,-1.5825,-1.5825,-1.5772,-1.5631,-1.5504,-1.5304,-1.5023,-1.477,-1.4583,-1.4376,-1.4269,-1.4162,-1.4155,-1.4128,-1.4095,-1.4035,-1.3975,-1.3783,-1.3633,-1.3136,-1.2779,-1.233,-1.1681,-1.0776,-1.0022,-0.9412,-0.8923,-0.8602,-0.8298,-0.7996,-0.7684,-0.7438,-0.7331,-3.4775,-3.4775,-3.4775,-3.4775,-3.4775,-3.4775,-3.4775,-3.4775,-3.4775,-3.4775,-3.4775,-3.4787,-3.4854,-3.4787,-3.4574,-3.4538,-3.5297,-3.4728,-3.4571,-3.4482,-3.4191,-3.373,-3.3176,-3.2675,-3.2065,-3.196,-3.1508,-3.0898,-3.0898,-3.0898,-3.0898,-3.0898,-3.0898,-3.0898,-3.0898,-3.0869,-3.0713,-3.0488,-3.0371,-3.0293,-2.9951,-2.9443,-2.9277,-2.917,-2.8711,-2.8555,-2.8545,-2.8545,-2.8398,-2.8262,-2.7959,-2.7598,-2.7256,-2.6855,-2.6338,-2.6013,-2.5678,-2.5112,-2.486,-2.4294,-2.3556,-2.3123,-2.2739,-2.2419,-2.2199,-2.2016,-2.1916,-2.1597,-2.0853,-1.9894,-1.8888,-1.8102,-1.7178,-1.6346,-1.6109,-1.592,-1.592,-1.5825,-1.5825,-1.5825,-1.5825,-1.5825,-1.5825,-1.5825,-1.5805,-1.5765,-1.5691,-1.5511,-1.5284,-1.505,-1.4863,-1.4643,-1.4442,-1.4329,-1.4235,-1.4188,-1.4135,-1.4082,-1.3993,-1.3753,-1.348,-1.2973,-1.24,-1.186,-1.1064,-1.0003,-0.9436,-0.9054,-0.8541,-0.8007,-0.7837,-0.7728,-0.7573,-0.7355,-0.7271,-3.4775,-3.4775,-3.4775,-3.4775,-3.4775,-3.4775,-3.4775,-3.4775,-3.4775,-3.4775,-3.4787,-3.4762,-3.4469,-3.418,-3.4152,-3.421,-3.4206,-3.4074,-3.381,-3.3222,-3.2903,-3.2123,-3.1624,-3.1228,-3.1344,-3.1005,-3.0898,-3.0898,-3.0898,-3.0898,-3.0898,-3.0898,-3.0898,-3.0898,-3.0898,-3.0898,-3.0879,-3.0869,-3.083,-3.0762,-3.0547,-2.9932,-2.9785,-2.9658,-2.9043,-2.8838,-2.9108,-2.8691,-2.8574,-2.8633,-2.8242,-2.7842,-2.7461,-2.706,-2.6621,-2.6199,-2.5722,-2.5443,-2.5343,-2.4616,-2.3972,-2.3517,-2.316,-2.2959,-2.2492,-2.2263,-2.2044,-2.1644,-2.0759,-1.977,-1.8819,-1.7777,-1.6723,-1.6157,-1.592,-1.5825,-1.5825,-1.5825,-1.5825,-1.5825,-1.5825,-1.5825,-1.5825,-1.5825,-1.5825,-1.5818,-1.5825,-1.5698,-1.5491,-1.5291,-1.509,-1.4937,-1.471,-1.4589,-1.4476,-1.4275,-1.4175,-1.4128,-1.4014,-1.3867,-1.331,-1.2679,-1.2086,-1.144,-1.0494,-0.9463,-0.9087,-0.8789,-0.834,-0.7875,-0.7793,-0.7663,-0.7484,-0.7315,-0.721,-3.4775,-3.4775,-3.4775,-3.4775,-3.4775,-3.4775,-3.4775,-3.4775,-3.4775,-3.4775,-3.47,-3.4384,-3.4275,-3.4089,-3.3309,-3.3235,-3.382,-3.2225,-3.1845,-3.2628,-3.196,-3.1402,-3.0947,-3.0898,-3.0898,-3.0898,-3.0898,-3.0898,-3.0898,-3.0898,-3.0898,-3.0898,-3.0898,-3.0898,-3.0898,-3.0898,-3.0889,-3.0889,-3.0889,-3.0869,-3.082,-3.0322,-3.0039,-3.0185,-2.9463,-2.9342,-2.9636,-2.9023,-2.8848,-2.8867,-2.8428,-2.7822,-2.7353,-2.6914,-2.6365,-2.5847,-2.5267,-2.4942,-2.4734,-2.4279,-2.4156,-2.3877,-2.362,-2.3334,-2.3068,-2.2812,-2.2303,-2.1418,-2.0445,-1.9363,-1.8218,-1.6989,-1.6042,-1.5974,-1.5825,-1.5825,-1.5825,-1.5825,-1.5825,-1.5825,-1.5825,-1.5825,-1.5825,-1.5825,-1.5825,-1.5825,-1.5825,-1.5825,-1.5671,-1.5478,-1.5284,-1.5197,-1.5037,-1.4897,-1.4743,-1.4583,-1.4522,-1.4543,-1.4335,-1.4054,-1.3411,-1.2394,-1.1472,-1.0651,-0.9793,-0.8947,-0.8692,-0.8424,-0.8134,-0.7868,-0.7757,-0.7593,-0.7401,-0.7261,-0.7147,-3.4775,-3.4775,-3.4775,-3.4775,-3.4775,-3.4775,-3.4775,-3.4775,-3.4775,-3.4775,-3.4639,-3.397,-3.3691,-3.3437,-3.2629,-3.1922,-3.3,-3.1777,-3.1112,-3.195,-3.1344,-3.1005,-3.0957,-3.0898,-3.0898,-3.0898,-3.0898,-3.0898,-3.0898,-3.0898,-3.0898,-3.0898,-3.0898,-3.0898,-3.0898,-3.0898,-3.0898,-3.0898,-3.0898,-3.0889,-3.0752,-3.0488,-3.0283,-3.0244,-2.9971,-2.9763,-2.9775,-2.9551,-2.9131,-2.8926,-2.8486,-2.7803,-2.7314,-2.6775,-2.6256,-2.5698,-2.5149,-2.4821,-2.4559,-2.4468,-2.4385,-2.4165,-2.3776,-2.3611,-2.3499,-2.3215,-2.2378,-2.1397,-2.0099,-1.8955,-1.782,-1.6525,-1.5933,-1.5865,-1.5845,-1.5845,-1.5825,-1.5825,-1.5825,-1.5825,-1.5825,-1.5825,-1.5825,-1.5825,-1.5825,-1.5825,-1.5825,-1.5825,-1.5825,-1.5658,-1.5504,-1.5431,-1.5324,-1.5184,-1.5095,-1.4968,-1.4948,-1.4957,-1.4557,-1.4008,-1.2882,-1.1774,-1.0821,-0.993,-0.9287,-0.8689,-0.8297,-0.8042,-0.7919,-0.7845,-0.7716,-0.7548,-0.7328,-0.7243,-0.7156,-3.4775,-3.4775,-3.4775,-3.4775,-3.4775,-3.4775,-3.4775,-3.4775,-3.4775,-3.4775,-3.464,-3.353,-3.2981,-3.2576,-3.1636,-3.1223,-3.1271,-3.0946,-3.0995,-3.1054,-3.0947,-3.0898,-3.0898,-3.0898,-3.0898,-3.0898,-3.0898,-3.0898,-3.0898,-3.0898,-3.0898,-3.0898,-3.0898,-3.0898,-3.0898,-3.0898,-3.0898,-3.0898,-3.0898,-3.0898,-3.0801,-3.0537,-3.0537,-3.0488,-3.0254,-3.0225,-3.0234,-3.0039,-2.9648,-2.9365,-2.9062,-2.8398,-2.7812,-2.7266,-2.6684,-2.6023,-2.5349,-2.4904,-2.4693,-2.4615,-2.4505,-2.4248,-2.4174,-2.3904,-2.3526,-2.3098,-2.2275,-2.1117,-1.9829,-1.8837,-1.7741,-1.6834,-1.5945,-1.5871,-1.5885,-1.5865,-1.5832,-1.5825,-1.5825,-1.5825,-1.5825,-1.5825,-1.5825,-1.5825,-1.5825,-1.5825,-1.5825,-1.5825,-1.5825,-1.5825,-1.5705,-1.5691,-1.5578,-1.5451,-1.5337,-1.5296,-1.5244,-1.5291,-1.4228,-1.3525,-1.2358,-1.1339,-1.0434,-0.9627,-0.8969,-0.849,-0.8145,-0.7943,-0.7894,-0.7819,-0.7692,-0.7559,-0.7364,-0.7289,-0.7204,-3.4775,-3.4775,-3.4775,-3.4775,-3.4775,-3.4775,-3.4775,-3.4775,-3.4775,-3.4421,-3.3621,-3.2858,-3.2052,-3.1208,-3.0711,-3.0495,-3.0525,-3.0693,-3.085,-3.0889,-3.0869,-3.0889,-3.0898,-3.0898,-3.0898,-3.0898,-3.0898,-3.0898,-3.0898,-3.0898,-3.0898,-3.0898,-3.0898,-3.0898,-3.0898,-3.0898,-3.0898,-3.0898,-3.0898,-3.0898,-3.0898,-3.0713,-3.0781,-3.0684,-3.0625,-3.0654,-3.0605,-3.0351,-2.9951,-2.957,-2.917,-2.8535,-2.7796,-2.751,-2.7062,-2.5774,-2.502,-2.4408,-2.4385,-2.4385,-2.4339,-2.4198,-2.4152,-2.3619,-2.3146,-2.2603,-2.1887,-2.0568,-1.9555,-1.8575,-1.7668,-1.6806,-1.6192,-1.6059,-1.6032,-1.6005,-1.5952,-1.5852,-1.5845,-1.5825,-1.5825,-1.5825,-1.5825,-1.5825,-1.5825,-1.5825,-1.5825,-1.5825,-1.5825,-1.5825,-1.5825,-1.5805,-1.5772,-1.5625,-1.5658,-1.5605,-1.5605,-1.5444,-1.4266,-1.3188,-1.2361,-1.1335,-1.0224,-0.9341,-0.8745,-0.8331,-0.7991,-0.7894,-0.7807,-0.7754,-0.7622,-0.7533,-0.7458,-0.7378,-0.7282,-3.4775,-3.4775,-3.4775,-3.458,-3.4225,-3.4152,-3.3967,-3.3659,-3.3967,-3.3758,-3.3085,-3.1848,-3.1011,-3.0634,-3.0068,-2.9802,-3.0037,-3.0361,-3.0576,-3.0605,-3.083,-3.0879,-3.0898,-3.0898,-3.0898,-3.0898,-3.0898,-3.0898,-3.0898,-3.0898,-3.0898,-3.0898,-3.0898,-3.0898,-3.0898,-3.0898,-3.0898,-3.0898,-3.0898,-3.0889,-3.0879,-3.0879,-3.0889,-3.0859,-3.0859,-3.0869,-3.0859,-3.0518,-3.0254,-2.9834,-2.9404,-2.8789,-2.7877,-2.7334,-2.6436,-2.5199,-2.4684,-2.4306,-2.4257,-2.4238,-2.422,-2.4053,-2.3786,-2.287,-2.2509,-2.2097,-2.1017,-1.9852,-1.9124,-1.8419,-1.7514,-1.6747,-1.6486,-1.6239,-1.6206,-1.6179,-1.6052,-1.5905,-1.5858,-1.5832,-1.5825,-1.5825,-1.5825,-1.5825,-1.5825,-1.5825,-1.5825,-1.5825,-1.5825,-1.5825,-1.5825,-1.5818,-1.5818,-1.5778,-1.5825,-1.573,-1.5582,-1.5104,-1.3898,-1.2947,-1.2218,-1.1119,-0.9839,-0.9056,-0.8494,-0.8181,-0.7928,-0.7801,-0.7746,-0.7702,-0.7706,-0.7688,-0.7613,-0.7506,-0.7444,-3.4691,-3.4619,-3.4618,-3.395,-3.3193,-3.3059,-3.2482,-3.1728,-3.2538,-3.2889,-3.2398,-3.0805,-3.0128,-2.9937,-2.9406,-2.9313,-2.9609,-3.0029,-3.0322,-3.0234,-3.0713,-3.0889,-3.0898,-3.0898,-3.0898,-3.0898,-3.0898,-3.0898,-3.0898,-3.0898,-3.0898,-3.0898,-3.0898,-3.0898,-3.0898,-3.0898,-3.0889,-3.0879,-3.0791,-3.0723,-3.0762,-3.081,-3.082,-3.0732,-3.0752,-3.0791,-3.082,-3.0752,-3.0674,-3.0225,-2.9766,-2.917,-2.798,-2.6816,-2.5635,-2.4952,-2.459,-2.4325,-2.4238,-2.4211,-2.4211,-2.3845,-2.3138,-2.2266,-2.1861,-2.1344,-2.0261,-1.9213,-1.8442,-1.8075,-1.731,-1.7072,-1.6847,-1.6627,-1.6513,-1.6453,-1.6333,-1.6139,-1.5945,-1.5905,-1.5825,-1.5825,-1.5825,-1.5825,-1.5825,-1.5825,-1.5825,-1.5825,-1.5825,-1.5825,-1.5825,-1.5825,-1.5825,-1.5825,-1.5825,-1.5683,-1.535,-1.4698,-1.3567,-1.2839,-1.2259,-1.0965,-0.9422,-0.8845,-0.8331,-0.8171,-0.7972,-0.7875,-0.7806,-0.7899,-0.7889,-0.7845,-0.7777,-0.7699,-0.7594,-3.3657,-3.3563,-3.2853,-3.2524,-3.2468,-3.1777,-3.1499,-3.1513,-3.0908,-3.0742,-3.0587,-3.0141,-2.9469,-2.8959,-2.8977,-2.8975,-2.917,-2.9697,-3.0117,-3.0283,-3.0596,-3.0781,-3.0879,-3.0859,-3.0889,-3.0898,-3.0898,-3.0898,-3.0898,-3.0898,-3.0898,-3.0898,-3.0898,-3.0898,-3.0898,-3.0898,-3.0889,-3.0879,-3.0664,-3.0508,-3.0449,-3.0332,-3.0264,-3.0156,-3.0127,-3.0391,-3.0508,-3.0713,-3.0537,-3.0234,-3.0039,-2.916,-2.7901,-2.6763,-2.6012,-2.5535,-2.4836,-2.4523,-2.4358,-2.4312,-2.4339,-2.39,-2.3164,-2.2072,-2.1191,-2.0467,-1.9583,-1.8582,-1.79,-1.7594,-1.7403,-1.73,-1.7215,-1.7014,-1.6814,-1.6714,-1.6607,-1.6339,-1.6072,-1.5965,-1.5865,-1.5825,-1.5825,-1.5825,-1.5825,-1.5825,-1.5825,-1.5825,-1.5825,-1.5825,-1.5825,-1.5825,-1.5825,-1.5825,-1.5825,-1.5635,-1.5302,-1.4573,-1.3584,-1.2915,-1.2198,-1.0636,-0.9027,-0.863,-0.8259,-0.8113,-0.8011,-0.8007,-0.7958,-0.7978,-0.7965,-0.7943,-0.7946,-0.7847,-0.7767,-3.3284,-3.3191,-3.2217,-3.1755,-3.1515,-3.0604,-3.0164,-3.0037,-2.9471,-2.9164,-2.9207,-2.9164,-2.8857,-2.8291,-2.8545,-2.8662,-2.8779,-2.9307,-2.9482,-2.9746,-3.0293,-3.0488,-3.0625,-3.0801,-3.0879,-3.0898,-3.0898,-3.0898,-3.0898,-3.0898,-3.0898,-3.0898,-3.0898,-3.0898,-3.0898,-3.0898,-3.0898,-3.0879,-3.0576,-3.0391,-3.0205,-3.0029,-2.9863,-2.9717,-2.9912,-3.0137,-3.0361,-3.0625,-3.0684,-3.0323,-2.9964,-2.8562,-2.7389,-2.6413,-2.575,-2.5224,-2.4794,-2.4684,-2.4587,-2.4569,-2.4556,-2.4079,-2.2808,-2.1612,-2.079,-2.0004,-1.8715,-1.7825,-1.7772,-1.7546,-1.7487,-1.7428,-1.7415,-1.7288,-1.7125,-1.6965,-1.6687,-1.6406,-1.6233,-1.6132,-1.5992,-1.5825,-1.5825,-1.5825,-1.5825,-1.5825,-1.5825,-1.5825,-1.5825,-1.5825,-1.5825,-1.5825,-1.5825,-1.5825,-1.5825,-1.5534,-1.5201,-1.4424,-1.3355,-1.2042,-1.0832,-0.9756,-0.8726,-0.8428,-0.8184,-0.8084,-0.7985,-0.7988,-0.7988,-0.7985,-0.7985,-0.7975,-0.7988,-0.7988,-0.788,-3.2985,-3.2778,-3.1796,-3.102,-3.037,-2.9399,-2.8754,-2.8367,-2.8325,-2.8344,-2.8398,-2.8398,-2.8301,-2.8301,-2.8301,-2.8301,-2.8476,-2.8945,-2.9004,-2.9248,-2.9893,-3.0215,-3.0469,-3.0654,-3.081,-3.0898,-3.0898,-3.0898,-3.0898,-3.0898,-3.0898,-3.0898,-3.0898,-3.0898,-3.0898,-3.0898,-3.0898,-3.085,-3.0674,-3.0508,-3.0205,-2.9844,-2.9658,-2.9717,-2.9912,-3.0137,-3.0283,-3.0557,-3.081,-3.0316,-2.9574,-2.8138,-2.7012,-2.6141,-2.5526,-2.4978,-2.4978,-2.484,-2.4854,-2.5014,-2.4884,-2.4204,-2.2476,-2.1238,-2.0467,-1.9324,-1.803,-1.7648,-1.7595,-1.7589,-1.7575,-1.7562,-1.7549,-1.7522,-1.7353,-1.7159,-1.682,-1.6526,-1.6393,-1.6286,-1.6072,-1.5879,-1.5825,-1.5825,-1.5832,-1.5832,-1.5825,-1.5825,-1.5825,-1.5825,-1.5825,-1.5825,-1.5825,-1.5825,-1.5635,-1.5296,-1.4867,-1.3547,-1.2387,-1.0877,-0.9608,-0.8973,-0.8581,-0.8333,-0.8134,-0.8038,-0.7988,-0.7988,-0.7988,-0.7988,-0.7988,-0.7988,-0.7988,-0.7988,-0.7988,-3.1546,-3.0708,-2.9709,-2.8986,-2.8449,-2.7733,-2.758,-2.7855,-2.8154,-2.8301,-2.8301,-2.8301,-2.8301,-2.8301,-2.8301,-2.8301,-2.8359,-2.8691,-2.8867,-2.9082,-2.9736,-3.0049,-3.0322,-3.0625,-3.083,-3.0898,-3.0898,-3.0898,-3.0898,-3.0898,-3.0898,-3.0898,-3.0898,-3.0898,-3.0898,-3.0898,-3.0889,-3.083,-3.0615,-3.0391,-3.0332,-2.999,-2.9629,-2.9658,-2.9785,-2.9834,-3.0,-3.0508,-3.0587,-3.0142,-2.9155,-2.7855,-2.6823,-2.6033,-2.5494,-2.5111,-2.5111,-2.513,-2.5142,-2.5372,-2.5215,-2.4053,-2.247,-2.1127,-2.0121,-1.8801,-1.7934,-1.7702,-1.7642,-1.7615,-1.7602,-1.7582,-1.7569,-1.7569,-1.7494,-1.7353,-1.7146,-1.678,-1.654,-1.6326,-1.6079,-1.5932,-1.5784,-1.5845,-1.5865,-1.5852,-1.5825,-1.5825,-1.5825,-1.5825,-1.5825,-1.5778,-1.5778,-1.5207,-1.4771,-1.4723,-1.4238,-1.2872,-1.1507,-1.0145,-0.9167,-0.8726,-0.8333,-0.8184,-0.8084,-0.7988,-0.7988,-0.7988,-0.7988,-0.7988,-0.7988,-0.7988,-0.7988,-0.7988,-0.7988]},{"header":{"parameterUnit":"m.s-1","parameterCategory":1,"la1":31.0,"la2":29.5877,"lo1":-88.7671,"lo2":-86.6584,"dy":0.0162,"dx":0.0185,"nx":115,"ny":88,"refTime":"2023-03-19T12:00:00:Z","depth":0,"parameterNumber":3,"parameterNumberName":"V-component_of_WINDS"},"data":[0.0,0.0,0.0,0.0,0.0,0.0,0.0,0.0,0.0,0.0,0.0,0.0,0.0,0.0,0.0,0.0,0.0,0.0,0.0,0.0,0.0,0.0,0.0,0.0,0.0,0.0,0.0,0.0,0.0,0.0,0.0,0.0,0.0,0.0,0.0,0.0,0.0,0.0,0.0,0.0,0.0,0.0,0.0,0.0,0.0,0.0,0.0,0.0,0.0,0.0,0.0,0.0,0.0,0.0,0.0,0.0,0.0,0.0,0.0,0.0,0.0,0.0,0.0,0.0,0.0,0.0,0.0,0.0,0.0,0.0,0.0,0.0,0.0,0.0,0.0,0.0,0.0,0.0,0.0,0.0,0.0,0.0,0.0,0.0,0.0,0.0,0.0,0.0,0.0,0.0,0.0,0.0,0.0,0.0,0.0,0.0,0.0,0.0,0.0,0.0,0.0,0.0,0.0,0.0,0.0,0.0,0.0,0.0,0.0,0.0,0.0,0.0,0.0,0.0,0.0,0.0,0.0,0.0,0.0,0.0,0.0,0.0,0.0,0.0,0.0,0.0,0.0,0.0,0.0,0.0,0.0,0.0,0.0,0.0,0.0,0.0,0.0,0.0,0.0,0.0,0.0,0.0,0.0,0.0,0.0,0.0,0.0,0.0,0.0,0.0,0.0,0.0,0.0,0.0,0.0,0.0,0.0,0.0,0.0,0.0,0.0,0.0,0.0,0.0,0.0,0.0,0.0,0.0,0.0,0.0,0.0,0.0,0.0,0.0,0.0,0.0,0.0,0.0,0.0,0.0,0.0,0.0,0.0,0.0,0.0,0.0,0.0,0.0,0.0,0.0,0.0,0.0,0.0,0.0,0.0,0.0,0.0,0.0,0.0,0.0,0.0,0.0,0.0,0.0,0.0,0.0,0.0,0.0,0.0,0.0,0.0,0.0,0.0,0.0,0.0,0.0,0.0,0.0,0.0,0.0,0.0,0.0,0.0,0.0,0.0,0.0,0.0,0.0,0.0,0.0,0.0,0.0,0.0,0.0,0.0,0.0,0.0,0.0,0.0,0.0,0.0,0.0,0.0,0.0,0.0,0.0,0.0,0.0,0.0,0.0,0.0,0.0,0.0,0.0,0.0,0.0,0.0,0.0,0.0,0.0,0.0,0.0,0.0,0.0,0.0,0.0,0.0,0.0,0.0,0.0,0.0,0.0,0.0,0.0,0.0,0.0,0.0,0.0,0.0,0.0,0.0,0.0,0.0,0.0,0.0,0.0,0.0,0.0,0.0,0.0,0.0,0.0,0.0,0.0,0.0,0.0,0.0,0.0,0.0,0.0,0.0,0.0,0.0,0.0,0.0,0.0,0.0,0.0,0.0,0.0,0.0,0.0,0.0,0.0,0.0,0.0,0.0,0.0,0.0,0.0,0.0,0.0,0.0,0.0,0.0,0.0,0.0,0.0,0.0,0.0,0.0,0.0,0.0,0.0,0.0,0.0,0.0,0.0,0.0,0.0,0.0,0.0,0.0,0.0,0.0,0.0,0.0,0.0,0.0,0.0,0.0,0.0,0.0,0.0,0.0,0.0,0.0,0.0,0.0,0.0,0.0,0.0,0.0,0.0,0.0,0.0,0.0,0.0,0.0,0.0,0.0,0.0,0.0,0.0,0.0,0.0,0.0,0.0,0.0,0.0,0.0,0.0,0.0,0.0,0.0,0.0,0.0,0.0,0.0,0.0,0.0,0.0,0.0,0.0,0.0,0.0,0.0,0.0,0.0,0.0,0.0,0.0,0.0,0.0,0.0,0.0,0.0,0.0,0.0,0.0,0.0,0.0,0.0,0.0,0.0,0.0,0.0,0.0,0.0,0.0,0.0,0.0,0.0,0.0,0.0,0.0,0.0,0.0,0.0,0.0,0.0,0.0,0.0,0.0,0.0,0.0,0.0,0.0,0.0,0.0,0.0,0.0,0.0,0.0,0.0,0.0,0.0,0.0,0.0,0.0,0.0,0.0,0.0,0.0,0.0,0.0,0.0,0.0,0.0,0.0,0.0,0.0,0.0,0.0,0.0,0.0,0.0,0.0,0.0,0.0,0.0,0.0,0.0,0.0,0.0,0.0,0.0,0.0,0.0,0.0,0.0,0.0,0.0,0.0,0.0,0.0,0.0,0.0,0.0,0.0,0.0,0.0,0.0,0.0,0.0,0.0,0.0,0.0,0.0,0.0,0.0,0.0,0.0,0.0,0.0,0.0,0.0,0.0,0.0,0.0,0.0,0.0,0.0,0.0,0.0,0.0,0.0,0.0,0.0,0.0,0.0,0.0,0.0,0.0,0.0,0.0,0.0,0.0,0.0,0.0,0.0,0.0,0.0,0.0,0.0,0.0,0.0,0.0,0.0,0.0,0.0,0.0,0.0,0.0,0.0,0.0,0.0,0.0,0.0,0.0,0.0,0.0,0.0,0.0,0.0,0.0,0.0,0.0,0.0,0.0,0.0,0.0,0.0,0.0,0.0,0.0,0.0,0.0,0.0,0.0,0.0,0.0,0.0,0.0,0.0,0.0,0.0,0.0,0.0,0.0,0.0,0.0,0.0,0.0,0.0,0.0,0.0,0.0,0.0,0.0,0.0,0.0,0.0,0.0,0.0,0.0,0.0,0.0,0.0,0.0,0.0,0.0,0.0,0.0,0.0,0.0,0.0,0.0,0.0,0.0,0.0,0.0,0.0,0.0,0.0,0.0,0.0,0.0,0.0,0.0,0.0,0.0,0.0,0.0,0.0,0.0,0.0,0.0,0.0,0.0,0.0,0.0,0.0,0.0,0.0,0.0,0.0,0.0,0.0,0.0,0.0,0.0,0.0,0.0,0.0,0.0,0.0,0.0,0.0,0.0,0.0,0.0,0.0,0.0,0.0,0.0,0.0,0.0,0.0,0.0,0.0,0.0,0.0,0.0,0.0,0.0,0.0,0.0,0.0,0.0,0.0,0.0,0.0,0.0,0.0,0.0,0.0,0.0,0.0,0.0,0.0,0.0,0.0,0.0,0.0,0.0,0.0,0.0,0.0,0.0,0.0,0.0,0.0,0.0,0.0,0.0,0.0,0.0,0.0,0.0,0.0,0.0,0.0,0.0,0.0,0.0,0.0,0.0,0.0,0.0,0.0,0.0,0.0,0.0,0.0,0.0,0.0,0.0,0.0,0.0,0.0,0.0,0.0,0.0,0.0,0.0,0.0,0.0,0.0,0.0,0.0,0.0,0.0,0.0,0.0,0.0,0.0,0.0,0.0,0.0,0.0,0.0,0.0,0.0,0.0,0.0,0.0,0.0,0.0,0.0,0.0,0.0,0.0,0.0,0.0,0.0,0.0,0.0,0.0,0.0,0.0,0.0,0.0,0.0,0.0,0.0,0.0,0.0,0.0,0.0,0.0,0.0,0.0,0.0,0.0,0.0,0.0,0.0,0.0,0.0,0.0,0.0,0.0,0.0,0.0,0.0,0.0,0.0,0.0,0.0,0.0,0.0,0.0,0.0,0.0,0.0,0.0,0.0,0.0,0.0,0.0,0.0,0.0,0.0,0.0,0.0,0.0,0.0,0.0,0.0,0.0,0.0,0.0,0.0,0.0,0.0,0.0,0.0,0.0,0.0,0.0,0.0,0.0,0.0,0.0,0.0,0.0,0.0,0.0,0.0,0.0,0.0,0.0,0.0,0.0,0.0,0.0,0.0,0.0,0.0,0.0,0.0,0.0,0.0,0.0,0.0,0.0,0.0,0.0,0.0,0.0,0.0,0.0,0.0,0.0,0.0,0.0,0.0,0.0,0.0,0.0,0.0,0.0,0.0,0.0,0.0,0.0,0.0,0.0,0.0,0.0,0.0,0.0,0.0,0.0,0.0,0.0,0.0,0.0,0.0,0.0,0.0,0.0,0.0,0.0,0.0,0.0,0.0,0.0,0.0,0.0,0.0,0.0,0.0,0.0,0.0,0.0,0.0,0.0,0.0,0.0,0.0,0.0,0.0,0.0,0.0,0.0,0.0,0.0,0.0,0.0,0.0,0.0,0.0,0.0,0.0,0.0,0.0,0.0,0.0,0.0,0.0,0.0,0.0,0.0,0.0,0.0,0.0,0.0,0.0,0.0,0.0,0.0,0.0,0.0,0.0,0.0,0.0,0.0,0.0,0.0,0.0,0.0,0.0,0.0,0.0,0.0,0.0,0.0,0.0,0.0,0.0,0.0,0.0,0.0,0.0,0.0,0.0,0.0,0.0,0.0,0.0,0.0,0.0,0.0,0.0,1.0658,0.0,0.0,0.0,0.0,0.0,0.0,0.0,0.0,0.0,0.0,0.0,0.0,0.0,0.0,0.0,0.0,0.0,0.0,0.0,0.0,0.0,0.0,0.0,0.0,0.0,0.0,0.0,0.0,0.0,0.0,0.0,0.0,0.0,0.0,0.0,0.0,0.0,0.0,0.0,0.0,0.0,0.0,0.0,0.0,0.0,0.0,0.0,0.0,0.0,0.0,0.0,0.0,0.0,0.0,0.0,0.0,0.0,0.0,0.0,0.0,0.0,0.0,0.0,0.0,0.0,0.0,0.0,0.0,0.0,0.0,0.0,0.0,0.0,0.0,0.0,0.0,0.0,0.0,0.0,0.0,0.0,0.0,0.0,0.0,0.0,0.0,0.0,0.0,0.0,0.0,0.0,0.0,0.0,0.0,0.0,0.0,0.0,0.0,0.0,0.0,0.0,0.0,0.0,0.0,0.0,0.0,0.0,0.0,0.0,0.0,1.0791,1.0813,1.0825,1.0839,1.0861,0.0,0.0,0.0,0.0,0.0,0.0,0.0,0.0,0.0,0.0,0.0,0.0,0.0,0.0,0.0,0.0,0.0,0.0,0.0,0.0,0.0,0.0,0.0,0.0,0.0,0.0,0.0,0.0,0.0,0.0,0.0,0.0,0.0,0.0,0.0,0.0,0.0,0.0,0.0,0.0,0.0,0.0,0.0,0.0,0.0,0.0,0.0,0.0,0.0,0.0,0.0,0.0,0.0,0.0,0.0,0.0,0.0,0.0,0.0,0.0,0.0,0.0,0.0,0.0,0.0,0.0,0.0,0.0,0.0,0.0,0.0,0.0,0.0,0.0,0.0,0.0,0.0,0.0,0.0,0.0,0.0,0.0,0.0,0.0,0.0,0.0,0.0,0.0,0.0,0.0,0.0,0.0,0.0,0.0,0.0,0.0,0.0,0.0,0.0,0.0,0.0,0.0,0.0,0.0,0.0,0.0,0.0,0.0,0.0,0.0,0.0,0.0,1.1073,1.1085,1.1062,0.0,0.0,0.0,0.0,0.0,0.0,0.0,0.0,0.0,0.0,0.0,0.0,0.0,0.0,0.0,0.0,0.0,0.0,0.0,0.0,0.0,0.0,0.0,0.0,0.0,0.0,0.0,0.0,0.0,0.0,0.0,0.0,0.0,0.0,0.0,0.0,0.0,0.0,0.0,0.0,0.0,0.0,0.0,0.0,0.0,0.0,0.0,0.0,0.0,0.0,0.0,0.0,0.0,0.0,0.0,0.0,0.0,0.0,0.0,0.0,0.0,0.0,0.0,0.0,0.0,0.0,0.0,0.0,0.0,0.0,0.0,0.0,0.0,0.0,0.0,0.0,0.0,0.0,0.0,0.0,0.0,0.0,0.0,0.0,0.0,0.0,0.0,0.0,0.0,0.0,0.0,0.0,0.0,0.0,0.0,0.0,0.0,0.0,0.0,0.0,0.0,0.0,0.0,0.0,0.0,0.0,0.0,0.0,0.0,0.0,1.1273,1.127,1.1342,0.0,1.127,0.0,0.0,0.0,0.0,0.0,0.0,0.0,0.0,0.0,0.0,0.0,0.0,0.0,0.0,0.0,0.0,0.0,0.0,0.0,0.0,0.0,0.0,0.0,0.0,0.0,0.0,0.0,0.0,0.0,0.0,0.0,0.0,0.0,0.0,0.0,0.0,0.0,0.0,0.0,0.0,0.0,0.0,0.0,0.0,0.0,0.0,0.0,0.0,0.0,0.0,0.0,0.0,0.0,0.0,0.0,0.0,0.0,0.0,0.0,0.0,0.0,0.0,0.0,0.0,0.0,0.0,0.0,0.0,0.0,0.0,0.0,0.0,0.0,0.0,0.0,0.0,0.0,0.0,0.0,0.0,0.0,0.0,0.0,0.0,0.0,0.0,0.0,0.0,0.0,0.0,0.0,0.0,0.0,0.0,0.0,0.0,0.0,0.0,0.0,0.0,0.0,0.0,0.0,0.0,0.0,0.0,0.0,0.0,0.0,0.0,1.1478,1.1478,1.1497,1.1474,0.0,0.0,0.0,0.0,0.0,0.0,0.0,0.0,0.0,0.0,0.0,0.0,0.0,0.0,0.0,0.0,0.0,0.0,0.0,0.0,0.0,0.0,0.0,0.0,0.0,0.0,0.0,0.0,0.0,0.0,0.0,0.0,0.0,0.0,0.0,0.0,0.0,0.0,0.0,0.0,0.0,0.0,0.0,0.0,0.0,0.0,0.0,0.0,0.0,0.0,0.0,0.0,0.0,0.0,0.0,0.0,0.0,0.0,0.0,0.0,0.0,0.0,0.0,0.0,0.0,0.0,0.0,0.0,0.0,0.0,0.0,0.0,0.0,0.0,0.0,0.0,0.0,0.0,0.0,0.0,0.0,0.0,0.0,0.0,0.0,0.0,0.0,0.0,0.0,0.0,0.0,0.0,0.0,0.0,0.0,0.0,0.0,0.0,0.0,0.0,0.0,0.0,0.0,0.0,0.0,0.0,0.0,0.0,0.0,0.0,1.1822,1.1967,1.1993,1.1996,1.1867,1.1582,0.0,0.0,0.0,0.0,0.0,0.0,0.0,0.0,0.0,0.0,0.0,0.0,0.0,0.0,0.0,0.0,0.0,0.0,0.0,0.0,0.0,0.0,0.0,0.0,0.0,0.0,0.0,0.0,0.0,0.0,0.0,0.0,0.0,0.0,0.0,0.0,0.0,0.0,0.0,0.0,0.0,0.0,0.0,0.0,0.0,0.0,0.0,0.0,0.0,0.0,0.0,0.0,0.0,0.0,0.0,0.0,0.0,0.0,0.0,0.0,0.0,0.0,0.0,0.0,0.0,0.0,0.0,0.0,0.0,0.0,0.0,0.0,0.0,0.0,0.0,0.0,0.0,0.0,0.0,0.0,0.0,0.0,0.0,0.0,0.0,0.0,0.0,0.0,0.0,0.0,0.0,0.0,0.0,0.0,0.0,0.0,0.0,0.0,0.0,0.0,0.0,0.0,0.0,0.0,0.0,0.0,0.0,0.0,1.1737,1.2452,1.2878,1.2921,1.2947,1.2617,0.0,0.0,0.0,0.0,0.0,0.0,0.0,0.0,0.0,0.0,0.0,0.0,0.0,0.0,0.0,0.0,0.0,0.0,0.0,0.0,0.0,0.0,0.0,0.0,0.0,0.0,0.0,0.0,0.0,0.0,0.0,0.0,0.0,0.0,0.0,0.0,0.0,0.0,0.0,0.0,0.0,0.0,0.0,0.0,0.0,0.0,0.0,0.0,0.0,0.0,0.0,0.0,0.0,0.0,0.0,0.0,0.0,0.0,0.0,0.0,0.0,0.0,0.0,0.0,0.0,0.0,0.0,0.0,0.0,0.0,0.0,0.0,0.0,0.0,0.0,0.0,0.0,0.0,0.0,0.0,0.0,0.0,0.0,0.0,0.0,0.0,0.0,0.0,0.0,0.0,0.0,0.0,0.0,0.0,0.0,0.0,0.0,0.0,0.0,0.0,0.0,0.0,0.0,0.0,0.0,0.0,0.0,0.0,0.0,1.2539,1.3234,1.363,1.3639,1.3217,1.2894,0.0,0.0,0.0,0.0,0.0,0.0,0.0,0.0,0.0,0.0,0.0,0.0,0.0,0.0,0.0,0.0,0.0,0.0,0.0,0.0,0.0,0.0,0.0,0.0,0.0,0.0,0.0,0.0,0.0,0.0,0.0,0.0,0.0,0.0,0.0,0.0,0.0,0.0,0.0,0.0,0.0,0.0,0.0,0.0,0.0,0.0,0.0,0.0,0.0,0.0,0.0,0.0,0.0,0.0,0.0,0.0,0.0,0.0,0.0,0.0,0.0,0.0,0.0,0.0,0.0,0.0,0.0,0.0,0.0,0.0,0.0,0.0,0.0,0.0,0.0,0.0,0.0,0.0,0.0,0.0,0.0,0.0,0.0,0.0,0.0,0.0,0.0,0.0,0.0,0.0,0.0,0.0,0.0,0.0,0.0,0.0,0.0,0.0,0.0,0.0,0.0,0.0,0.0,0.0,0.0,0.0,0.0,0.0,0.0,1.4008,0.0,1.4761,1.4745,1.4354,1.3816,0.0,0.0,0.0,0.0,0.0,0.0,0.0,0.0,0.0,0.0,0.0,0.0,0.0,0.0,0.0,0.0,0.0,0.0,0.0,0.0,0.0,0.0,0.0,0.0,0.0,0.0,0.0,0.0,0.0,0.0,0.0,0.0,0.0,0.0,0.0,0.0,0.0,0.0,0.0,0.0,0.0,0.0,0.0,0.0,0.0,0.0,0.0,0.0,0.0,0.0,0.0,0.0,0.0,0.0,0.0,0.0,0.0,0.0,0.0,0.0,0.0,0.0,0.0,0.0,0.0,0.0,0.0,0.0,0.0,0.0,0.0,0.0,0.0,0.0,0.0,0.0,0.0,0.0,0.0,0.0,0.0,0.0,0.0,0.0,0.0,0.0,0.0,0.0,0.0,0.0,0.0,0.0,0.0,0.0,0.0,0.0,0.0,0.0,0.0,0.0,0.0,0.0,0.0,0.0,0.0,0.0,0.0,0.0,1.4203,1.61,1.6365,1.6421,1.6316,1.6409,1.5493,0.0,0.0,0.0,0.0,0.0,0.0,0.0,0.0,0.0,0.0,0.0,0.0,0.0,0.0,0.0,0.0,0.0,0.0,0.0,0.0,0.0,0.0,0.0,0.0,0.0,0.0,0.0,0.0,0.0,0.0,0.0,0.0,0.0,0.0,0.0,0.0,0.0,0.0,0.0,0.0,0.0,0.0,0.0,0.0,0.0,0.0,0.0,0.0,0.0,0.0,0.0,0.0,0.0,0.0,0.0,0.0,0.0,0.0,0.0,0.0,0.0,0.0,0.0,0.0,0.0,0.0,0.0,0.0,0.0,0.0,0.0,0.0,0.0,0.0,0.0,0.0,0.0,0.0,0.0,0.0,0.0,0.0,0.0,0.0,0.0,0.0,0.0,0.0,0.0,0.0,0.0,0.0,0.0,0.0,0.0,0.0,0.0,0.0,0.0,0.0,0.0,0.0,0.0,0.0,0.0,0.0,0.0,0.0,0.0,1.7116,1.8093,1.8592,1.8561,1.7728,1.6503,0.0,0.0,0.0,0.0,0.0,0.0,0.0,0.0,0.0,0.0,0.0,0.0,0.0,0.0,0.0,0.0,0.0,0.0,0.0,0.0,0.0,0.0,0.0,0.0,0.0,0.0,0.0,0.0,0.0,0.0,0.0,0.0,0.0,0.0,0.0,0.0,0.0,0.0,0.0,0.0,0.0,0.0,0.0,0.0,0.0,0.0,0.0,0.0,0.0,0.0,0.0,0.0,0.0,0.0,0.0,0.0,0.0,0.0,0.0,0.0,0.0,0.0,0.0,0.0,0.0,0.0,0.0,0.0,0.0,0.0,0.0,0.0,0.0,0.0,0.0,0.0,0.0,0.0,0.0,0.0,0.0,0.0,0.0,0.0,0.0,0.0,0.0,0.0,0.0,0.0,0.0,0.0,0.0,0.0,0.0,0.0,0.0,0.0,0.0,0.0,0.0,0.0,0.0,0.0,0.0,0.0,0.0,0.0,0.0,2.1071,2.1133,2.1164,2.1198,1.9925,1.836,1.6498,0.0,0.0,0.0,0.0,0.0,0.0,0.0,0.0,0.0,0.0,0.0,0.0,0.0,0.0,0.0,0.0,0.0,0.0,0.0,0.0,0.0,0.0,0.0,0.0,0.0,0.0,0.0,0.0,0.0,0.0,0.0,0.0,0.0,0.0,0.0,0.0,0.0,0.0,0.0,0.0,0.0,0.0,0.0,0.0,0.0,0.0,0.0,0.0,0.0,0.0,0.0,0.0,0.0,0.0,0.0,0.0,0.0,0.0,0.0,0.0,0.0,0.0,0.0,0.0,0.0,0.0,0.0,0.0,0.0,0.0,0.0,0.0,0.0,0.0,0.0,0.0,0.0,0.0,0.0,0.0,0.0,0.0,0.0,0.0,0.0,0.0,0.0,0.0,0.0,0.0,0.0,0.0,0.0,0.0,0.0,0.0,0.0,0.0,0.0,0.0,0.0,0.0,0.0,0.0,0.0,0.0,0.0,0.0,2.7288,2.5404,2.4314,2.4116,2.2814,2.0831,0.0,0.0,0.0,0.0,0.0,0.0,0.0,0.0,0.0,0.0,0.0,0.0,0.0,0.0,0.0,0.0,0.0,0.0,0.0,0.0,0.0,0.0,0.0,0.0,0.0,0.0,0.0,0.0,0.0,0.0,0.0,0.0,0.0,0.0,0.0,0.0,0.0,0.0,0.0,0.0,0.0,0.0,0.0,0.0,0.0,0.0,0.0,0.0,0.0,0.0,0.0,0.0,0.0,0.0,0.0,0.0,0.0,0.0,0.0,0.0,0.0,0.0,0.0,0.0,0.0,0.0,0.0,0.0,0.0,0.0,0.0,0.0,0.0,0.0,0.0,0.0,0.0,0.0,0.0,0.0,0.0,0.0,0.0,0.0,0.0,0.0,0.0,0.0,0.0,0.0,0.0,0.0,0.0,0.0,0.0,0.0,0.0,0.0,0.0,0.0,0.0,0.0,0.0,0.0,0.0,0.0,0.0,0.0,0.0,3.014,3.106,3.0064,2.7094,2.4859,2.2161,0.0,0.0,0.0,0.0,0.0,0.0,0.0,0.0,0.0,0.0,0.0,0.0,0.0,0.0,0.0,0.0,0.0,0.0,0.0,0.0,0.0,0.0,0.0,0.0,0.0,0.0,0.0,0.0,0.0,0.0,0.0,0.0,0.0,0.0,0.0,0.0,0.0,0.0,0.0,0.0,0.0,0.0,0.0,0.0,0.0,0.0,0.0,0.0,0.0,0.0,0.0,0.0,0.0,0.0,0.0,0.0,0.0,0.0,0.0,0.0,0.0,0.0,0.0,0.0,0.0,0.0,0.0,0.0,0.0,0.0,0.0,0.0,0.0,0.0,0.0,0.0,0.0,0.0,0.0,0.0,0.0,0.0,0.0,0.0,0.0,0.0,0.0,0.0,0.0,0.0,0.0,0.0,0.0,0.0,0.0,0.0,0.0,0.0,0.0,0.0,0.0,0.0,0.0,0.0,0.0,0.0,0.0,0.0,2.9636,3.3169,3.4693,3.4293,3.1954,2.84,2.4863,0.0,0.0,0.0,0.0,0.0,0.0,0.0,0.0,0.0,0.0,0.0,0.0,0.0,0.0,0.0,0.0,0.0,0.0,0.0,0.0,0.0,0.0,0.0,0.0,0.0,0.0,0.0,0.0,0.0,0.0,0.0,0.0,0.0,0.0,0.0,0.0,0.0,0.0,0.0,0.0,0.0,0.0,0.0,0.0,0.0,0.0,0.0,0.0,0.0,0.0,0.0,0.0,0.0,0.0,0.0,0.0,0.0,0.0,0.0,0.0,0.0,0.0,0.0,0.0,0.0,0.0,0.0,0.0,0.0,0.0,0.0,0.0,0.0,0.0,0.0,0.0,0.0,0.0,0.0,0.0,0.0,0.0,0.0,0.0,0.0,0.0,0.0,0.0,0.0,0.0,0.0,0.0,0.0,0.0,0.0,0.0,0.0,0.0,0.0,0.0,0.0,0.0,0.0,0.0,0.0,0.0,0.0,0.0,3.2309,3.5968,3.6954,3.7378,3.7137,3.2297,2.8035,0.0,0.0,0.0,0.0,0.0,0.0,0.0,0.0,0.0,0.0,0.0,0.0,0.0,0.0,0.0,0.0,0.0,0.0,0.0,0.0,0.0,0.0,0.0,0.0,0.0,0.0,0.0,0.0,0.0,0.0,0.0,0.0,0.0,0.0,0.0,0.0,0.0,0.0,0.0,0.0,0.0,0.0,0.0,0.0,0.0,0.0,0.0,0.0,0.0,0.0,0.0,0.0,0.0,0.0,0.0,0.0,0.0,0.0,0.0,0.0,0.0,0.0,0.0,0.0,0.0,0.0,0.0,0.0,0.0,0.0,0.0,0.0,0.0,0.0,0.0,0.0,0.0,0.0,0.0,0.0,0.0,0.0,0.0,0.0,0.0,0.0,0.0,0.0,0.0,0.0,0.0,0.0,0.0,0.0,0.0,0.0,0.0,0.0,0.0,0.0,0.0,0.0,0.0,0.0,0.0,0.0,0.0,0.0,3.3421,3.7652,3.8925,3.9192,3.8438,3.3304,2.8902,0.0,0.0,0.0,0.0,0.0,0.0,0.0,0.0,0.0,0.0,0.0,0.0,0.0,0.0,0.0,0.0,0.0,0.0,0.0,0.0,0.0,0.0,0.0,0.0,0.0,0.0,0.0,0.0,0.0,0.0,0.0,0.0,0.0,0.0,0.0,0.0,0.0,0.0,0.0,0.0,0.0,0.0,0.0,0.0,0.0,0.0,0.0,0.0,0.8071,0.0,0.0,0.0,0.0,0.0,0.0,0.0,0.0,0.0,0.0,0.0,0.0,0.0,0.0,0.0,0.0,0.0,0.0,0.0,0.0,0.0,0.0,0.0,0.0,0.0,0.0,0.0,0.0,0.0,0.0,0.0,0.0,0.0,0.0,0.0,0.0,0.0,0.0,0.0,0.0,0.0,0.0,0.0,0.0,0.0,0.0,0.0,0.0,0.0,0.0,0.0,0.0,0.0,0.0,0.0,0.0,0.0,0.0,0.0,3.5531,3.8989,4.012,4.0274,3.9292,3.4558,3.0354,0.0,0.0,0.0,0.0,0.0,0.0,0.0,0.0,0.0,0.0,0.0,0.0,0.0,0.0,0.0,0.0,0.0,0.0,0.0,0.0,0.0,0.0,0.0,0.0,0.0,0.0,0.0,0.0,0.0,0.0,0.0,0.0,0.0,0.0,0.0,0.0,0.0,0.0,0.0,0.0,0.0,0.0,0.0,0.0,0.0,0.0,0.0,0.0,0.0,0.0,0.0,0.0,0.0,0.0,0.0,0.0,0.0,0.0,0.0,0.0,0.0,0.0,0.0,0.0,0.0,0.0,0.0,0.0,0.0,0.0,0.0,0.0,0.0,0.0,0.0,0.0,0.0,0.0,0.0,0.0,0.0,0.0,0.0,0.0,0.0,0.0,0.0,0.0,0.0,0.0,0.0,0.0,0.0,0.0,0.0,0.0,0.0,0.0,0.0,0.0,0.0,0.0,0.0,0.0,0.0,0.0,0.0,3.351,3.7452,4.007,4.0769,4.0739,4.0055,3.564,3.1828,2.8775,0.0,0.0,0.0,0.0,0.0,0.0,0.0,0.0,0.0,0.0,0.0,0.0,0.0,0.0,0.0,0.0,0.0,0.0,0.0,0.0,0.0,0.0,0.0,0.0,0.0,0.0,0.0,0.0,0.0,0.0,0.0,0.0,0.0,0.0,0.0,0.0,0.0,0.0,0.6077,0.7389,0.0,0.0,0.0,0.0,0.0,0.0,0.0,0.0,1.0023,0.0,0.0,0.0,0.0,0.0,0.0,0.0,0.0,0.0,0.0,0.0,0.0,0.0,0.0,0.0,0.0,0.0,0.0,0.0,0.0,0.0,0.0,0.0,0.0,0.0,0.0,0.0,0.0,0.0,0.0,0.0,0.0,0.0,0.0,0.0,0.0,0.0,0.0,0.0,0.0,0.0,0.0,0.0,0.0,0.0,0.0,0.0,0.0,0.0,0.0,0.0,0.0,0.0,0.0,0.0,0.0,3.0143,3.3645,3.7261,4.089,4.062,4.0323,3.9986,3.5795,3.2267,2.9667,0.0,0.0,0.0,0.0,0.0,0.0,0.0,0.0,0.0,0.0,0.0,0.0,0.0,0.0,0.0,0.0,0.0,0.0,0.0,0.0,0.0,0.0,0.0,0.0,0.0,0.0,0.0,0.0,0.0,0.0,0.0,0.0,0.0,0.0,0.0,0.0,0.0,0.0,0.0,0.9296,1.0316,0.0,0.0,0.0,0.0,0.0,0.0,0.0,0.0,1.0332,0.0,0.0,0.0,0.0,0.0,0.0,0.0,0.0,0.0,0.0,0.0,0.0,0.0,0.0,0.0,0.0,0.0,0.0,0.0,0.0,0.0,0.0,0.0,0.0,0.0,0.0,0.0,0.0,0.0,0.0,0.0,0.0,0.0,0.0,0.0,0.0,0.0,0.0,0.0,0.0,0.0,0.0,0.0,0.0,0.0,0.0,0.0,0.0,0.0,0.0,0.0,0.0,0.0,0.0,0.0,3.0733,3.4658,3.8032,4.0709,4.0548,3.997,3.9031,3.5088,3.1792,0.0,0.0,0.0,0.0,0.0,0.0,0.0,0.0,0.0,0.0,0.0,0.0,0.0,0.0,0.0,0.0,0.0,0.0,0.0,0.0,0.0,0.0,0.0,0.0,0.0,0.0,0.0,0.0,0.0,0.0,0.0,0.0,0.0,0.0,0.0,0.0,0.0,0.0,0.0,0.0,1.0342,1.1244,1.2352,0.0,0.0,0.0,0.0,0.0,0.0,1.1576,1.1375,0.0,0.0,0.0,0.0,0.0,0.0,0.0,0.0,0.0,0.0,0.0,0.0,0.0,0.0,0.0,0.0,0.0,0.0,0.0,0.0,0.0,0.0,0.0,0.0,0.0,0.0,0.0,0.0,0.0,0.0,0.0,0.0,0.0,0.0,0.0,0.0,0.0,0.0,0.0,0.0,0.0,0.0,0.0,0.0,0.0,0.0,0.0,0.0,0.0,0.0,0.0,0.0,0.0,0.0,0.0,3.0959,3.5427,3.859,4.0165,4.0274,3.948,3.7865,3.4337,3.1333,0.0,0.0,0.0,0.0,0.0,0.0,0.0,0.0,0.0,0.0,0.0,0.0,0.0,0.0,0.0,0.0,0.0,0.0,0.0,0.0,0.0,0.0,0.0,0.0,0.0,0.0,0.0,0.0,0.0,0.0,0.0,0.0,0.0,0.0,0.0,0.0,0.0,0.0,0.0,0.0,0.0,1.2401,1.3179,1.3075,0.0,0.0,0.0,0.0,1.2646,1.283,0.0,0.0,0.0,0.0,0.0,0.0,0.0,0.0,0.0,0.0,0.0,0.0,0.0,0.0,0.0,0.0,0.0,0.0,0.0,0.0,0.0,0.0,0.0,0.0,0.0,0.0,0.0,0.0,0.0,0.0,0.0,0.0,0.0,0.0,0.0,0.0,0.0,0.0,0.0,0.0,0.0,0.0,0.0,0.0,0.0,0.0,0.0,0.0,0.0,0.0,0.0,0.0,0.0,0.0,0.0,0.0,3.101,3.4904,3.7746,3.9336,3.9445,3.8708,3.7148,3.4128,3.1398,0.0,0.0,0.0,0.0,0.0,0.0,0.0,0.0,0.0,0.0,0.0,0.0,0.0,0.0,0.0,0.0,0.0,0.0,0.0,0.0,0.0,0.0,0.0,0.0,0.0,0.0,0.0,0.0,0.0,0.0,0.0,0.0,0.0,0.0,0.0,0.0,0.0,0.0,0.0,0.0,0.0,1.4824,1.5514,1.5036,1.4306,0.0,0.0,1.3515,1.3484,1.4062,0.0,0.0,0.0,0.0,0.0,0.0,0.0,0.0,0.0,0.0,0.0,0.0,0.0,0.0,0.0,0.0,0.0,0.0,0.0,0.0,0.0,0.0,0.0,0.0,0.0,0.0,0.0,0.0,0.0,0.0,0.0,0.0,0.0,0.0,0.0,0.0,0.0,0.0,0.0,0.0,0.0,0.0,0.0,0.0,0.0,0.0,0.0,0.0,0.0,0.0,0.0,0.0,0.0,0.0,0.0,2.8499,3.101,3.4453,3.7018,3.855,3.8216,3.7461,3.6338,3.3389,3.0728,0.0,0.0,0.0,0.0,0.0,0.0,0.0,0.0,0.0,0.0,0.0,0.0,0.0,0.0,0.0,0.0,0.0,0.0,0.0,0.0,0.0,0.0,0.0,0.0,0.0,0.0,0.0,0.0,0.0,0.0,0.0,0.0,0.0,0.0,0.0,0.0,0.0,0.0,0.0,0.0,0.0,0.0,1.602,1.6159,0.0,0.0,0.0,1.5471,1.5046,0.0,0.0,0.0,0.0,0.0,0.0,0.0,0.0,0.0,0.0,0.0,0.0,0.0,0.0,0.0,0.0,0.0,0.0,0.0,0.0,0.0,0.0,0.0,0.0,0.0,0.0,0.0,0.0,0.0,0.0,0.0,0.0,0.0,0.0,0.0,0.0,0.0,0.0,0.0,0.0,0.0,0.0,0.0,0.0,0.0,0.0,0.0,0.0,0.0,0.0,0.0,0.0,0.0,0.0,0.0,0.0,0.0,3.0993,3.4157,3.6441,3.776,3.7521,3.6784,3.5569,3.307,0.0,0.0,0.0,0.0,0.0,0.0,0.0,0.0,0.0,0.0,0.0,0.0,0.0,0.0,0.0,0.0,0.0,0.0,0.0,0.0,0.0,0.0,0.0,0.0,0.0,0.0,0.0,0.0,0.0,0.0,0.0,0.0,0.0,0.0,0.0,0.0,0.0,0.0,0.0,0.0,0.0,0.0,1.6282,1.6449,1.7244,1.7495,0.0,0.0,1.6947,1.6391,1.691,1.6696,0.0,0.0,0.0,0.0,0.0,0.0,0.0,0.0,0.0,0.0,0.0,0.0,0.0,0.0,0.0,0.0,0.0,0.0,0.0,0.0,0.0,0.0,0.0,0.0,0.0,0.0,0.0,0.0,0.0,0.0,0.0,0.0,0.0,0.0,0.0,0.0,0.0,0.0,0.0,0.0,0.0,0.0,0.0,0.0,0.0,0.0,0.0,0.0,0.0,0.0,0.0,0.0,0.0,0.0,0.0,3.1011,3.4157,3.6215,3.706,3.787,3.7242,3.5013,3.362,3.1395,0.0,0.0,0.0,0.0,0.0,0.0,0.0,0.0,0.0,0.0,0.0,0.0,0.0,0.0,0.0,0.0,0.0,0.0,0.0,0.0,0.0,0.0,0.0,0.0,0.0,0.0,0.0,0.0,0.0,0.0,0.0,0.0,0.0,0.0,0.0,0.0,0.0,0.0,0.0,0.0,0.0,1.8925,1.7422,1.8545,1.8964,0.0,0.0,1.7251,1.7152,1.7743,1.773,1.6264,0.0,0.0,0.0,0.0,0.0,0.0,0.0,0.0,0.0,0.0,0.0,0.0,0.0,0.0,0.0,0.0,0.0,0.0,0.0,0.0,0.0,0.0,0.0,0.0,0.0,0.0,0.0,0.0,0.0,0.0,0.0,0.0,0.0,0.0,0.0,0.0,0.0,0.0,0.0,0.0,0.0,0.0,0.0,0.0,0.0,0.0,0.0,0.0,0.0,0.0,0.0,0.0,0.0,2.8788,3.1777,3.4111,3.5967,3.732,3.7251,3.6506,3.5118,3.3237,3.1008,0.0,0.0,0.0,0.0,0.0,0.0,0.0,0.0,0.0,0.0,0.0,0.0,0.0,0.0,0.0,0.0,0.0,0.0,0.0,0.0,0.0,0.0,0.0,0.0,0.0,0.0,0.0,0.0,1.2934,1.233,1.1116,0.0,0.0,0.0,0.0,0.0,0.0,0.0,0.0,0.0,0.0,1.9157,1.9456,2.0026,0.0,0.0,1.9836,1.9786,1.8825,1.9272,1.9063,1.7185,1.6651,0.0,0.0,0.0,0.0,0.0,0.0,0.0,0.0,0.0,0.0,0.0,0.0,0.0,0.0,0.0,0.0,0.0,0.0,0.0,0.0,0.0,0.0,0.0,0.0,0.0,0.0,0.0,0.0,0.0,0.0,0.0,0.0,0.0,0.0,0.0,0.0,0.0,0.0,0.0,0.0,0.0,0.0,0.0,0.0,0.0,0.0,0.0,0.0,0.0,0.0,0.0,0.0,2.9102,3.2266,3.4023,3.5793,3.7577,3.7113,3.6362,3.5306,3.356,3.1394,0.0,0.0,0.0,0.0,0.0,0.0,0.0,0.0,0.0,0.0,0.0,0.0,0.0,0.0,0.0,0.0,0.0,0.0,0.0,0.0,0.0,0.0,0.0,0.0,0.0,0.0,0.0,0.0,1.459,1.3826,1.2355,0.0,0.0,0.0,0.0,0.0,0.0,0.0,0.0,0.0,0.0,2.0018,2.0849,2.1099,2.1119,2.0897,2.1281,2.1131,1.9833,2.0024,1.9723,1.7966,0.0,0.0,0.0,0.0,0.0,0.0,0.0,0.0,0.0,0.0,0.0,0.0,0.0,0.0,0.0,0.0,0.0,0.0,0.0,0.0,0.0,0.0,0.0,0.0,0.0,0.0,0.0,0.0,0.0,0.0,2.1864,0.0,0.0,0.0,0.0,0.0,0.0,0.0,0.0,0.0,0.0,0.0,0.0,0.0,0.0,0.0,0.0,0.0,0.0,0.0,0.0,0.0,0.0,2.9471,3.2266,3.3881,3.5631,3.7523,3.7775,3.7109,3.5563,3.486,3.2987,2.9706,0.0,0.0,0.0,0.0,0.0,0.0,0.0,0.0,0.0,0.0,0.0,0.0,0.0,0.0,0.0,0.0,0.0,0.0,0.0,0.0,0.0,0.0,0.0,0.0,0.0,0.0,1.6028,1.3199,1.1251,0.0,0.0,0.0,0.0,0.0,0.0,0.0,0.0,0.0,0.0,2.0857,2.2017,2.1245,2.1722,2.191,2.1139,2.0997,2.0654,1.9857,1.9745,1.9461,0.0,0.0,0.0,0.0,0.0,0.0,0.0,0.0,0.0,0.0,0.0,0.0,0.0,0.0,0.0,0.0,0.0,0.0,0.0,0.0,0.0,0.0,0.0,0.0,0.0,0.0,0.0,2.3996,2.5496,0.0,0.0,0.0,0.0,0.0,0.0,0.0,0.0,0.0,0.0,0.0,2.942,2.942,0.0,0.0,0.0,0.0,0.0,0.0,0.0,0.0,0.0,0.0,0.0,0.0,2.9557,3.259,3.3834,3.5448,3.7451,3.7613,3.7254,3.6517,3.5263,3.2806,2.9029,0.0,0.0,0.0,0.0,0.0,0.0,0.0,0.0,0.0,0.0,0.0,0.0,0.0,0.0,0.0,0.0,0.0,0.0,0.0,0.0,0.0,0.0,0.0,0.0,0.0,1.9093,0.0,0.0,0.0,0.0,0.0,0.0,0.0,0.0,0.0,0.0,0.0,2.0051,2.1003,2.1775,2.2327,2.2469,2.2711,2.2759,0.0,0.0,0.0,0.0,0.0,0.0,0.0,0.0,0.0,0.0,0.0,0.0,0.0,0.0,1.768,1.665,1.7117,1.7695,1.7734,0.0,0.0,0.0,0.0,0.0,0.0,0.0,0.0,0.0,0.0,0.0,0.0,0.0,0.0,2.6683,0.0,2.777,0.0,0.0,0.0,0.0,0.0,0.0,0.0,0.0,3.076,3.1819,3.2526,3.2522,3.2778,0.0,3.1732,2.9995,0.0,0.0,0.0,0.0,0.0,0.0,0.0,0.0,3.0372,3.2819,3.4044,3.5486,3.7212,3.7432,3.7274,3.6743,3.5087,3.2658,2.9452,2.7826,2.6357,0.0,0.0,0.0,0.0,0.0,0.0,0.0,0.0,0.0,0.0,0.0,0.0,0.0,0.0,0.0,0.0,0.0,0.0,0.0,0.0,0.0,0.0,0.0,2.0532,0.0,0.0,0.0,0.0,0.0,0.0,0.0,0.0,0.0,1.9063,2.0028,2.1071,2.2074,2.2473,2.2825,2.3218,0.0,0.0,0.0,0.0,0.0,0.0,0.0,2.1776,2.0746,2.0978,2.1126,2.0686,1.9987,1.959,1.9795,0.0,0.0,1.9227,1.9648,2.0207,2.0234,1.9387,1.8459,1.79,1.6925,1.6023,0.0,0.0,0.0,0.0,0.0,0.0,0.0,0.0,2.8789,2.9176,0.0,2.9815,0.0,0.0,0.0,0.0,0.0,2.9978,0.0,0.0,3.3837,3.4962,3.5616,3.5633,3.5667,3.56,3.4148,3.3385,3.3144,2.9681,0.0,0.0,0.0,0.0,0.0,0.0,3.1813,3.3024,3.4421,3.5731,3.6898,3.7265,3.7077,3.6238,3.4405,3.2636,3.1021,2.9432,2.8238,2.7369,2.519,0.0,0.0,0.0,0.0,0.0,0.0,0.0,0.0,0.0,0.0,0.0,0.0,0.0,0.0,0.0,0.0,0.0,0.0,0.0,0.0,2.1409,0.0,0.0,0.0,0.0,0.0,0.0,0.0,0.0,0.0,0.0,1.9695,2.0939,2.1949,2.2059,0.0,0.0,0.0,0.0,2.3505,2.3313,2.3283,2.3029,2.2309,2.2175,2.2158,2.2088,0.0,0.0,2.2117,2.1542,2.1121,2.1246,2.1913,2.2054,2.0923,2.1381,2.1914,2.1835,2.0639,1.956,1.9312,1.8232,1.7117,3.0891,0.0,0.0,0.0,0.0,2.8082,2.9745,3.1798,3.2087,3.2603,3.3177,3.1758,0.0,0.0,0.0,0.0,0.0,0.0,3.3372,3.4665,3.5673,3.6535,3.7222,3.7246,3.7493,3.7956,3.6518,3.5785,3.5718,3.4119,3.2062,2.9688,0.0,0.0,0.0,0.0,3.2882,3.4695,3.4751,3.5531,3.7213,3.6855,3.625,3.5454,3.384,3.2343,3.1039,3.002,2.883,2.7459,2.6747,0.0,0.0,0.0,0.0,0.0,0.0,0.0,0.0,0.0,0.0,0.0,0.0,0.0,0.0,0.0,0.0,0.0,0.0,0.0,2.2282,2.2279,2.2239,0.0,0.0,0.0,0.0,0.0,0.0,0.0,0.0,0.0,2.093,2.2005,2.2823,0.0,0.0,2.3229,2.3132,2.3119,2.3132,2.3229,0.0,0.0,0.0,2.2814,2.2936,2.2271,2.2593,2.2929,2.2953,2.2782,2.2686,2.2796,2.3015,2.3113,2.2976,2.315,2.3362,2.3307,2.2602,2.1789,2.1164,2.0205,1.9282,3.6849,3.2982,3.1241,3.0735,3.1228,3.2182,3.3489,3.4995,3.5229,3.5273,3.5054,3.3918,3.2643,3.1361,3.1322,0.0,0.0,0.0,3.5341,3.6529,3.7313,3.8058,3.8734,3.8768,3.8988,3.9343,3.8234,3.7652,3.7635,3.6907,3.5571,3.3691,0.0,0.0,3.3102,3.3406,3.4373,3.5994,3.5926,3.6288,3.7136,3.6319,3.5553,3.4907,3.3718,3.248,3.1294,3.0768,2.9994,2.8871,2.8522,2.7562,0.0,0.0,0.0,0.0,0.0,0.0,0.0,0.0,0.0,0.0,0.0,2.1976,0.0,0.0,0.0,0.0,2.294,2.3127,2.3578,2.3286,0.0,0.0,0.0,0.0,0.0,0.0,0.0,2.2142,2.2387,2.26,2.2689,2.3338,2.3585,2.3001,2.2957,2.2957,2.2893,0.0,2.297,2.3144,2.3095,2.3004,2.289,2.3178,2.327,2.2801,2.3087,2.3354,2.3372,2.3372,2.3395,2.3418,2.3424,2.3429,2.3502,2.3675,2.3813,2.3858,2.3283,2.2575,2.1833,2.102,2.0207,4.2597,4.1286,3.6882,3.5477,3.6255,3.7091,3.769,3.8091,3.8147,3.7336,3.5935,3.5945,3.4973,3.343,3.4249,0.0,3.4857,3.6229,3.7188,3.7971,3.8629,3.9311,4.0003,4.0003,4.0062,4.0096,3.9419,3.9089,3.9056,3.8396,3.8041,3.7939,3.5893,3.481,3.4793,3.547,3.618,3.6965,3.7567,3.7533,3.6795,3.5655,3.4894,3.4561,3.3774,3.2789,3.1629,3.1553,3.1369,3.092,3.0238,2.9497,2.8688,0.0,0.0,0.0,0.0,0.0,0.0,0.0,0.0,0.0,0.0,0.0,0.0,0.0,0.0,0.0,2.5208,0.0,2.5121,2.444,0.0,0.0,0.0,2.3995,2.3963,2.3613,2.362,2.4195,0.0,0.0,2.4622,0.0,2.4196,2.2846,2.2766,2.2837,2.2785,2.2829,2.2902,2.3057,2.2902,2.2995,2.3405,2.3383,2.3342,2.3439,2.351,2.3528,2.3517,2.3517,2.3453,2.336,2.3313,2.3289,2.3144,2.3342,2.3526,2.3617,2.3112,2.2431,2.1788,2.1007,2.0271,4.5343,4.4993,4.3506,4.154,3.9468,4.0198,4.061,4.0634,4.014,3.9392,3.846,3.6489,3.5008,3.4015,3.4571,3.5454,3.6577,3.6943,3.7507,3.8204,3.8384,3.8793,3.9418,3.9435,3.967,4.007,3.9926,3.9842,3.9825,3.9673,3.9276,3.8734,3.8176,3.7652,3.7127,3.728,3.7719,3.8447,3.8091,3.755,3.6778,3.4873,3.3932,3.4123,3.2828,3.1847,3.1243,3.1207,3.0887,3.0209,3.0273,2.9959,2.9175,2.8497,0.0,0.0,0.0,0.0,0.0,0.0,0.0,0.0,0.0,2.4642,2.5231,0.0,2.6255,0.0,2.588,2.5959,2.6067,2.5907,0.0,0.0,2.5743,2.562,2.5362,2.5228,2.5072,2.476,2.4706,2.4674,2.4628,2.4632,2.4481,2.406,2.3682,2.3391,2.3391,2.287,2.2592,2.2816,2.279,2.2914,2.3389,2.3567,2.3605,2.3718,2.37,2.3656,2.3645,2.3645,2.36,2.3476,2.3441,2.3413,2.3277,2.3295,2.3307,2.3277,2.3318,2.3187,2.2431,2.1617,2.0851,4.6823,4.6797,4.5948,4.4495,4.2786,4.2879,4.2756,4.2432,4.174,4.0874,3.9813,3.7738,3.6585,3.6155,3.6663,3.738,3.8174,3.845,3.8642,3.8764,3.9043,3.9064,3.881,3.9095,3.927,3.9322,3.9575,3.9696,3.9722,3.9952,3.9876,3.9503,3.9503,3.9276,3.8886,3.8548,3.8751,3.9462,3.8447,3.7702,3.7229,3.4742,3.3494,3.3686,3.2271,3.1449,3.1377,3.1377,3.1271,3.1036,3.1232,3.102,3.0317,2.9932,2.9255,0.0,0.0,0.0,0.0,0.0,0.0,0.0,0.0,0.0,0.0,0.0,2.7445,0.0,2.6944,2.6876,2.6561,2.6682,2.6699,2.6549,2.7241,2.7455,2.6805,2.6914,2.676,2.6048,2.5911,2.5773,2.557,2.5538,2.5522,2.5472,2.4908,2.4258,2.3612,2.309,2.2838,2.2763,2.2619,2.2659,2.3072,2.3412,2.3616,2.3664,2.3707,2.3728,2.3757,2.3747,2.3732,2.3594,2.3596,2.3533,2.3418,2.3401,2.3354,2.3265,2.3377,2.3216,2.2536,2.2003,2.1442,4.7579,4.7619,4.6296,4.5711,4.5649,4.4949,4.4271,4.3685,4.3017,4.1909,4.0413,3.9277,3.8677,3.8556,3.906,3.9283,3.933,3.9826,3.9748,3.9232,3.97,3.9342,3.8359,3.8814,3.8807,3.8322,3.8821,3.9109,3.9206,3.9747,4.002,4.0096,4.0113,4.0113,4.0079,3.9469,3.9428,4.0079,3.8734,3.799,3.7872,3.5131,3.3643,3.3491,3.2121,3.1465,3.1757,3.169,3.1823,3.2214,3.23,3.2103,3.1563,3.1441,3.0802,0.0,2.9372,0.0,0.0,0.0,0.0,0.0,0.0,0.0,0.0,2.8403,2.8379,2.8198,2.8244,2.7961,2.7256,2.7433,2.7486,2.7262,2.862,2.9215,2.8308,2.852,2.8424,2.7636,2.726,2.6995,2.6877,2.6809,2.6725,2.6606,2.6099,2.5235,2.4002,2.363,2.341,2.2979,2.2777,2.2938,2.3046,2.3375,2.3658,2.3614,2.3696,2.3795,2.3795,2.3795,2.3764,2.3725,2.3703,2.3667,2.3533,2.3528,2.3464,2.3348,2.3324,2.3118,2.2531,2.2218,2.1765,4.8394,4.8296,4.6973,4.6403,4.6296,4.5095,4.4548,4.4379,4.3716,4.2309,4.0505,4.0228,3.9505,3.8539,3.8623,3.8656,3.8673,3.877,3.8773,3.8633,3.823,3.8169,3.8344,3.793,3.7953,3.8278,3.8418,3.8712,3.9206,3.9312,3.9618,4.0096,4.0113,4.0113,4.0096,0.0,0.0,0.0,3.9208,3.8514,3.7872,3.6124,3.489,3.4286,3.2869,0.0,3.2156,3.1613,3.1329,3.1428,3.1803,0.0,0.0,0.0,0.0,0.0,0.0,0.0,0.0,0.0,0.0,0.0,2.9591,2.9472,2.9687,2.9691,2.9689,2.9763,2.9761,2.9753,2.9713,2.9754,2.9768,2.9728,2.998,2.9951,2.9499,2.9476,2.933,2.8973,2.8306,2.7879,2.7794,2.7283,2.6876,2.6893,2.6657,2.615,2.5304,2.466,2.4267,2.4175,2.4157,2.4215,2.3964,2.4153,2.4153,2.3894,2.3764,2.3795,2.3795,2.3795,2.3795,2.3782,2.3764,2.3761,2.3689,2.3649,2.3623,2.3476,2.3389,2.3224,2.2981,2.2459,2.1988,4.8495,0.0,4.7527,4.6896,0.0,4.5511,4.488,4.4564,4.3901,4.2817,4.1504,4.1201,4.0678,4.0016,3.9628,3.9508,3.9508,3.9474,3.929,3.9016,3.9016,3.8795,3.8465,3.8434,3.8419,3.8412,3.9026,3.9491,3.982,4.0402,4.0707,4.0646,4.0646,4.0468,4.0113,4.0113,4.0113,4.0113,3.936,3.8819,3.8379,3.6563,3.5414,3.503,0.0,0.0,0.0,0.0,0.0,0.0,0.0,0.0,0.0,0.0,0.0,3.2631,3.2666,3.2598,3.2387,3.2369,3.2318,3.2335,3.1742,3.0942,2.9945,3.0471,3.0593,2.9927,3.0205,3.0325,3.0004,3.0429,3.0564,3.0088,3.0733,3.0895,2.9916,2.9988,2.9972,2.942,2.899,2.875,2.8681,2.7998,2.7521,2.7453,2.708,2.6673,2.6266,2.5556,2.4932,2.4575,2.4613,2.4626,2.4405,2.4344,2.4357,2.4052,2.3887,2.381,2.3795,2.3795,2.3795,2.3795,2.3795,2.3792,2.3761,2.3757,2.3714,2.3623,2.3544,2.3453,2.3324,2.2888,2.2441,4.837,4.8475,4.7855,4.7204,4.6542,4.588,4.5203,4.4564,0.0,0.0,0.0,4.2202,4.1832,4.1555,4.0986,4.0612,4.0489,4.0489,4.0197,3.969,4.012,3.977,3.8739,3.9139,3.9013,3.8556,3.9549,4.0192,4.0415,4.1338,4.1593,4.1212,4.1068,4.0722,4.0146,4.0113,4.0113,4.0079,3.9495,3.9123,3.8954,3.7178,3.6096,3.5819,3.4506,3.3744,3.3609,3.3457,3.3448,3.3566,3.3607,3.369,3.3833,3.3922,3.4024,3.4135,3.4391,3.4546,3.4597,3.4143,3.4054,3.4469,3.3646,3.2284,3.0318,3.1181,3.1334,3.0196,3.0593,3.0679,3.0162,3.0802,3.094,3.0024,3.1307,3.1551,3.0214,3.0472,3.0627,2.9953,2.9747,2.9609,2.9521,2.8699,2.8117,2.7998,2.7385,2.6926,2.6808,2.6266,2.5609,2.5134,2.5177,2.5053,2.487,2.4879,2.4668,2.467,2.4448,2.4237,2.4212,2.4212,2.4176,2.4085,2.4013,2.3976,2.385,2.3785,2.3782,2.3725,2.3711,2.3685,2.3544,2.3348,2.2964,4.8328,4.8309,4.7799,4.7219,4.6542,4.588,4.5203,4.461,4.4464,4.4101,4.3454,4.3362,4.2663,4.1601,4.1494,4.1074,4.0505,4.0489,4.0428,4.032,3.9844,3.9536,3.9354,3.8877,3.86,3.8523,3.8688,3.9346,4.0248,3.9979,4.0183,4.1049,4.0561,4.0214,4.0113,4.0113,4.0113,4.0096,3.9994,3.9656,3.9005,3.8684,3.7889,3.6694,3.5757,3.4974,3.4353,3.3761,3.3406,3.3427,3.3549,3.3611,3.3649,3.3833,3.3902,3.3991,3.4642,3.4809,3.4244,3.4679,3.4745,3.4226,3.4012,3.3509,3.2543,3.2024,3.1972,3.2317,3.1972,3.1869,3.23,3.1976,3.1649,3.149,3.17,3.1717,3.1403,3.1507,3.1541,3.1368,3.0885,3.0506,3.0367,2.9248,2.8356,2.81,2.7623,2.7009,2.696,2.6707,2.6539,2.6453,2.6631,2.6624,2.6234,2.6435,2.6257,2.5973,2.5815,2.5679,2.5649,2.566,2.5443,2.4918,2.4755,2.4502,2.3976,2.3795,2.3785,2.3782,2.3747,2.37,2.3667,2.3533,2.3342,4.837,4.8423,4.824,4.7773,4.7065,4.6034,4.5203,4.4625,4.461,4.4456,4.4132,4.3762,4.327,4.2633,4.1925,4.1432,4.1093,4.0674,4.0489,4.0474,4.0182,4.0028,3.9997,3.9705,3.9582,3.9601,3.9971,4.0432,4.0991,4.136,4.1679,4.1805,4.1071,4.0519,4.013,4.0113,4.0113,4.0113,4.0113,3.9926,3.9597,3.9191,3.8667,3.799,3.6857,3.6096,3.574,3.5013,3.4585,3.4585,3.4651,3.4711,3.4797,3.4951,3.5077,3.5156,3.5549,3.5645,3.5318,3.5611,3.5473,3.4766,3.47,3.4542,3.4197,3.3473,3.3179,3.3507,3.3214,3.3199,3.349,3.2852,3.2386,3.2386,3.2059,3.18,3.18,3.18,3.18,3.1765,3.1507,3.13,3.1301,3.0316,2.9592,2.942,2.8476,2.7606,2.747,2.7029,2.6708,2.6725,2.6989,2.709,2.6926,2.6925,2.6884,2.6661,2.6381,2.6217,2.6186,2.6204,2.5878,2.519,2.5009,2.4683,2.3976,2.3795,2.3795,2.3795,2.3774,2.375,2.3739,2.3671,2.3544,4.8355,4.8537,4.8578,4.8219,4.7496,4.6172,4.528,4.4803,4.4649,4.461,4.4533,4.4055,4.367,4.3248,4.2263,4.1663,4.1309,4.0751,4.0489,4.0489,4.0489,4.0489,4.0489,4.0489,4.0489,4.0558,4.1024,4.1327,4.1608,4.239,4.2588,4.2154,4.1688,4.1068,4.0367,4.035,4.0282,4.0113,4.0113,4.0113,4.0079,3.9537,3.9157,3.892,3.7872,3.7235,3.7009,3.6451,3.6039,3.5893,3.5876,3.5876,3.5812,3.5932,3.6084,3.6204,3.6276,3.6284,3.6284,3.6284,3.6042,3.5508,3.5439,3.5459,3.5404,3.4941,3.4527,3.4389,3.4165,3.413,3.4217,3.3645,3.3162,3.3128,3.249,3.211,3.2059,3.1921,3.18,3.18,3.18,3.1783,3.1679,3.1162,3.0558,3.0109,2.9265,2.8459,2.8084,2.7487,2.7129,2.6908,2.7036,2.7274,2.7348,2.7338,2.733,2.7325,2.7066,2.694,2.6862,2.679,2.6457,2.5896,2.5642,2.5226,2.4375,2.4114,2.4041,2.3904,2.3795,2.3795,2.3785,2.3761,2.3638,4.8328,4.837,4.8521,4.8219,4.745,4.6172,4.5541,4.5387,4.4849,4.461,4.4594,4.4548,4.3802,4.2786,4.2556,4.1817,4.0705,4.052,4.0489,4.0489,4.0489,4.0489,4.0489,4.0489,4.0489,4.0505,4.0593,4.0938,4.1395,4.1006,4.0981,4.1423,4.1923,4.183,4.117,4.1102,4.0764,4.013,4.0113,4.0113,4.0096,4.0045,3.969,3.9005,3.8853,3.8481,3.7838,3.7719,3.7381,3.6778,3.6752,3.6475,3.5919,3.6053,3.6182,3.6204,3.6276,3.6284,3.6301,3.6284,3.6266,3.6215,3.6163,3.6163,3.6146,3.6094,3.5783,3.518,3.449,3.449,3.4938,3.4441,3.401,3.3921,3.3266,3.28,3.2731,3.2196,3.18,3.18,3.1834,3.18,3.1731,3.1214,3.0524,3.0058,2.9764,2.9314,2.8697,2.8435,2.8164,2.7549,2.7293,2.7491,2.7837,2.8012,2.8058,2.8294,2.8375,2.8201,2.8111,2.8129,2.8093,2.6934,2.6989,2.6409,2.5316,2.4864,2.4574,2.3958,2.3795,2.3795,2.3795,2.3803,2.3696,4.848,4.8495,4.8563,4.7989,4.6973,4.6403,4.5726,4.501,4.4733,4.461,4.461,4.461,4.4101,4.3125,4.2371,4.1678,4.1155,4.0689,4.0489,4.0489,4.0489,4.0489,4.0489,4.0489,4.0489,4.0489,4.0489,4.0662,4.0876,4.0962,4.1355,4.1927,4.2249,4.2177,4.1871,4.1847,4.1474,4.0764,4.073,4.0527,4.0163,4.0113,3.9977,3.9656,3.9225,3.887,3.8548,3.8142,3.777,3.7506,3.7549,3.7308,3.6604,3.6747,3.6878,3.6943,3.6969,3.7008,3.7029,3.6577,3.6508,3.696,3.6559,3.6284,3.6284,3.6284,3.6163,3.5887,3.5576,3.5559,3.5732,3.518,3.4749,3.4665,3.4059,3.3593,3.3576,3.2921,3.2438,3.2421,3.2059,3.18,3.1765,3.1541,3.1231,3.0834,3.0577,3.011,2.9866,2.96,2.9355,2.9281,2.8817,2.8259,2.8217,2.8321,2.8474,2.8556,2.86,2.86,2.86,2.86,2.8328,2.755,2.7477,2.6862,2.5244,2.499,2.4755,2.4103,2.3795,2.3795,2.3795,2.3795,2.3761,4.8604,4.8604,4.8604,4.7942,4.6896,4.688,4.6095,4.4964,4.4849,4.4702,4.4332,4.4125,4.3664,4.3008,4.2202,4.1709,4.1263,4.072,4.0489,4.0489,4.0489,4.0489,4.0489,4.0489,4.0489,4.0489,4.0489,4.0489,4.0593,4.1176,4.1726,4.2129,4.2351,4.2398,4.2316,4.2314,4.2058,4.1533,4.1322,4.0933,4.0426,4.0197,4.0113,4.0062,3.9588,3.9317,3.9276,3.8785,3.8396,3.8227,3.833,3.8091,3.745,3.7501,3.7588,3.7525,3.7702,3.768,3.753,3.715,3.718,3.7646,3.706,3.6628,3.6577,3.6439,3.6301,3.6266,3.6284,3.6249,3.6232,3.5818,3.5525,3.5456,3.4835,3.4424,3.4372,3.3716,3.3128,3.2904,3.2438,3.199,3.1853,3.184,3.186,3.1664,3.1481,3.108,3.1092,3.0698,3.0571,3.0794,3.0087,2.9418,2.8752,2.8513,2.8618,2.8625,2.8612,2.8607,2.86,2.86,2.8563,2.802,2.7803,2.7314,2.6276,2.5733,2.4936,2.4157,2.3831,2.385,2.3795,2.3795,2.3795,4.8604,4.8604,4.8604,4.8158,4.7527,4.7465,4.6742,4.5442,4.548,4.4856,4.3701,4.3063,4.2371,4.1848,4.2309,4.1832,4.0674,4.0566,4.0536,4.0505,4.0489,4.0489,4.0489,4.0489,4.0489,4.0489,4.0489,4.0489,4.0558,4.1142,4.1509,4.1593,4.2124,4.2437,4.2398,4.2431,4.235,4.2146,4.1651,4.1204,4.1052,4.0443,4.0146,4.0096,4.0045,4.0011,4.0011,4.0011,3.9673,3.8971,3.9076,3.8809,3.8176,3.8225,3.8133,3.768,3.8185,3.8249,3.7789,3.8099,3.8461,3.8461,3.7875,3.7426,3.7284,3.6766,3.6404,3.6301,3.6284,3.6284,3.6284,3.618,3.6146,3.6128,3.5576,3.5197,3.5145,3.451,3.3751,3.3179,3.2886,3.2593,3.1991,3.2091,3.2125,3.2143,3.2568,3.2663,3.1717,3.1729,3.1722,3.1291,3.0971,3.0667,2.995,2.9417,2.8846,2.8744,2.8929,2.8705,2.8637,2.8582,2.8545,2.8527,2.8401,2.802,2.7369,2.6493,2.5425,2.4646,2.4103,2.3987,2.385,2.3813,2.3795,4.8604,4.8558,4.8142,4.7573,4.6942,4.6511,4.5788,4.4972,4.4979,4.4456,4.367,4.3325,4.2863,4.2263,4.2494,4.1812,4.0612,4.0951,4.097,4.0551,4.0489,4.0489,4.0489,4.0489,4.0489,4.0489,4.0489,4.0489,4.0524,4.0734,4.1091,4.1459,4.1739,4.2029,4.2458,4.2908,4.2871,4.2434,4.2476,4.2168,4.1279,4.0933,4.0578,4.013,4.0113,4.0113,4.0113,4.0113,3.9977,3.9723,3.9823,3.9623,3.9037,3.9112,3.8928,3.837,3.8888,3.9181,3.8945,3.8681,3.8824,3.9181,3.8634,3.7996,3.7581,3.7198,3.687,3.6456,3.6301,3.6284,3.6284,3.6284,3.6284,3.6249,3.6059,3.587,3.5766,3.5249,3.468,3.4283,3.3593,3.2938,3.3049,3.2718,3.2459,3.2756,3.2938,3.2834,3.2711,3.2769,3.2795,3.2712,3.2346,3.1921,3.1675,3.0839,3.0181,2.9701,2.9507,2.9155,2.899,2.882,2.8747,2.8626,2.865,2.8311,2.7556,2.6837,2.5821,2.5121,2.4596,2.436,2.3886,2.4005,2.3922,4.8481,4.8219,4.7804,4.7096,4.628,4.6018,4.5387,4.4733,4.5033,4.4618,4.3809,4.3824,4.3417,4.2756,4.2817,4.2309,4.1274,4.1709,4.154,4.0909,4.0843,4.0878,4.0797,4.0597,4.0489,4.0489,4.0489,4.0597,4.0782,4.0597,4.0749,4.1158,4.1176,4.1525,4.2141,4.2645,4.2661,4.2538,4.2844,4.2517,4.1671,4.1319,4.0967,4.0476,4.0231,4.0113,4.0113,4.0113,4.0113,4.0096,4.0188,4.0092,3.985,3.9978,3.975,3.9146,3.9664,3.9939,3.9733,3.9457,3.9583,3.9974,3.941,3.872,3.8254,3.7996,3.756,3.7146,3.6784,3.6697,3.6628,3.6473,3.6301,3.6284,3.6284,3.6284,3.6266,3.5852,3.5456,3.5025,3.4059,3.3662,3.3913,3.3579,3.3371,3.3441,3.3391,3.3527,3.3301,3.3408,3.3508,3.3716,3.3285,3.2996,3.2805,3.229,3.1329,3.0774,3.0403,2.9958,2.9356,2.9162,2.8931,2.8809,2.8561,2.824,2.7719,2.7065,2.6363,2.5644,2.539,2.5238,2.4762,2.4277,2.4186,4.8235,4.7681,4.7588,4.6803,4.5818,4.6111,4.5726,4.488,4.5818,4.5241,4.3901,4.4271,4.3771,4.3017,4.3279,4.3177,4.2617,4.2648,4.2309,4.1648,4.1601,4.1601,4.1555,4.0997,4.0735,4.072,4.0597,4.0935,4.154,4.1047,4.0774,4.0632,4.0793,4.1171,4.154,4.1767,4.1965,4.2311,4.2463,4.2423,4.2299,4.1657,4.1244,4.1059,4.0493,4.0163,4.0113,4.0113,4.0113,4.0113,4.0096,4.0271,4.0497,4.0672,4.0515,3.9957,4.0446,4.0422,3.9939,4.0377,4.0653,4.0687,4.0112,3.9646,3.937,3.8922,3.8548,3.8289,3.7858,3.7478,3.7318,3.6904,3.6439,3.6284,3.6284,3.6284,3.6284,3.6284,3.6025,3.5356,3.4559,3.4165,3.4287,3.455,3.4535,3.4093,3.4389,3.4531,3.3742,3.3773,3.3826,3.3807,3.366,3.3518,3.366,3.3665,3.2645,3.1788,3.1435,3.1002,3.0087,2.9661,2.9247,2.9053,2.8816,2.8506,2.8215,2.7596,2.7225,2.665,2.642,2.6045,2.5477,2.4976,2.4526,4.8219,4.7573,4.7096,4.6419,4.5572,4.538,4.4941,4.4618,4.5064,4.4887,4.4295,4.4024,4.3879,4.3879,4.3747,4.3501,4.3347,4.3679,4.3371,4.2463,4.2309,4.2294,4.2248,4.2048,4.1955,4.1971,4.1955,4.2063,4.2202,4.2012,4.1955,4.1955,4.194,4.18,4.1631,4.2014,4.2195,4.19,4.2248,4.2444,4.2398,4.2181,4.1759,4.1236,4.0967,4.0654,4.0163,4.0113,4.0113,4.0113,4.0113,4.0246,4.0541,4.0704,4.0672,4.0578,4.0739,4.0819,4.0618,4.0698,4.0894,4.086,4.0612,4.0233,3.9784,3.9508,3.9129,3.8755,3.8353,3.8099,3.7668,3.7806,3.7404,3.6404,3.6284,3.6318,3.6284,3.6284,3.6197,3.5956,3.5318,3.5111,3.5374,3.557,3.5313,3.5332,3.5641,3.5487,3.4749,3.4471,3.4344,3.3954,3.3899,3.3825,3.3807,3.3807,3.3321,3.2664,3.2365,3.1633,3.0753,3.0161,2.9759,2.9217,2.8979,2.8766,2.8475,2.822,2.7866,2.7581,2.7267,2.6727,2.6126,2.5594,2.5125,4.8065,4.7219,4.6773,4.6034,4.5218,4.4741,4.461,4.4671,4.4849,4.4957,4.4887,4.4564,4.4579,4.4779,4.4271,4.3994,4.4024,4.444,4.4141,4.3371,4.3033,4.2971,4.291,4.2709,4.2756,4.2879,4.2725,4.274,4.294,4.2725,4.2602,4.2602,4.2602,4.2402,4.1991,4.2116,4.2066,4.193,4.2041,4.2377,4.2703,4.2541,4.2277,4.2011,4.1762,4.1238,4.0603,4.0519,4.04,4.0163,4.0163,4.0313,4.0583,4.0655,4.0769,4.0847,4.0894,4.0894,4.0894,4.0877,4.0894,4.0894,4.0894,4.0705,4.0233,4.017,3.9871,3.9566,3.9163,3.8824,3.8491,3.841,3.8129,3.7301,3.6922,3.6628,3.6404,3.6284,3.6284,3.6163,3.589,3.5921,3.6035,3.6325,3.6025,3.6327,3.6538,3.6578,3.5848,3.5284,3.4802,3.4339,3.4064,3.3972,3.3825,3.3807,3.3807,3.3537,3.328,3.2221,3.1187,3.0858,3.0473,2.9453,2.8959,2.8947,2.8704,2.8747,2.8546,2.8303,2.7999,2.7616,2.7038,2.622,2.5652,4.785,4.6711,4.6603,4.588,4.4841,4.4633,4.461,4.4702,4.5157,4.5434,4.5495,4.5418,4.548,4.5403,4.4902,4.4671,4.4671,4.4526,4.4633,4.4402,4.4048,4.3793,4.3624,4.3294,4.3356,4.3531,4.311,4.3125,4.3624,4.3156,4.2725,4.2879,4.2925,4.2725,4.2638,4.2068,4.2119,4.2401,4.1946,4.2363,4.3524,4.2906,4.2794,4.3314,4.2709,4.2016,4.139,4.1153,4.0798,4.0231,4.0213,4.0337,4.0517,4.0648,4.0745,4.0847,4.0871,4.0894,4.0894,4.0894,4.0894,4.0894,4.0894,4.0894,4.0791,4.0739,4.0705,4.0601,4.0135,3.9715,3.9474,3.9255,3.8819,3.8594,3.7978,3.7301,3.6594,3.649,3.649,3.6439,3.6353,3.6326,3.6412,3.6953,3.7005,3.686,3.7146,3.7274,3.6872,3.6174,3.5463,3.4945,3.4431,3.41,3.3954,3.3807,3.3807,3.3752,3.3568,3.2779,3.1739,3.1372,3.0858,2.9849,2.9214,2.9159,2.8994,2.897,2.8959,2.8739,2.8526,2.8416,2.7899,2.709,2.6428,4.8112,4.7311,4.6803,4.6095,4.5295,4.4856,4.461,4.4625,4.4795,4.5157,4.5495,4.5588,4.5588,4.5572,4.5418,4.5326,4.5234,4.4872,4.4895,4.5234,4.5157,4.4779,4.4564,4.4664,4.4603,4.4394,4.4141,4.4156,4.4295,4.4064,4.4024,4.4048,4.3941,4.3741,4.3377,4.3146,4.2863,4.2649,4.2441,4.2983,4.4042,4.3645,4.3573,4.4125,4.3538,4.2794,4.2049,4.1474,4.0849,4.0197,4.0138,4.0188,4.0288,4.0461,4.0607,4.0745,4.0847,4.0894,4.0894,4.0894,4.0894,4.0894,4.0894,4.0894,4.0894,4.0894,4.0894,4.0877,4.0653,4.0325,3.9922,4.0049,3.9939,3.9422,3.8801,3.8249,3.7887,3.7508,3.7185,3.7154,3.6936,3.68,3.6948,3.7377,3.7789,3.7675,3.7865,3.8102,3.7514,3.707,3.6376,3.5371,3.4766,3.4357,3.4045,3.3899,3.3807,3.3807,3.3642,3.333,3.2394,3.1733,3.1035,3.0161,3.0014,2.9922,2.9354,2.9,2.9005,2.9078,2.8902,2.8677,2.8542,2.7992,2.7504,4.8219,4.7558,4.688,4.6203,4.5526,4.4887,4.461,4.461,4.461,4.4957,4.5418,4.528,4.5495,4.5957,4.5711,4.5772,4.5926,4.5603,4.5664,4.5988,4.6311,4.6049,4.568,4.5865,4.5803,4.5434,4.5126,4.5003,4.4941,4.4726,4.461,4.4548,4.461,4.4409,4.404,4.3716,4.3608,4.3411,4.3259,4.3733,4.4916,4.4695,4.492,4.5233,4.4739,4.3927,4.2878,4.2049,4.1322,4.0705,4.0299,4.0138,4.0205,4.0387,4.0558,4.0697,4.0817,4.0894,4.0894,4.0894,4.0894,4.0894,4.0894,4.0894,4.0894,4.0894,4.0894,4.0894,4.0894,4.067,4.0405,4.0653,4.0653,4.025,3.9802,3.9307,3.872,3.8198,3.7991,3.7876,3.7666,3.7409,3.7393,3.7846,3.8018,3.8133,3.8344,3.8334,3.8083,3.7731,3.7125,3.6009,3.5078,3.4601,3.4119,3.3862,3.3807,3.3807,3.3752,3.3495,3.2908,3.2118,3.1476,3.0889,3.0779,3.0485,2.9812,2.9335,2.9299,2.9299,2.9115,2.895,2.8785,2.8539,2.8117,4.8266,4.7665,4.6988,4.6311,4.568,4.4987,4.4718,4.461,4.461,4.4933,4.5264,4.4949,4.5326,4.6342,4.5711,4.5895,4.6403,4.6188,4.6496,4.6726,4.7034,4.7004,4.6865,4.668,4.6588,4.6342,4.5911,4.5741,4.5557,4.5049,4.4779,4.4764,4.4679,4.461,4.4447,4.4121,4.4183,4.4505,4.4408,4.4857,4.5815,4.5887,4.6103,4.6545,4.5838,4.4942,4.3842,4.2912,4.2134,4.1491,4.0663,4.0332,4.0348,4.0412,4.0534,4.0655,4.0793,4.0888,4.0894,4.0894,4.0894,4.0894,4.0894,4.0894,4.0894,4.0894,4.0894,4.0894,4.0894,4.086,4.0825,4.0894,4.086,4.0739,4.0774,4.0187,3.9283,3.8794,3.872,3.8758,3.8521,3.8307,3.8235,3.8258,3.8277,3.8318,3.853,3.8535,3.8395,3.8138,3.7367,3.634,3.5532,3.4821,3.4321,3.3825,3.3807,3.3807,3.3807,3.3605,3.3183,3.254,3.199,3.1604,3.1549,3.1035,3.0191,2.9879,2.9751,2.9335,2.9042,2.8987,2.8932,2.8638,2.8282,4.8543,4.8343,4.7665,4.7004,4.6326,4.5649,4.5064,4.461,4.461,4.4718,4.4849,4.5157,4.5218,4.5149,4.5464,4.568,4.5911,4.5972,4.6326,4.7296,4.6896,4.745,4.7758,4.7558,4.7096,4.6757,4.6511,4.6388,4.6219,4.5819,4.5395,4.5372,4.5001,4.461,4.4699,4.497,4.5253,4.5539,4.5835,4.6389,4.6963,4.6886,4.6962,4.7428,4.6413,4.5635,4.506,4.391,4.3149,4.2675,4.1728,4.0857,4.0451,4.039,4.0497,4.0627,4.0714,4.0793,4.0871,4.0894,4.0894,4.0894,4.0894,4.0894,4.0894,4.0894,4.0894,4.0894,4.0894,4.0894,4.0894,4.0894,4.0894,4.0894,4.0901,4.092,4.0692,4.0013,3.965,3.9839,3.9691,3.9414,3.9121,3.9293,3.9138,3.8729,3.8611,3.8692,3.8597,3.8469,3.7679,3.6725,3.6285,3.5624,3.478,3.4247,3.399,3.388,3.3807,3.3788,3.3366,3.3183,3.2724,3.2485,3.2362,3.1678,3.0925,3.0301,3.0136,2.9537,2.9023,2.8987,2.8913,2.8675,2.8621,4.8604,4.8501,4.7881,4.7204,4.6542,4.5865,4.5203,4.4687,4.461,4.461,4.4671,4.4987,4.5064,4.508,4.5434,4.5726,4.6018,4.6065,4.6434,4.6957,4.6757,4.7004,4.7527,4.7711,4.7496,4.7434,4.7188,4.708,4.696,4.6765,4.649,4.6133,4.575,4.5735,4.5431,4.5405,4.5536,4.615,4.659,4.7161,4.7701,4.7936,4.7699,4.7703,4.6819,4.6092,4.5585,4.4604,4.4045,4.369,4.2861,4.1897,4.1239,4.1002,4.0974,4.0998,4.0834,4.0851,4.0888,4.0894,4.0894,4.0894,4.0894,4.0894,4.0894,4.0894,4.0894,4.0894,4.0894,4.0894,4.0894,4.0894,4.0894,4.0942,4.1065,4.1283,4.1308,4.0758,4.0537,4.0908,4.0735,4.0535,4.042,4.0291,3.9834,3.9321,3.87,3.8744,3.8707,3.8505,3.8028,3.7349,3.7052,3.6427,3.544,3.4761,3.4266,3.4045,3.3807,3.3807,3.3642,3.3605,3.3587,3.3311,3.2999,3.2619,3.1916,3.1256,3.0503,2.9953,2.95,2.9207,2.9017,2.901,2.9008,4.8604,4.8558,4.7881,4.7219,4.6542,4.5865,4.5203,4.4656,4.461,4.461,4.461,4.461,4.4949,4.5295,4.5357,4.5803,4.6188,4.6188,4.6188,4.6634,4.6449,4.6665,4.7019,4.745,4.7896,4.8481,4.8035,4.7773,4.776,4.7731,4.7244,4.6896,4.6724,4.6537,4.6397,4.5897,4.5897,4.6882,4.7239,4.7573,4.8096,4.8601,4.8548,4.8139,4.7428,4.6633,4.5991,4.5213,4.4671,4.4581,4.3944,4.3301,4.2695,4.2013,4.163,4.1579,4.1204,4.1016,4.0875,4.0871,4.0894,4.0894,4.0894,4.0894,4.0894,4.0894,4.0894,4.0894,4.0894,4.0894,4.0894,4.0894,4.0894,4.0965,4.1277,4.1512,4.1534,4.1283,4.149,4.1935,4.1771,4.1518,4.127,4.1072,4.0478,3.9863,3.9258,3.8781,3.8726,3.8579,3.8138,3.7698,3.7345,3.685,3.5917,3.5147,3.4656,3.4307,3.4009,3.3844,3.3825,3.3788,3.3752,3.377,3.3495,3.3109,3.2669,3.199,3.1237,3.0503,3.0173,3.0044,2.9781,2.9455,2.9536,4.8604,4.8543,4.7881,4.7204,4.6542,4.588,4.5203,4.4671,4.461,4.461,4.461,4.461,4.4671,4.481,4.4779,4.5126,4.5541,4.5418,4.5618,4.6249,4.6142,4.6234,4.7157,4.7481,4.7958,4.8435,4.8461,4.8497,4.8301,4.7905,4.8019,4.7549,4.7215,4.7049,4.7271,4.7035,4.7235,4.777,4.813,4.8418,4.8704,4.8861,4.8951,4.8629,4.7986,4.731,4.6633,4.5906,4.5246,4.4682,4.4496,4.4361,4.3921,4.2959,4.2157,4.1725,4.1518,4.1273,4.0968,4.0864,4.0888,4.0894,4.0894,4.0894,4.0894,4.0894,4.0894,4.0894,4.0894,4.0894,4.0894,4.0894,4.0912,4.1012,4.1305,4.1692,4.1969,4.2074,4.2157,4.2656,4.2572,4.2411,4.2139,4.171,4.1081,4.0414,3.9735,3.9093,3.8726,3.8597,3.834,3.79,3.7492,3.6978,3.6336,3.5624,3.5023,3.4692,3.4344,3.3917,3.388,3.3825,3.3807,3.3807,3.3715,3.3403,3.2963,3.2509,3.2028,3.1366,3.114,3.0938,3.0709,3.0496,3.0543,4.8081,4.8019,4.7357,4.6696,4.608,4.5726,4.5203,4.4656,4.461,4.461,4.461,4.461,4.461,4.461,4.461,4.4825,4.4918,4.4841,4.5172,4.5818,4.5803,4.608,4.7111,4.7419,4.7758,4.8234,4.8798,4.9244,4.9293,4.9442,4.9289,4.9418,4.9114,4.9034,4.8774,4.8227,4.8498,4.8791,4.8765,4.869,4.8987,4.9018,4.9018,4.8815,4.8328,4.775,4.7361,4.6667,4.6143,4.5737,4.5365,4.5213,4.4823,4.4141,4.3179,4.2566,4.2048,4.1618,4.1229,4.1092,4.0894,4.0894,4.0894,4.0894,4.0894,4.0894,4.0894,4.0894,4.0894,4.0894,4.0894,4.0894,4.1012,4.1255,4.1578,4.2032,4.2458,4.2713,4.2939,4.3123,4.2904,4.2814,4.29,4.2379,4.1682,4.0983,4.0249,3.9533,3.8817,3.8615,3.8469,3.8303,3.7936,3.7588,3.7055,3.6431,3.5701,3.5279,3.4692,3.427,3.3954,3.3899,3.3844,3.3807,3.3678,3.3587,3.3348,3.2944,3.258,3.2219,3.1789,3.1501,3.1572,3.1577,3.1633,4.7527,4.7342,4.6665,4.608,4.5618,4.5418,4.5118,4.4671,4.461,4.461,4.461,4.461,4.461,4.461,4.461,4.4625,4.4641,4.4733,4.5133,4.538,4.5772,4.6172,4.665,4.7275,4.7849,4.8593,4.9179,4.9908,4.9931,5.0435,5.0933,5.0826,5.1028,5.1177,5.0659,4.9526,4.9592,4.9539,4.9301,4.89,4.9097,4.9086,4.9018,4.9001,4.8443,4.8105,4.7753,4.7344,4.6904,4.6515,4.6075,4.5669,4.5585,4.4993,4.4355,4.3746,4.2774,4.2218,4.1675,4.1454,4.1153,4.0946,4.0912,4.0894,4.0894,4.0894,4.0894,4.0894,4.0894,4.0894,4.0894,4.0894,4.1088,4.1445,4.1885,4.2378,4.2769,4.3069,4.3268,4.3322,4.316,4.3123,4.3188,4.3002,4.2286,4.1297,4.0561,3.9698,3.9056,3.8762,3.8634,3.8652,3.8469,3.8267,3.7845,3.7419,3.6725,3.6138,3.5334,3.4637,3.427,3.399,3.3935,3.3899,3.3788,3.3697,3.3513,3.343,3.3208,3.2859,3.2317,3.2268,3.2704,3.2773,3.2729,4.7265,4.6665,4.5988,4.5649,4.548,4.4995,4.4718,4.4625,4.461,4.461,4.461,4.461,4.461,4.461,4.461,4.461,4.4756,4.511,4.5295,4.5411,4.6065,4.6573,4.6757,4.7281,4.8453,4.926,4.9797,4.9868,5.0283,5.0919,5.121,5.1276,5.1404,5.121,5.1442,5.0842,5.0937,5.0984,5.0784,5.0379,4.9833,4.9272,4.9052,4.8968,4.8832,4.8562,4.8091,4.7834,4.7581,4.6904,4.6177,4.5754,4.5585,4.5021,4.4666,4.4359,4.3861,4.3074,4.2099,4.1749,4.1533,4.1153,4.0946,4.0912,4.0894,4.0894,4.0894,4.0894,4.0894,4.0942,4.0965,4.0935,4.1117,4.1556,4.2053,4.2478,4.2882,4.3214,4.3462,4.3479,4.3322,4.3357,4.3406,4.3204,4.2855,4.1846,4.0857,4.0047,3.9276,3.8964,3.8707,3.8707,3.8707,3.8505,3.8395,3.7973,3.7492,3.689,3.6174,3.5243,3.4912,3.4614,3.41,3.4045,3.4022,3.3965,3.3771,3.3768,3.3788,3.3654,3.3302,3.3622,3.4147,3.4054,3.3723,4.6296,4.5972,4.5295,4.5056,4.4987,4.4733,4.461,4.461,4.461,4.461,4.461,4.461,4.461,4.461,4.461,4.4856,4.518,4.5534,4.5942,4.6227,4.6889,4.7382,4.792,4.8491,4.9426,4.9922,5.0729,5.1348,5.1401,5.1553,5.1936,5.2366,5.2436,5.2555,5.2284,5.2029,5.1877,5.1589,5.0999,5.0219,4.9593,4.9204,4.9018,4.9018,4.9018,4.8798,4.8612,4.8528,4.8426,4.7834,4.7022,4.6583,4.6413,4.5635,4.475,4.519,4.4763,4.4004,4.3082,4.2402,4.1916,4.1533,4.1188,4.0894,4.0894,4.0894,4.0894,4.0894,4.0894,4.0989,4.1186,4.1255,4.1687,4.2074,4.2378,4.2732,4.3069,4.325,4.3479,4.3479,4.3479,4.3479,4.3479,4.3369,4.3039,4.2231,4.146,4.0836,3.9863,3.9056,3.8854,3.8707,3.8707,3.8652,3.8597,3.8395,3.797,3.7474,3.7217,3.6395,3.5862,3.5422,3.4908,3.4894,3.5246,3.4958,3.4343,3.4136,3.4204,3.4305,3.4364,3.4497,3.4603,3.4648,3.4405,4.5341,4.5318,4.4787,4.461,4.461,4.461,4.461,4.461,4.461,4.461,4.461,4.461,4.461,4.4687,4.4787,4.5141,4.5572,4.5911,4.6654,4.7398,4.806,4.8469,4.9024,4.9717,5.0274,5.0429,5.1533,5.22,5.2501,5.2642,5.2886,5.3467,5.323,5.3365,5.3281,5.2942,5.2604,5.2503,5.1454,5.0642,5.0084,4.956,4.9373,4.9238,4.9137,4.9018,4.9018,4.8968,4.8951,4.868,4.7767,4.7242,4.709,4.5906,4.5043,4.5202,4.4943,4.4687,4.3964,4.334,4.2605,4.2137,4.1619,4.1188,4.0894,4.0894,4.0894,4.0894,4.0894,4.1094,4.1396,4.149,4.1927,4.2378,4.2825,4.3142,4.3392,4.3444,4.3479,4.3479,4.3479,4.3479,4.3479,4.3479,4.313,4.2506,4.1974,4.1497,4.0543,3.9441,3.9038,3.8872,3.8707,3.8707,3.8689,3.8542,3.8193,3.7988,3.7731,3.7382,3.6762,3.6248,3.5752,3.5966,3.6308,3.6067,3.5504,3.5055,3.4633,3.4625,3.463,3.4704,3.4803,3.4955,3.5048,4.4633,4.4671,4.4625,4.461,4.461,4.461,4.461,4.461,4.461,4.461,4.461,4.461,4.4625,4.4779,4.5303,4.5611,4.5711,4.6911,4.7613,4.8286,4.9031,4.9642,5.0099,5.0623,5.1348,5.1826,5.2378,5.2834,5.3212,5.3212,5.3348,5.3518,5.3518,5.3518,5.3484,5.3331,5.3112,5.2959,5.2181,5.186,5.1285,5.0642,4.9932,4.9779,4.9373,4.9018,4.9018,4.9018,4.9001,4.8951,4.8037,4.7479,4.7073,4.594,4.5229,4.5094,4.5029,4.4892,4.4563,4.4182,4.3751,4.3103,4.2275,4.1464,4.117,4.0946,4.0894,4.0918,4.0965,4.1186,4.1418,4.1626,4.2177,4.2655,4.3087,4.3214,4.3392,4.3462,4.3479,4.3479,4.3479,4.3479,4.3479,4.3479,4.3369,4.2782,4.2268,4.1809,4.0928,3.9937,3.9405,3.9074,3.8799,3.8726,3.8707,3.8542,3.8432,3.8285,3.808,3.7841,3.7477,3.7033,3.6822,3.6708,3.6952,3.682,3.674,3.6404,3.5918,3.5131,3.486,3.4993,3.5351,3.5659,3.5673,4.461,4.461,4.461,4.461,4.461,4.461,4.461,4.461,4.461,4.461,4.461,4.4625,4.4856,4.5326,4.6015,4.6555,4.6995,4.8392,4.8894,4.9413,5.0096,5.0596,5.096,5.1414,5.1987,5.2378,5.2747,5.3093,5.3433,5.3518,5.3518,5.3518,5.3518,5.3518,5.3518,5.3467,5.3264,5.2858,5.2486,5.2164,5.1437,5.0744,5.0101,5.0033,4.9373,4.9052,4.9018,4.9018,4.9018,4.8748,4.7919,4.753,4.7175,4.5991,4.5314,4.5185,4.5165,4.508,4.5008,4.4594,4.4,4.3138,4.2137,4.1429,4.1464,4.1205,4.0946,4.0965,4.1117,4.1396,4.1842,4.2198,4.2655,4.3087,4.3286,4.3357,4.341,4.3462,4.3479,4.3479,4.3479,4.3479,4.3479,4.3479,4.3332,4.3092,4.2598,4.2047,4.1277,4.0579,4.0065,3.9496,3.9203,3.8909,3.8891,3.8817,3.8726,3.856,3.8395,3.8257,3.8103,3.8422,3.8192,3.7949,3.7766,3.7892,3.7896,3.775,3.7166,3.6179,3.5588,3.5337,3.5766,3.6356,3.6438,4.461,4.461,4.461,4.461,4.461,4.461,4.461,4.461,4.461,4.461,4.461,4.4625,4.5117,4.5955,4.6724,4.7646,4.8471,4.9597,5.0301,5.0763,5.1171,5.157,5.1951,5.2291,5.2712,5.2799,5.3093,5.3518,5.3518,5.3518,5.3518,5.3518,5.3518,5.3518,5.3518,5.3467,5.3196,5.2807,5.2604,5.2469,5.1877,5.0997,5.071,5.0524,4.9729,4.9458,4.9441,4.9441,4.9187,4.8951,4.8426,4.78,4.7208,4.6515,4.5618,4.5513,4.5501,4.5302,4.5196,4.486,4.4302,4.3603,4.2879,4.2275,4.1861,4.1516,4.1326,4.0942,4.126,4.1709,4.2175,4.2518,4.292,4.3286,4.3375,4.3444,4.3444,4.3479,4.3479,4.3479,4.3479,4.3479,4.3479,4.3479,4.3424,4.3314,4.3112,4.2616,4.1992,4.135,4.0836,4.023,3.968,3.9368,3.9111,3.8982,3.8836,3.8689,3.8576,3.8703,3.8737,3.9054,3.9178,3.8794,3.8744,3.9031,3.8931,3.8641,3.7937,3.7075,3.6672,3.6356,3.6608,3.719,3.7405,4.461,4.461,4.461,4.461,4.461,4.461,4.461,4.461,4.461,4.461,4.4625,4.4694,4.5534,4.6723,4.7659,4.8744,4.9769,5.0756,5.1447,5.1898,5.2148,5.2677,5.3024,5.328,5.3212,5.3433,5.3518,5.3518,5.3518,5.3518,5.3518,5.3518,5.3518,5.3518,5.3518,5.3518,5.3484,5.3467,5.3399,5.3281,5.2909,5.1843,5.1589,5.1369,5.0304,4.9949,5.0289,4.9695,4.9492,4.9593,4.8917,4.8223,4.7564,4.687,4.6109,4.5608,4.5812,4.59,4.5956,4.5574,4.4966,4.4345,4.3672,4.3293,4.2413,4.1981,4.1899,4.1689,4.1635,4.1919,4.2269,4.2655,4.3142,4.3357,4.3444,4.3479,4.3479,4.3479,4.3479,4.3479,4.3479,4.3479,4.3479,4.3479,4.3479,4.3461,4.3479,4.313,4.2561,4.2011,4.146,4.1038,4.0414,4.0084,3.9772,3.9221,3.8946,3.8817,3.89,3.916,3.9209,3.9314,3.9378,3.9408,3.9509,3.9608,3.9556,3.9443,3.8821,3.828,3.7879,3.7666,3.7841,3.8073,3.8431,4.461,4.461,4.461,4.461,4.461,4.461,4.461,4.461,4.461,4.461,4.4816,4.5525,4.6532,4.7681,4.9151,5.0212,5.0855,5.2202,5.2868,5.2343,5.2799,5.3178,5.3467,5.3518,5.3518,5.3518,5.3518,5.3518,5.3518,5.3518,5.3518,5.3518,5.3518,5.3518,5.3518,5.3518,5.3501,5.3501,5.3501,5.3467,5.3382,5.252,5.2029,5.2283,5.1031,5.0695,5.1202,5.027,4.9965,4.9999,4.9238,4.8189,4.7378,4.6616,4.5896,4.5337,4.535,4.5463,4.5554,4.5422,4.5311,4.4906,4.4423,4.4,4.35,4.3017,4.2843,4.2725,4.2506,4.286,4.3444,4.3268,4.3483,4.3445,4.3479,4.3479,4.3479,4.3479,4.3479,4.3479,4.3479,4.3479,4.3479,4.3479,4.3479,4.3479,4.3479,4.3479,4.3057,4.2525,4.1992,4.1754,4.1313,4.0928,4.0506,4.0065,3.99,3.9955,3.9926,3.9964,3.9937,3.9917,4.0009,4.0276,4.0211,4.0148,4.0244,4.0281,3.9982,3.9557,3.9221,3.8835,3.8753,3.9176,3.9773,4.461,4.461,4.461,4.461,4.461,4.461,4.461,4.461,4.461,4.461,4.4838,4.5908,4.7125,4.8425,4.9886,5.1586,5.1924,5.2886,5.3348,5.2782,5.3212,5.3433,5.3484,5.3518,5.3518,5.3518,5.3518,5.3518,5.3518,5.3518,5.3518,5.3518,5.3518,5.3518,5.3518,5.3518,5.3518,5.3518,5.3518,5.3501,5.3264,5.2807,5.2452,5.2384,5.1911,5.1422,5.1572,5.1183,5.0456,5.0101,4.934,4.8156,4.731,4.6493,4.5823,4.5422,4.5371,4.5596,4.5826,4.5897,4.5742,4.5328,4.4716,4.4406,4.4311,4.3776,4.3684,4.3629,4.3598,4.3724,4.3967,4.3761,4.3627,4.3589,4.3534,4.3534,4.3479,4.3479,4.3479,4.3479,4.3479,4.3479,4.3479,4.3479,4.3479,4.3479,4.3479,4.3479,4.3479,4.302,4.2598,4.2396,4.2103,4.1717,4.1334,4.0985,4.093,4.1093,4.0967,4.0828,4.1013,4.106,4.1099,4.1163,4.1253,4.1323,4.1244,4.1135,4.098,4.0835,4.0641,4.0236,3.978,4.0053,4.0585,4.461,4.461,4.461,4.461,4.461,4.461,4.461,4.461,4.461,4.461,4.4739,4.5625,4.7101,4.8868,4.9898,5.1327,5.2824,5.3332,5.3416,5.3382,5.3467,5.3518,5.3518,5.3518,5.3518,5.3518,5.3518,5.3518,5.3518,5.3518,5.3518,5.3518,5.3518,5.3518,5.3518,5.3518,5.3518,5.3518,5.3518,5.3518,5.3348,5.2892,5.2892,5.2807,5.2401,5.235,5.2367,5.2029,5.1352,5.0862,5.0338,4.9187,4.8173,4.7225,4.6569,4.6113,4.6086,4.6106,4.6197,4.6173,4.5966,4.5483,4.5345,4.4958,4.4716,4.4609,4.4677,4.4523,4.4407,4.4243,4.4189,4.3999,4.3809,4.3753,4.3644,4.3589,4.3497,4.3479,4.3479,4.3479,4.3479,4.3479,4.3479,4.3479,4.3479,4.3479,4.3479,4.3479,4.3479,4.3479,4.3149,4.3112,4.28,4.2451,4.2139,4.1884,4.1882,4.2011,4.1764,4.1627,4.1887,4.2134,4.2045,4.2117,4.2422,4.244,4.215,4.2089,4.2078,4.1933,4.1758,4.1286,4.0726,4.0561,4.0854,4.461,4.461,4.461,4.461,4.461,4.461,4.461,4.461,4.461,4.4858,4.5437,4.671,4.7856,4.9106,5.0861,5.1899,5.2605,5.3162,5.3433,5.3501,5.3467,5.3501,5.3518,5.3518,5.3518,5.3518,5.3518,5.3518,5.3518,5.3518,5.3518,5.3518,5.3518,5.3518,5.3518,5.3518,5.3518,5.3518,5.3518,5.3518,5.3518,5.3196,5.3315,5.3145,5.3044,5.3095,5.301,5.257,5.1877,5.1217,5.0524,4.9424,4.8024,4.7648,4.723,4.6141,4.5843,4.5663,4.5742,4.5742,4.5656,4.551,4.5423,4.5615,4.555,4.5583,4.5758,4.5659,4.538,4.5262,4.5142,4.4949,4.4488,4.4121,4.4048,4.3975,4.3828,4.3552,4.3534,4.3479,4.3479,4.3479,4.3479,4.3479,4.3479,4.3479,4.3479,4.3479,4.3479,4.3479,4.3479,4.3424,4.3332,4.2928,4.302,4.2873,4.2873,4.2869,4.2637,4.2636,4.3106,4.3246,4.3,4.3021,4.3226,4.3109,4.2855,4.2853,4.2909,4.2879,4.2684,4.2184,4.1761,4.1577,4.1296,4.461,4.461,4.461,4.4761,4.5008,4.5014,4.5179,4.5384,4.5179,4.5311,4.5853,4.7216,4.8328,4.9144,5.054,5.1489,5.1895,5.2587,5.2959,5.301,5.3399,5.3484,5.3518,5.3518,5.3518,5.3518,5.3518,5.3518,5.3518,5.3518,5.3518,5.3518,5.3518,5.3518,5.3518,5.3518,5.3518,5.3518,5.3518,5.3501,5.3484,5.3484,5.3501,5.345,5.345,5.3467,5.345,5.2858,5.2401,5.1674,5.093,4.9864,4.8406,4.7704,4.6844,4.5812,4.5581,4.5474,4.55,4.5466,4.5432,4.5476,4.5572,4.5995,4.6151,4.6198,4.6656,4.691,4.66,4.6315,4.6227,4.6012,4.5296,4.4617,4.4525,4.4452,4.4103,4.3699,4.3571,4.3497,4.3479,4.3479,4.3479,4.3479,4.3479,4.3479,4.3479,4.3479,4.3479,4.3479,4.3479,4.3461,4.3461,4.3351,4.3479,4.3513,4.3401,4.3404,4.358,4.3709,4.4242,4.439,4.4151,4.4019,4.3952,4.3873,4.384,4.3684,4.3654,4.3682,4.3701,4.3327,4.2904,4.2566,4.222,4.4402,4.4409,4.4509,4.4849,4.5582,4.5606,4.6067,4.6708,4.6147,4.5897,4.6269,4.7322,4.8332,4.9092,5.0047,5.0644,5.1285,5.2012,5.252,5.2367,5.3196,5.3501,5.3518,5.3518,5.3518,5.3518,5.3518,5.3518,5.3518,5.3518,5.3518,5.3518,5.3518,5.3518,5.3518,5.3518,5.3501,5.3484,5.3331,5.3213,5.3281,5.3365,5.3382,5.323,5.3264,5.3331,5.3382,5.3264,5.3129,5.235,5.1555,5.0524,4.8955,4.7639,4.6486,4.5836,4.5765,4.5508,4.5466,4.5414,4.5414,4.5563,4.5905,4.6291,4.6483,4.6701,4.716,4.7554,4.7272,4.6933,4.6762,4.6746,4.6287,4.5681,4.5369,4.5204,4.4874,4.4342,4.3809,4.3699,4.3479,4.3479,4.3479,4.3479,4.3479,4.3479,4.3479,4.3479,4.3479,4.3479,4.3479,4.3479,4.3479,4.3479,4.3479,4.3531,4.3649,4.377,4.4031,4.4229,4.4393,4.4811,4.53,4.4978,4.4679,4.4907,4.4923,4.4662,4.4556,4.4797,4.4739,4.4489,4.4105,4.3662,4.3066,4.3079,4.3152,4.3597,4.4256,4.4997,4.5488,4.6154,4.683,4.7254,4.7339,4.7439,4.777,4.8325,4.9041,4.9687,5.0185,5.0524,5.1437,5.2164,5.2452,5.2993,5.3315,5.3484,5.345,5.3501,5.3518,5.3518,5.3518,5.3518,5.3518,5.3518,5.3518,5.3518,5.3518,5.3518,5.3518,5.3501,5.3484,5.3112,5.2841,5.2739,5.2536,5.2418,5.2232,5.2181,5.2638,5.2841,5.3196,5.2892,5.2367,5.2029,5.089,4.9314,4.8407,4.766,4.703,4.6343,4.6,4.569,4.5604,4.5656,4.5667,4.5957,4.6405,4.6771,4.7071,4.7424,4.7783,4.7876,4.7532,4.7332,4.7369,4.7297,4.6746,4.6195,4.592,4.5626,4.4892,4.4158,4.3864,4.3589,4.3479,4.3479,4.3479,4.3479,4.3479,4.3479,4.3479,4.3479,4.3479,4.3479,4.3479,4.3479,4.3479,4.3479,4.3548,4.3666,4.3873,4.4087,4.4308,4.4552,4.495,4.538,4.5457,4.5387,4.5433,4.5432,4.5413,4.5421,4.5537,4.546,4.5047,4.5066,4.4786,4.4047,4.2602,4.2674,4.3341,4.4211,4.5218,4.591,4.6783,4.7721,4.821,4.8418,4.837,4.8418,4.8625,4.9001,4.9441,4.9644,4.9847,5.076,5.1065,5.1522,5.2469,5.2807,5.3044,5.3348,5.3484,5.3518,5.3518,5.3518,5.3518,5.3518,5.3518,5.3518,5.3518,5.3518,5.3518,5.3518,5.3518,5.3484,5.2959,5.2638,5.2317,5.2012,5.1725,5.1471,5.1809,5.2198,5.2587,5.3044,5.3145,5.2654,5.2162,5.0354,4.8907,4.802,4.7425,4.6821,4.6387,4.6424,4.6121,4.6086,4.6182,4.6256,4.6635,4.7287,4.6972,4.727,4.7816,4.8154,4.8174,4.7882,4.7883,4.7884,4.7847,4.7498,4.6892,4.6452,4.5847,4.5076,4.4599,4.4323,4.3938,4.3479,4.3479,4.3479,4.3479,4.3479,4.3479,4.3479,4.3479,4.3479,4.3479,4.3479,4.3479,4.3479,4.3479,4.3563,4.3681,4.3902,4.4198,4.4553,4.4903,4.5169,4.5419,4.5475,4.554,4.5558,4.5575,4.5594,4.5594,4.5575,4.5575,4.5518,4.5594,4.5594,4.4979,4.2315,4.2525,4.3167,4.4301,4.5667,4.6483,4.7502,4.8641,4.8937,4.897,4.894,4.894,4.9018,4.9018,4.9018,4.9018,4.9323,5.0135,5.0236,5.0659,5.1775,5.2334,5.2773,5.3095,5.3365,5.3518,5.3518,5.3518,5.3518,5.3518,5.3518,5.3518,5.3518,5.3518,5.3518,5.3518,5.3518,5.3433,5.3129,5.2841,5.2317,5.1691,5.1369,5.1471,5.1809,5.2198,5.2452,5.2926,5.3365,5.3041,5.2272,5.0503,4.8983,4.8146,4.7258,4.6731,4.6731,4.6717,4.6621,4.7044,4.7047,4.7247,4.7791,4.7841,4.7496,4.7678,4.8224,4.8323,4.8343,4.8324,4.8288,4.8251,4.8214,4.8141,4.7516,4.6984,4.6214,4.5406,4.5039,4.4745,4.4158,4.3626,4.3479,4.3479,4.3497,4.3497,4.3479,4.3479,4.3479,4.3479,4.3479,4.3479,4.3479,4.3479,4.3548,4.3647,4.3795,4.414,4.4479,4.4872,4.5201,4.5371,4.5467,4.5513,4.5549,4.5586,4.5594,4.5594,4.5594,4.5594,4.5594,4.5594,4.5594,4.5594,4.5594,4.1205,4.1785,4.2429,4.3585,4.4981,4.627,4.7292,4.8125,4.8765,4.9018,4.9018,4.9018,4.9018,4.9018,4.9018,4.9018,4.912,4.9695,4.9999,5.0371,5.1505,5.2046,5.252,5.3044,5.3399,5.3518,5.3518,5.3518,5.3518,5.3518,5.3518,5.3518,5.3518,5.3518,5.3518,5.3518,5.3501,5.3399,5.3027,5.2638,5.2536,5.1944,5.1319,5.1369,5.1589,5.1674,5.1961,5.2841,5.3381,5.3275,5.2462,5.0904,4.9531,4.8449,4.7696,4.7103,4.7103,4.7138,4.7286,4.7717,4.78,4.8111,4.8462,4.8445,4.8279,4.8348,4.8614,4.847,4.8471,4.8398,4.8361,4.8306,4.8269,4.8269,4.7901,4.7516,4.6947,4.6104,4.5443,4.4856,4.4176,4.3773,4.3515,4.3534,4.3589,4.3552,4.3479,4.3479,4.3479,4.3479,4.3479,4.3496,4.3496,4.3699,4.3828,4.3844,4.3983,4.4341,4.4695,4.5063,4.5312,4.5419,4.5513,4.554,4.5558,4.5594,4.5594,4.5594,4.5594,4.5594,4.5594,4.5594,4.5594,4.5594,4.5594]}]]